MPMG - Transparência

Contra-cheque - Remuneração de todos os servidores ativos - Pré Resolução CNMP 200/2019

Período: 2014 - Agosto

Ordem Matrícula Nome Cargo Efetivo Situação Unidade Administrativa Rendimentos Descontos Rendimento Líquido Total Indenizações Outras Remunerações Retroativas/Temporárias Data de Referência
Remuneração Básica Remuneração Eventual ou Temporária Total de Rendimentos Brutos Obrigatórios/Legais Total de Descontos
Remuneração do Cargo Efetivo Outras Verbas Remuneratórias Função de Confiança ou Cargo em Comissão Gratificação Natalina Férias Abono de Permanência Contribuição Previdenciária Imposto de Renda Retenção por Teto Constitucional
1 498900 ABDON MARCIO BARBOSA DA SILVA OFICIAL DO MP ATIVO ABRE CAMPO - COMARCA; ABRE CAMPO-PJ-02PJ 3.250,03 195,00 0,00 0,00 0,00 0,00 3.445,03 400,40 79,80 0,00 480,20 2.964,83 1.210,94 260,00 31/08/2014
2 177800 ADALBERTO MENEZES FARIA SAMORA OFICIAL DO MP ATIVO BELO HORIZONTE - COMARCA; CGMP-DIVIS DE APOIO FISC ORIENTACAO FUNCIONAL 9.358,72 1.871,74 0,00 0,00 0,00 0,00 11.230,46 1.235,35 1.823,66 0,00 3.059,01 8.171,45 920,50 0,00 31/08/2014
3 306400 ADALBERTO MOREIRA GONCALVES ANALISTA DO MP ATIVO CONTAGEM - COMARCA; CONTAGEM-PJ-01PJ 9.663,38 1.932,68 0,00 0,00 0,00 0,00 11.596,06 1.275,57 2.011,98 0,00 3.287,55 8.308,51 4.230,79 324,98 31/08/2014
4 179300 ADENISE AUXILIADORA SOUZA SAD OFICIAL DO MP ATIVO BARBACENA - COMARCA; BARBACENA-PJ-06PJ 8.501,02 1.700,20 0,00 0,00 0,00 0,00 10.201,22 1.122,13 1.571,76 0,00 2.693,89 7.507,33 685,50 0,00 31/08/2014
5 77700 ADIL EXPEDITO DE OLIVEIRA JUNIOR ASSESSOR ATIVO BELO HORIZONTE - COMARCA; SUPERINTENDENCIA DE RECURSOS HUMANOS 0,00 6.378,72 7.973,40 0,00 0,00 0,00 14.352,12 1.578,73 2.587,69 0,00 4.166,42 10.185,70 685,50 0,00 31/08/2014
6 272200 ADILSON BATISTA ORNELAS OFICIAL DO MP ATIVO LAVRAS - COMARCA; LAVRAS-PJ-02PJ 3.938,84 787,77 0,00 0,00 0,00 0,00 4.726,61 519,93 222,24 0,00 742,17 3.984,44 685,50 0,00 31/08/2014
7 380100 ADILSON GONCALVES DE MELO JUNIOR ANALISTA DO MP ATIVO ARAXÁ - COMARCA; ARAXA-PJ-05PJ 7.014,37 701,44 0,00 0,00 0,00 0,00 7.715,81 950,59 1.190,08 0,00 2.140,67 5.575,14 920,50 925,96 31/08/2014
8 148800 ADILSON JANUARIO OFICIAL DO MP ATIVO BELO HORIZONTE - COMARCA; BH-22PJ PES COM DEF E IDOSOS-SECRETARIA 10.302,83 5.151,42 0,00 0,00 0,00 0,00 15.454,25 1.699,97 2.808,02 0,00 4.507,99 10.946,26 685,50 0,00 31/08/2014
9 322600 ADMILSON SILVEIRA OFICIAL DO MP ATIVO BOCAIÚVA - COMARCA; BOCAIUVA-PJ-01PJ 4.696,06 469,61 0,00 0,00 0,00 0,00 5.165,67 616,93 546,52 0,00 1.163,45 4.002,22 685,50 442,80 31/08/2014
10 333700 ADRIANA ABRITTA TEIXEIRA OFICIAL DO MP ATIVO BELO HORIZONTE - COMARCA; DIRET DE PESSOAL DO MINISTERIO PUBLICO - DPMP 5.876,69 587,67 0,00 0,00 0,00 0,00 6.464,36 772,03 891,62 0,00 1.663,65 4.800,71 685,50 554,10 31/08/2014
11 468500 ADRIANA APARECIDA FIRMINO ANALISTA DO MP ATIVO CARATINGA - COMARCA; CARATINGA-PJ-04PJ 6.265,58 375,93 0,00 0,00 0,00 0,00 6.641,51 793,19 839,86 0,00 1.633,05 5.008,46 920,50 569,30 31/08/2014
12 326100 ADRIANA AUGUSTA AMARAL BELO OFICIAL DO MP ATIVO BARBACENA - COMARCA; BARBACENA-PJ-08PJ 5.876,69 587,67 0,00 0,00 0,00 0,00 6.464,36 711,08 657,16 0,00 1.368,24 5.096,12 1.155,50 0,00 31/08/2014
13 605700 ADRIANA COSTA LIRA OFICIAL DO MP ATIVO BELO HORIZONTE - COMARCA; DIRET DE FORMACAO, APERFEIC. E POS-GRADUACAO 2.859,08 0,00 0,00 0,00 0,00 0,00 2.859,08 341,46 79,38 0,00 420,84 2.438,24 685,50 245,10 31/08/2014
14 541100 ADRIANA CRISTINA DE OLIVEIRA OFICIAL DO MP ATIVO GUAPÉ - COMARCA; GUAPE-PJ-UNPJ 2.952,15 0,00 0,00 0,00 0,00 0,00 2.952,15 324,74 49,50 0,00 374,24 2.577,91 920,50 0,00 31/08/2014
15 254800 ADRIANA DAS GRACAS FERNANDES ANALISTA DO MP ATIVO UBERABA - COMARCA; UBERABA-PJ-07PJ 9.977,95 4.988,98 0,00 0,00 0,00 0,00 14.966,93 1.646,36 2.787,59 0,00 4.433,95 10.532,98 685,50 0,00 31/08/2014
16 246900 ADRIANA DE ALMEIDA ANTONINI ASSESSOR ATIVO BELO HORIZONTE - COMARCA; PROCON-MG-SECRETARIA DE FISCALIZACOES 0,00 471,82 2.359,08 0,00 0,00 0,00 2.830,90 386,80 134,41 0,00 521,21 2.309,69 685,50 0,00 31/08/2014
17 217400 ADRIANA DE CARVALHO CATAO BRAGA ASSESSOR ATIVO BELO HORIZONTE - COMARCA; EXTINTA - DIRETORIA DE CONTRATOS E CONVÊNIOS 0,00 1.253,12 6.265,58 0,00 2.506,23 0,00 10.024,93 482,93 1.986,41 0,00 2.469,34 7.555,59 685,50 0,00 31/08/2014
18 434600 ADRIANA FERREIRA DA SILVA ANALISTA DO MP ATIVO BELO HORIZONTE - COMARCA; BH-14PJ DEFESA CONSUMIDOR-GAB 112PJ 7.014,37 701,44 0,00 0,00 0,00 0,00 7.715,81 896,03 1.167,51 0,00 2.063,54 5.652,27 685,50 429,90 31/08/2014
19 499800 ADRIANA FERREIRA TIAGO OFICIAL DO MP ATIVO SALINAS - COMARCA; SALINAS-PJ-02PJ 3.577,90 0,00 0,00 0,00 0,00 0,00 3.577,90 393,57 142,62 0,00 536,19 3.041,71 685,50 0,00 31/08/2014
20 543400 ADRIANA GUIMARAES NUNES DE PAULA ANALISTA DO MP ATIVO PATROCÍNIO - COMARCA; PATROCINIO-PJ-01PJ 5.006,87 0,00 0,00 0,00 0,00 0,00 5.006,87 550,76 399,66 0,00 950,42 4.056,45 685,50 0,00 31/08/2014
21 471500 ADRIANA HORTA DE CARVALHO RODRIGUES DE SOUSA ANALISTA DO MP ATIVO NOVA LIMA - COMARCA; NOVA LIMA-PJ-03PJ 6.265,58 375,93 0,00 0,00 0,00 0,00 6.641,51 730,57 749,94 0,00 1.480,51 5.161,00 1.155,50 0,00 31/08/2014
22 86400 ADRIANA MOREIRA CALDEIRA BRANT OFICIAL DO MP ATIVO BELO HORIZONTE - COMARCA; EXTINTA-TUTELA DAS FUNDACOES-21 PJ- GABINETE 8.501,02 4.250,51 0,00 0,00 0,00 0,00 12.751,53 1.402,67 2.245,37 0,00 3.648,04 9.103,49 685,50 0,00 31/08/2014
23 480700 ADRIANA MOREIRA DE AVELLAR CEZILIO OFICIAL DO MP ATIVO BELO HORIZONTE - COMARCA; EXTINTA - DIVISAO DE MATERIAL DE CONSUMO 3.355,81 201,35 0,00 0,00 0,00 0,00 3.557,16 391,29 85,94 0,00 477,23 3.079,93 1.155,50 0,00 31/08/2014
24 326000 ADRIANA PEREIRA CARNEIRO RESENDE OFICIAL DO MP ATIVO BELO HORIZONTE - COMARCA; PJDH-COMB A VIOLENCIA DOMESTICA-ATENDIMENTO 5.511,94 551,19 0,00 0,00 0,00 0,00 6.063,13 666,94 558,96 0,00 1.225,90 4.837,23 685,50 0,00 31/08/2014
25 502200 ADRIANA PETRUCCI DAVINA OFICIAL DO MP ATIVO PATROCÍNIO - COMARCA; PATROCINIO-PJ-03PJ 3.938,84 236,33 0,00 0,00 0,00 0,00 4.175,17 485,27 280,44 0,00 765,71 3.409,46 685,50 236,33 31/08/2014
26 201900 ADRIANA REIS PIMENTA OFICIAL DO MP ATIVO TEÓFILO OTONI - COMARCA; TEOFILO OTONI-PJ-03PJ 8.501,02 2.550,31 0,00 0,00 0,00 0,00 11.051,33 1.215,65 1.878,66 0,00 3.094,31 7.957,02 685,50 0,00 31/08/2014
27 278700 ADRIANA RODRIGUES PINTO COELHO AMARAL ANALISTA DO MP ATIVO BELO HORIZONTE - COMARCA; EXTINTA-MEIO AMB PATRIM HIST CULTURAL-15PJGAB 9.663,38 1.932,68 0,00 0,00 0,00 0,00 11.596,06 1.275,57 1.913,14 0,00 3.188,71 8.407,35 4.230,79 324,98 31/08/2014
28 468000 ADRIANA SANTOS DE SANTANA MOREIRA ANALISTA DO MP ATIVO ARAÇUAÍ - COMARCA; ARACUAI-PJ-01PJ 6.265,58 1.253,12 0,00 0,00 0,00 0,00 7.518,70 897,94 1.072,93 0,00 1.970,87 5.547,83 4.700,79 969,38 31/08/2014
29 194700 ADRIANA TSUKIDE OFICIAL DO MP ATIVO UBERABA - COMARCA; COORD REG BACIAS PARANAIBA BAIXO RIO GRANDE 8.501,02 1.700,20 0,00 0,00 0,00 0,00 10.201,22 1.122,13 1.621,18 0,00 2.743,31 7.457,91 4.230,79 324,98 31/08/2014
30 206400 ADRIANE MENDES DE SOUZA ANALISTA DO MP ATIVO BELO HORIZONTE - COMARCA; BH-23PJ CIVEL-FISC AC POL PUB II 11.885,64 5.942,82 0,00 0,00 0,00 0,00 17.828,46 1.961,13 3.487,95 0,00 5.449,08 12.379,38 787,51 9,35 31/08/2014
31 465500 ADRIANO CASSIANO MATOS ANALISTA DO MP ATIVO ARAXÁ - COMARCA; ARAXA-PJ-02PJ 5.691,44 341,49 0,00 0,00 0,00 0,00 6.032,93 663,62 650,41 0,00 1.314,03 4.718,90 685,50 0,00 31/08/2014
32 500500 ADRIANO DE ALMEIDA SILVA OFICIAL DO MP ATIVO UBERABA - COMARCA; UBERABA-PJ-12PJ 3.577,90 0,00 0,00 0,00 0,00 0,00 3.577,90 436,85 195,14 0,00 631,99 2.945,91 685,50 393,44 31/08/2014
33 187200 ADRIANO DE FREITAS MARON OFICIAL DO MP ATIVO PONTE NOVA - COMARCA; PONTE NOVA-PJ-03PJ 6.265,58 4.385,90 0,00 0,00 0,00 0,00 10.651,48 1.272,10 2.004,28 0,00 3.276,38 7.375,10 685,50 913,10 31/08/2014
34 477900 ADRIANO FERREIRA DE ALMEIDA OFICIAL DO MP ATIVO MONTES CLAROS - COMARCA; MONTES CLAROS-PJ-04PJ 4.000,95 240,06 0,00 0,00 0,00 0,00 4.241,01 466,51 177,23 0,00 643,74 3.597,27 685,50 0,00 31/08/2014
35 269101 ADRIANO PEREIRA SILVA ANALISTA DO MP ATIVO UBERABA - COMARCA; UBERABA-PJ-02PJ 6.265,58 375,93 0,00 0,00 0,00 0,00 6.641,51 730,57 700,52 0,00 1.431,09 5.210,42 920,50 0,00 31/08/2014
36 414200 ADRIANO RODRIGUES FERNANDES ANALISTA DO MP ATIVO CARANDAÍ - COMARCA; CARANDAI-PJ-UNPJ 5.876,69 587,67 0,00 0,00 0,00 0,00 6.464,36 772,03 743,36 0,00 1.515,39 4.948,97 920,50 554,10 31/08/2014
37 536700 ADRIELLE COSTA MARIA OFICIAL DO MP ATIVO SERRO - COMARCA; SERRO-PJ-SECRETARIA 2.952,15 0,00 0,00 0,00 0,00 0,00 2.952,15 324,74 62,98 0,00 387,72 2.564,43 685,50 0,00 31/08/2014
38 514300 ADRIENE DAMASCENO BRAGA ANALISTA DO MP ATIVO ALFENAS - COMARCA; ALFENAS-PJ-03PJ 6.068,01 0,00 0,00 0,00 0,00 0,00 6.068,01 667,48 659,00 0,00 1.326,48 4.741,53 685,50 0,00 31/08/2014
39 254600 ADRIENE DOMINGUES COSTA ANALISTA DO MP ATIVO BELO HORIZONTE - COMARCA; PROC. JUSTICA DIR. DIFUSOS E COLETIVOS-SEC 8.501,02 1.700,20 0,00 0,00 0,00 0,00 10.201,22 1.122,13 1.670,60 0,00 2.792,73 7.408,49 0,00 0,00 31/08/2014
40 252001 ADRIENE GOMES BARRETO ANALISTA DO MP ATIVO BELO HORIZONTE - COMARCA; BH-19PJ SAUDE-SECRETARIA 150PJ 7.973,40 2.392,02 0,00 0,00 0,00 0,00 10.365,42 1.140,20 1.710,79 0,00 2.850,99 7.514,43 685,50 0,00 31/08/2014
41 118100 AGENOR ALCIR RODRIGUES DA SILVA OFICIAL DO MP ATIVO SÃO JOÃO NEPOMUCENO - COMARCA; SAO JOAO NEPOMUCENO-PJ-01PJ 10.638,28 7.446,79 0,00 0,00 0,00 0,00 18.085,07 1.989,36 3.600,17 0,00 5.589,53 12.495,54 685,50 0,00 31/08/2014
42 302500 AGENOR JOSE DA SILVA JUNIOR ANALISTA DO MP ATIVO JUIZ DE FORA - COMARCA; JUIZ DE FORA-PJ-07PJ 9.663,38 966,34 0,00 0,00 0,00 0,00 10.629,72 1.169,27 1.676,63 0,00 2.845,90 7.783,82 685,50 0,00 31/08/2014
43 357500 AILSON WAGNER DE ALENCAR SILVA OFICIAL DO MP ATIVO BELO HORIZONTE - COMARCA; DIRETORIA DO COLEGIO E DA CAMARA DE PJ 5.691,44 1.707,43 0,00 0,00 0,00 0,00 7.398,87 813,88 885,88 0,00 1.699,76 5.699,11 920,50 0,00 31/08/2014
44 366400 AILTON ALEXSSANDRO ALVES OFICIAL DO MP ATIVO PARÁ DE MINAS - COMARCA; PARA DE MINAS-PJ-05PJ 4.848,98 969,80 0,00 0,00 0,00 0,00 5.818,78 640,07 598,00 0,00 1.238,07 4.580,71 685,50 0,00 31/08/2014
45 318900 AILTON DE CASTRO RIBEIRO JUNIOR OFICIAL DO MP ATIVO POUSO ALEGRE - COMARCA; POUSO ALEGRE-PJ-03PJ 5.338,12 1.642,13 0,00 0,00 0,00 0,00 6.980,25 645,91 767,53 0,00 1.413,44 5.566,81 685,50 0,00 31/08/2014
46 464400 ALAN MONTEIRO GASPAR ANALISTA DO MP ATIVO SETE LAGOAS - COMARCA; SETE LAGOAS-PJ-03PJ 6.265,58 375,93 0,00 0,00 0,00 0,00 6.641,51 730,57 799,36 0,00 1.529,93 5.111,58 685,50 0,00 31/08/2014
47 492000 ALANA DE CASTRO FREITAS OFICIAL DO MP ATIVO BOM SUCESSO - COMARCA; BOM SUCESSO-PJ-UNPJ 3.355,81 201,35 0,00 0,00 0,00 0,00 3.557,16 413,90 172,90 0,00 586,80 2.970,36 685,50 242,95 31/08/2014
48 306700 ALANA MARCIA DE OLIVEIRA OFICIAL DO MP ATIVO BELO HORIZONTE - COMARCA; DIRETORIA DE ADMINISTRACAO FINANCEIRA 5.691,44 1.138,29 0,00 0,00 0,00 0,00 6.829,73 751,27 845,43 0,00 1.596,70 5.233,03 685,50 0,00 31/08/2014
49 324500 ALANMAR COUTINHO COSTA OFICIAL DO MP ATIVO LEOPOLDINA - COMARCA; LEOPOLDINA-PJ-02PJ 4.848,98 484,90 0,00 0,00 0,00 0,00 5.333,88 660,74 329,98 0,00 990,72 4.343,16 1.024,56 672,84 31/08/2014
50 508200 ALBERTO DA SILVA VIEIRA ASSESSOR ATIVO BELO HORIZONTE - COMARCA; ASSESS ESPECIAL DO PGJ ATUACAO JUNTO A PGJAA 0,00 0,00 8.777,78 0,00 0,00 0,00 8.777,78 482,93 1.544,61 0,00 2.027,54 6.750,24 685,50 0,00 31/08/2014
51 407300 ALBERTO LUIZ SOARES DE OLIVEIRA ANALISTA DO MP ATIVO BELO HORIZONTE - COMARCA; SUPERINTENDÊNCIA DE ENGENHARIA E ARQUITETURA 7.014,37 701,44 0,00 0,00 0,00 0,00 7.715,81 848,74 1.062,29 0,00 1.911,03 5.804,78 685,50 0,00 31/08/2014
52 118200 ALBERTO PEREIRA DA COSTA OFICIAL DO MP ATIVO DORES DO INDAIÁ - COMARCA; DORES DO INDAIA-PJ-UNPJ 9.663,38 6.764,36 0,00 0,00 0,00 0,00 16.427,74 1.961,94 3.440,33 0,00 5.402,27 11.025,47 685,50 1.408,10 31/08/2014
53 282400 ALCILENE MARISE DE ARAUJO ANALISTA DO MP ATIVO BELO HORIZONTE - COMARCA; BH-23PJ INF-FISC MED SOC FEC 9.663,38 1.932,68 0,00 0,00 3.865,35 0,00 15.461,41 1.275,57 2.976,12 0,00 4.251,69 11.209,72 685,50 0,00 31/08/2014
54 112600 ALCIONE DA MOTA JARDIM OFICIAL DO MP ATIVO BELO HORIZONTE - COMARCA; CAO-CRIANCAS E ADOLESCENTES 7.721,95 3.088,79 0,00 0,00 0,00 0,00 10.810,74 1.189,18 1.770,36 0,00 2.959,54 7.851,20 920,50 0,00 31/08/2014
55 396400 ALCIONE DE FREITAS E SILVA ANALISTA DO MP ATIVO BELO HORIZONTE - COMARCA; DIRET DE PESSOAL DO MINISTERIO PUBLICO - DPMP 7.973,40 2.392,02 0,00 0,00 0,00 0,00 10.365,42 1.140,20 1.710,79 0,00 2.850,99 7.514,43 685,50 0,00 31/08/2014
56 161600 ALCIONE NERY SOUZA ASSESSOR ATIVO BELO HORIZONTE - COMARCA; COMB CRIMES PRAT POR AG POL MUN-SECRETARIA 0,00 2.506,23 6.265,58 0,00 0,00 0,00 8.771,81 482,93 1.641,80 0,00 2.124,73 6.647,08 685,50 0,00 31/08/2014
57 376000 ALDA GOMES LANA OFICIAL DO MP ATIVO BELO HORIZONTE - COMARCA; BH-18PJ VIOLENCIA DOMESTICA-SECRETARIA 5.169,86 516,99 0,00 0,00 0,00 0,00 5.686,85 625,55 516,29 0,00 1.141,84 4.545,01 685,50 0,00 31/08/2014
58 148000 ALDA MARTINS SIMOES OFICIAL DO MP ATIVO BELO HORIZONTE - COMARCA; BH-23PJ CIVEL- FISC ENT AB POL 9.663,38 3.865,35 0,00 0,00 0,00 0,00 13.528,73 1.488,16 2.485,01 0,00 3.973,17 9.555,56 685,50 0,00 31/08/2014
59 318400 ALDO CREPALDI JUNIOR OFICIAL DO MP ATIVO BELO HORIZONTE - COMARCA; EXTINTA - DIVISAO DE MATERIAL DE CONSUMO 5.511,94 551,19 0,00 0,00 2.021,04 0,00 8.084,17 666,94 1.199,98 0,00 1.866,92 6.217,25 920,50 130,23 31/08/2014
60 118400 ALECIO JOSE GUIMARAES DE OLIVEIRA ANALISTA DO MP ATIVO BOM SUCESSO - COMARCA; BOM SUCESSO-PJ-UNPJ 14.432,31 11.545,84 0,00 0,00 0,00 2.857,60 28.835,75 2.857,60 6.317,84 0,00 9.175,44 19.660,31 685,50 0,00 31/08/2014
61 604500 ALENIZE APARECIDA RODRIGUES HENRIQUE OFICIAL DO MP ATIVO RIO NOVO - COMARCA; RIO NOVO-PJ-UNPJ 2.859,08 0,00 0,00 0,00 0,00 0,00 2.859,08 341,46 79,38 0,00 420,84 2.438,24 685,50 245,10 31/08/2014
62 197900 ALESSA DE SOUSA E SILVA OFICIAL DO MP ATIVO OLIVEIRA - COMARCA; OLIVEIRA-PJ-02PJ 9.358,72 1.871,74 0,00 0,00 0,00 0,00 11.230,46 1.235,35 1.823,66 0,00 3.059,01 8.171,45 1.058,50 0,00 31/08/2014
63 428500 ALESSANDRA ALVES DINIZ OFICIAL DO MP ATIVO BELO HORIZONTE - COMARCA; CENTRAL DE APOIO TECNICO-SECRETARIA 3.814,70 1.525,88 0,00 0,00 0,00 0,00 5.340,58 587,46 480,96 0,00 1.068,42 4.272,16 685,50 0,00 31/08/2014
64 286801 ALESSANDRA BOTELHO JUNQUEIRA DE MENEZES ANALISTA DO MP ATIVO PASSOS - COMARCA; PASSOS-PJ-05PJ 7.973,40 1.594,68 0,00 0,00 0,00 0,00 9.568,08 1.558,86 2.543,47 0,00 4.102,33 5.465,75 1.586,61 4.664,42 31/08/2014
65 307000 ALESSANDRA CRISTINA SANTOS MENDES ANALISTA DO MP ATIVO BELO HORIZONTE - COMARCA; BH-18PJ VIOLENCIA DOMESTICA 7.014,37 1.402,87 0,00 0,00 0,00 0,00 8.417,24 925,90 1.184,55 0,00 2.110,45 6.306,79 685,50 0,00 31/08/2014
66 264400 ALESSANDRA DE SOUZA SANTOS COORDENADOR/ANALISTA ATIVO BELO HORIZONTE - COMARCA; DIRETORIA DE PRODUCAO EDITORIAL 9.977,95 5.053,96 0,00 0,00 0,00 0,00 15.031,91 1.426,85 2.915,24 0,00 4.342,09 10.689,82 685,50 0,00 31/08/2014
67 441500 ALESSANDRA DRUMMOND DE FIGUEIREDO ROSSI ANALISTA DO MP ATIVO BELO HORIZONTE - COMARCA; DIRETORIA DE PROJETOS DE EDIFICACOES 6.265,58 375,93 0,00 0,00 0,00 0,00 6.641,51 730,57 799,36 0,00 1.529,93 5.111,58 685,50 0,00 31/08/2014
68 524000 ALESSANDRA LUCIOLI DE BARROS GUERRA ANALISTA DO MP ATIVO BELO HORIZONTE - COMARCA; BH-12PJ JUIZO CRIMINAL 5.511,94 0,00 0,00 0,00 0,00 0,00 5.511,94 669,28 514,73 0,00 1.184,01 4.327,93 685,50 572,41 31/08/2014
69 479900 ALESSANDRA MARA ANDRADE DE FARIA OFICIAL DO MP ATIVO UBERABA - COMARCA; UBERABA-PJ-09PJ 4.000,95 240,06 0,00 0,00 0,00 0,00 4.241,01 466,51 246,30 0,00 712,81 3.528,20 920,50 0,00 31/08/2014
70 226700 ALESSANDRA MARA VASCONCELOS REZENDE OFICIAL DO MP ATIVO CONSELHEIRO LAFAIETE - COMARCA; CONSELHEIRO LAFAIETE-PJ-07PJ 5.338,12 1.067,62 0,00 0,00 0,00 0,00 6.405,74 704,63 741,66 0,00 1.446,29 4.959,45 685,50 0,00 31/08/2014
71 112100 ALESSANDRA MARCIA FERREIRA OFICIAL DO MP ATIVO BELO HORIZONTE - COMARCA; BELO HORIZONTE- SECRETARIA DAS PROMOTORIAS 7.721,95 3.088,79 0,00 0,00 0,00 0,00 10.810,74 1.189,18 1.770,36 0,00 2.959,54 7.851,20 685,50 0,00 31/08/2014
72 196500 ALESSANDRA MARIA RIBEIRO LUCIANO OFICIAL DO MP ATIVO RIO PARANAÍBA - COMARCA; RIO PARANAIBA-PJ-UNPJ 8.501,02 2.550,31 0,00 0,00 0,00 0,00 11.051,33 1.215,65 1.829,24 0,00 3.044,89 8.006,44 1.155,50 0,00 31/08/2014
73 91400 ALESSANDRA MENDES VASCONCELOS DE SOUZA OFICIAL DO MP ATIVO BELO HORIZONTE - COMARCA; BH-23PJ INF-FISC MED SOC AB 11.885,64 5.942,82 0,00 0,00 0,00 0,00 17.828,46 1.961,13 3.537,37 0,00 5.498,50 12.329,96 685,50 0,00 31/08/2014
74 384900 ALESSANDRA RODRIGUES ANALISTA DO MP ATIVO VISCONDE DO RIO BRANCO - COMARCA; VISCONDE DO RIO BRANCO-PJ-03PJ 7.973,40 797,34 0,00 0,00 0,00 0,00 8.770,74 1.047,48 1.405,65 0,00 2.453,13 6.317,61 685,50 751,80 31/08/2014
75 390000 ALESSANDRA SPADANO MASSARA VASCONCELOS OFICIAL DO MP ATIVO BETIM - COMARCA; BETIM-PJ-10PJ 5.006,87 500,69 0,00 0,00 0,00 0,00 5.507,56 605,83 521,83 0,00 1.127,66 4.379,90 685,50 0,00 31/08/2014
76 426500 ALESSANDRO CAMPOS DE PAIVA COORDENADOR/ANALISTA ATIVO BELO HORIZONTE - COMARCA; DIRETORIA DE PUBLICIDADE INSTITUCIONAL 0,00 1.030,28 10.302,83 0,00 0,00 0,00 11.333,11 848,74 2.057,05 0,00 2.905,79 8.427,32 685,50 0,00 31/08/2014
77 420600 ALESSANDRO SILVA OFICIAL DO MP ATIVO VISCONDE DO RIO BRANCO - COMARCA; VISCONDE DO RIO BRANCO-PJ-02PJ 3.814,70 762,94 0,00 0,00 0,00 0,00 4.577,64 546,70 177,31 0,00 724,01 3.853,63 685,50 392,40 31/08/2014
78 375301 ALETHEIA PATRICIA ASSIS MORAIS MOREIRA ANALISTA DO MP ATIVO ITABIRA - COMARCA; ITABIRA-PJ-02PJ 5.511,94 0,00 0,00 0,00 0,00 0,00 5.511,94 606,31 522,90 0,00 1.129,21 4.382,73 685,50 0,00 31/08/2014
79 382300 ALEX CARVALHO LIMA ANALISTA DO MP ATIVO UBERLÂNDIA - COMARCA; UBERLANDIA-PJ-14PJ 7.973,40 797,34 0,00 0,00 0,00 0,00 8.770,74 964,78 1.201,03 0,00 2.165,81 6.604,93 999,34 28,77 31/08/2014
80 195201 ALEX DE CASTRO PEREIRA ANALISTA DO MP ATIVO UBERABA - COMARCA; UBERABA-PJ-09PJ 9.663,38 1.932,68 0,00 0,00 0,00 0,00 11.596,06 1.275,57 1.913,14 0,00 3.188,71 8.407,35 685,50 0,00 31/08/2014
81 358900 ALEX DE PAULA LANZA ASSESSOR ATIVO BELO HORIZONTE - COMARCA; DIRETORIA DE IMPRENSA 0,00 0,00 6.265,58 0,00 0,00 0,00 6.265,58 482,93 952,59 0,00 1.435,52 4.830,06 685,50 0,00 31/08/2014
82 178400 ALEX RODRIGO SALDANHA GUIMARAES OFICIAL DO MP ATIVO BELO HORIZONTE - COMARCA; DIRETORIA DE SISTEMAS DE INFORMACAO 4.696,06 939,21 0,00 0,00 0,00 0,00 5.635,27 619,88 553,08 0,00 1.172,96 4.462,31 685,50 0,00 31/08/2014
83 413500 ALEX VILELA OLIVEIRA ANALISTA DO MP ATIVO GOVERNADOR VALADARES - COMARCA; COORD REG PJ DEF EDU DIR CRIANCA ADOL RIODOCE 7.973,40 797,34 0,00 0,00 0,00 0,00 8.770,74 1.536,52 2.592,60 0,00 4.129,12 4.641,62 1.107,47 5.236,26 31/08/2014
84 264300 ALEXANDRA FATIMA SARAIVA SOARES ANALISTA DO MP ATIVO BELO HORIZONTE - COMARCA; CENTRAL DE APOIO TECN-SETOR DE MEIO AMBIENTE 9.977,95 1.995,59 0,00 0,00 0,00 0,00 11.973,54 1.317,09 2.104,37 0,00 3.421,46 8.552,08 685,50 0,00 31/08/2014
85 488000 ALEXANDRA LARA PAIS DE CARVALHO ANALISTA DO MP ATIVO GUANHÃES - COMARCA; GUANHAES-PJ-SECRETARIA 5.691,44 341,49 0,00 0,00 0,00 0,00 6.032,93 663,62 551,57 0,00 1.215,19 4.817,74 1.390,50 0,00 31/08/2014
86 256300 ALEXANDRA SANTOS GOMES OFICIAL DO MP ATIVO BELO HORIZONTE - COMARCA; EXTINTA - DIVISÃO DE COMPRAS 5.876,69 1.175,34 0,00 0,00 0,00 0,00 7.052,03 775,72 899,84 0,00 1.675,56 5.376,47 685,50 0,00 31/08/2014
87 403300 ALEXANDRE AUGUSTO RODRIGUES ANALISTA DO MP ATIVO ÁGUAS FORMOSAS - COMARCA; AGUAS FORMOSAS-PJ-UNPJ 6.469,61 646,96 0,00 0,00 0,00 0,00 7.116,57 782,82 915,63 0,00 1.698,45 5.418,12 685,50 0,00 31/08/2014
88 311700 ALEXANDRE BARCELOS RESENDE OFICIAL DO MP ATIVO BELO HORIZONTE - COMARCA; BH-07PJ 03 TRIBUNAL DO JURI-GAB 109PJ 4.265,74 426,57 0,00 0,00 0,00 0,00 4.692,31 516,15 336,68 0,00 852,83 3.839,48 685,50 0,00 31/08/2014
89 285600 ALEXANDRE CAMPOS DE OLIVEIRA OFICIAL DO MP ATIVO UBERABA - COMARCA; COORD REG BACIAS PARANAIBA BAIXO RIO GRANDE 6.068,01 1.213,60 0,00 0,00 0,00 0,00 7.281,61 938,30 1.113,31 0,00 2.051,61 5.230,00 1.155,50 1.248,40 31/08/2014
90 509200 ALEXANDRE CAPUANO DE REZENDE ANALISTA DO MP ATIVO BELO HORIZONTE - COMARCA; COORD ESTADUAL APOIO PROMOTORES ELEITORAIS 6.068,01 0,00 0,00 0,00 0,00 0,00 6.068,01 667,48 609,58 0,00 1.277,06 4.790,95 685,50 0,00 31/08/2014
91 229400 ALEXANDRE CARLOS BOTREL DIRETOR/OFICIAL ATIVO BELO HORIZONTE - COMARCA; SUPERINTENDENCIA DOS ORGAOS COLEGIADOS 0,00 2.670,79 13.353,95 0,00 0,00 0,00 16.024,74 1.558,85 3.151,97 0,00 4.710,82 11.313,92 685,50 0,00 31/08/2014
92 411900 ALEXANDRE CARVALHO SANTOS RIBEIRO ANALISTA DO MP ATIVO PERDÕES - COMARCA; PERDOES-PJ-UNPJ 7.014,37 701,44 0,00 0,00 0,00 0,00 7.715,81 848,74 1.062,29 0,00 1.911,03 5.804,78 685,50 0,00 31/08/2014
93 201200 ALEXANDRE DE ALENCAR CORDEIRO OFICIAL DO MP ATIVO ÁGUAS FORMOSAS - COMARCA; AGUAS FORMOSAS-PJ-UNPJ 4.696,06 1.878,43 0,00 0,00 0,00 0,00 6.574,49 723,19 684,12 0,00 1.407,31 5.167,18 685,50 0,00 31/08/2014
94 288200 ALEXANDRE DE VASCONCELOS COSTA KER ANALISTA DO MP ATIVO BELO HORIZONTE - COMARCA; BH-03PJ EMPRESARIAL-SECRETARIA 9.663,38 1.932,68 0,00 0,00 0,00 0,00 11.596,06 1.275,57 1.962,56 0,00 3.238,13 8.357,93 685,50 0,00 31/08/2014
95 445000 ALEXANDRE DIOGENES OLIVEIRA ANALISTA DO MP ATIVO SALINAS - COMARCA; SALINAS-PJ-02PJ 6.793,15 407,59 0,00 0,00 0,00 0,00 7.200,74 792,08 936,23 0,00 1.728,31 5.472,43 685,50 0,00 31/08/2014
96 463400 ALEXANDRE LEAL WINKELSTROTER ANALISTA DO MP ATIVO TEÓFILO OTONI - COMARCA; TEOFILO OTONI-PJ-04PJ 5.691,44 341,49 0,00 0,00 0,00 0,00 6.032,93 663,62 600,99 0,00 1.264,61 4.768,32 685,50 0,00 31/08/2014
97 615700 ALEXANDRE LUIZ DE CASTRO MACIEL ANALISTA DO MP ATIVO IBIRITÉ - COMARCA; IBIRITE-PJ-02PJ 4.848,98 0,00 0,00 0,00 0,00 0,00 4.848,98 533,39 368,05 0,00 901,44 3.947,54 685,50 0,00 31/08/2014
98 356900 ALEXANDRE MOISES MENDONCA E ARAUJO OFICIAL DO MP ATIVO UBERABA - COMARCA; UBERABA-PJ-13PJ 4.696,06 469,61 0,00 0,00 0,00 0,00 5.165,67 622,03 551,83 0,00 1.173,86 3.991,81 4.230,79 912,80 31/08/2014
99 469900 ALEXANDRE PEREIRA GUEDES ANALISTA DO MP ATIVO CATAGUASES - COMARCA; CATAGUASES-PJ-03PJ 6.265,58 375,93 0,00 0,00 0,00 0,00 6.641,51 730,57 799,36 0,00 1.529,93 5.111,58 685,50 0,00 31/08/2014
100 208700 ALEXANDRE RESENDE FRAGA ANALISTA DO MP ATIVO BELO HORIZONTE - COMARCA; BH-19PJ SAUDE 12.356,19 2.471,24 0,00 0,00 0,00 0,00 14.827,43 1.631,02 2.654,60 0,00 4.285,62 10.541,81 1.472,11 7,48 31/08/2014
101 216401 ALEXANDRE RIBEIRO DE LIMA MAIORINO ANALISTA DO MP ATIVO UBERABA - COMARCA; UBERABA-PJ-03PJ 9.663,38 1.932,68 0,00 0,00 0,00 0,00 11.596,06 1.275,57 1.962,56 0,00 3.238,13 8.357,93 1.280,09 54,50 31/08/2014
102 475100 ALEXANDRE TEOTONIO COSTA ANALISTA DO MP ATIVO ARAGUARI - COMARCA; ARAGUARI-PJ-01PJ 6.265,58 375,93 0,00 0,00 0,00 0,00 6.641,51 730,57 700,52 0,00 1.431,09 5.210,42 1.155,50 0,00 31/08/2014
103 339000 ALEXANDRE VITOR CARDOSO OFICIAL DO MP ATIVO BELO HORIZONTE - COMARCA; BH-18PJ DIREITOS HUMANOS-SECRETARIA 4.696,06 469,61 0,00 0,00 0,00 0,00 5.165,67 626,67 419,94 0,00 1.046,61 4.119,06 920,50 531,36 31/08/2014
104 513300 ALFSON MIRANDA BRAGA ANALISTA DO MP ATIVO BELO HORIZONTE - COMARCA; BH-12PJ JUIZO CRIMINAL-GAB 092PJ 5.511,94 0,00 0,00 0,00 0,00 0,00 5.511,94 606,31 522,90 0,00 1.129,21 4.382,73 685,50 0,00 31/08/2014
105 618400 ALICE MAGALHAES MACEDO DE CARVALHO ANALISTA DO MP ATIVO AÇUCENA - COMARCA; ACUCENA-PJ-UNPJ 4.404,59 0,00 0,00 0,00 0,00 0,00 4.404,59 484,50 279,06 0,00 763,56 3.641,03 685,50 0,00 31/08/2014
106 471000 ALICE TITONELI MOREIRA ANALISTA DO MP ATIVO MIRADOURO - COMARCA; MIRADOURO-PJ-UNPJ 6.120,66 375,93 0,00 0,00 0,00 0,00 6.496,59 730,57 710,09 0,00 1.440,66 5.055,93 920,50 0,00 31/08/2014
107 373000 ALINE BOTELHO RESENDE OFICIAL DO MP ATIVO PASSA QUATRO - COMARCA; PASSA QUATRO-PJ-SECRETARIA 4.848,98 484,90 0,00 0,00 0,00 0,00 5.333,88 732,39 833,76 0,00 1.566,15 3.767,73 685,50 1.434,55 31/08/2014
108 407700 ALINE CRISTINA RODRIGUES PEREIRA ANALISTA DO MP ATIVO BELO HORIZONTE - COMARCA; DIRETORIA DE PROJETOS DE EDIFICACOES 5.316,54 587,67 0,00 0,00 0,00 0,00 5.904,21 711,08 601,96 0,00 1.313,04 4.591,17 920,50 0,00 31/08/2014
109 193100 ALINE CRISTINA SENA OLIVEIRA OFICIAL DO MP ATIVO UBERLÂNDIA - COMARCA; UBERLANDIA-PJ-03PJ 8.233,02 2.754,92 0,00 0,00 0,00 0,00 10.987,94 1.086,76 1.847,25 0,00 2.934,01 8.053,93 685,50 0,00 31/08/2014
110 554200 ALINE CRISTINA SILVA SOUZA OFICIAL DO MP ATIVO TIROS - COMARCA; TIROS-PJ-UNPJ 2.952,15 0,00 0,00 0,00 0,00 0,00 2.952,15 324,74 62,98 0,00 387,72 2.564,43 685,50 0,00 31/08/2014
111 505500 ALINE DA CUNHA MARREIROS OLIVEIRA ANALISTA DO MP ATIVO CARANGOLA - COMARCA; CARANGOLA-PJ-03PJ 6.068,01 0,00 0,00 0,00 0,00 0,00 6.068,01 667,48 609,58 0,00 1.277,06 4.790,95 920,50 0,00 31/08/2014
112 433500 ALINE DE MELO QUEIROZ OFICIAL DO MP ATIVO BELO HORIZONTE - COMARCA; PROCON-MG-SECRETARIA DE FISCALIZACOES 4.848,98 1.593,22 0,00 0,00 0,00 0,00 6.442,20 629,40 879,05 0,00 1.508,45 4.933,75 685,50 387,92 31/08/2014
113 542700 ALINE DE SOUSA ALBINO ANALISTA DO MP ATIVO CARMO DO PARANAÍBA - COMARCA; CARMO DO PARANAIBA-PJ-01PJ 5.006,87 0,00 0,00 0,00 0,00 0,00 5.006,87 599,55 507,84 0,00 1.107,39 3.899,48 685,50 443,55 31/08/2014
114 330000 ALINE DIORIO MAYRINK OFICIAL DO MP ATIVO BELO HORIZONTE - COMARCA; BH-12PJ JUIZO CRIMINAL 4.848,98 484,90 0,00 0,00 0,00 0,00 5.333,88 586,73 479,32 0,00 1.066,05 4.267,83 685,50 0,00 31/08/2014
115 499000 ALINE FERREIRA LOPES NEIVA ANALISTA DO MP ATIVO TEÓFILO OTONI - COMARCA; COORD. DE DEF. DO PAT. PUBLICO-JEQUIT./MUCURI 6.068,01 364,08 0,00 0,00 0,00 0,00 6.432,09 747,58 787,79 0,00 1.535,37 4.896,72 685,50 364,08 31/08/2014
116 405300 ALINE LAIA CARDOZO ANALISTA DO MP ATIVO BELO HORIZONTE - COMARCA; EXTINTA - DIRETORIA DE CONTRATOS E CONVÊNIOS 7.753,21 797,34 0,00 0,00 0,00 0,00 8.550,55 964,78 1.259,94 0,00 2.224,72 6.325,83 685,50 0,00 31/08/2014
117 278200 ALINE MARCIA FARIA BARBOSA OFICIAL DO MP ATIVO BARBACENA - COMARCA; BARBACENA-PJ-SECRETARIA 4.696,06 939,21 0,00 0,00 0,00 0,00 5.635,27 619,88 404,82 0,00 1.024,70 4.610,57 1.155,50 0,00 31/08/2014
118 389000 ALINE NERI NOBRE ANALISTA DO MP ATIVO MONTES CLAROS - COMARCA; COORD REG PJ DEF EDUC DIR CRIANCA ADOL NORTE 8.233,02 1.646,60 0,00 0,00 0,00 0,00 9.879,62 1.086,76 1.591,89 0,00 2.678,65 7.200,97 685,50 0,00 31/08/2014
119 294600 ALINE PATRICIA SILVA VIEIRA OFICIAL DO MP ATIVO UBERLÂNDIA - COMARCA; UBERLANDIA-PJ-03PJ 6.068,01 2.321,92 0,00 0,00 0,00 0,00 8.389,93 800,98 1.161,97 0,00 1.962,95 6.426,98 1.155,50 0,00 31/08/2014
120 420000 ALINE RODRIGUES CAMOROPIN ANALISTA DO MP ATIVO SABARÁ - COMARCA; SABARA-PJ-02PJ 7.014,37 701,44 0,00 0,00 0,00 0,00 7.715,81 848,74 1.062,29 0,00 1.911,03 5.804,78 685,50 0,00 31/08/2014
121 408300 ALINE SILVA ARAUJO DE PAULA ANALISTA DO MP ATIVO SÃO SEBASTIÃO DO PARAÍSO - COMARCA; SAO SEBASTIAO DO PARAISO-PJ-02PJ 7.973,40 797,34 0,00 0,00 0,00 0,00 8.770,74 1.428,95 2.353,27 0,00 3.782,22 4.988,52 685,50 4.219,72 31/08/2014
122 425400 ALINE TRINDADE DE FREITAS CAMPOS OFICIAL DO MP ATIVO BELO HORIZONTE - COMARCA; BH-14PJ DEFESA CONSUMIDOR-SECRETARIA 5.006,87 500,69 0,00 0,00 0,00 0,00 5.507,56 605,83 521,83 0,00 1.127,66 4.379,90 685,50 0,00 31/08/2014
123 517200 ALISSOM PEREIRA DA SILVA ANALISTA DO MP ATIVO BORDA DA MATA - COMARCA; BORDA DA MATA-PJ-UNPJ 6.068,01 0,00 0,00 0,00 0,00 0,00 6.068,01 667,48 659,00 0,00 1.326,48 4.741,53 685,50 0,00 31/08/2014
124 442400 ALISSON LABRE ANALISTA DO MP ATIVO VARGINHA - COMARCA; VARGINHA-PJ-02PJ 6.793,15 407,59 0,00 0,00 0,00 0,00 7.200,74 792,08 936,23 0,00 1.728,31 5.472,43 685,50 0,00 31/08/2014
125 349000 ALLEC RODRIGUES VIEIRA ASSESSOR/OFICIAL ATIVO BELO HORIZONTE - COMARCA; COORD DE INCLUSAO E MOBILIZACAO SOCIAIS 0,00 877,78 8.777,78 0,00 0,00 0,00 9.655,56 1.062,11 1.537,05 0,00 2.599,16 7.056,40 685,50 0,00 31/08/2014
126 297300 ALLYSON SALIBA MONTEIRO LAIZO ANALISTA DO MP ATIVO CONSELHEIRO LAFAIETE - COMARCA; CONSELHEIRO LAFAIETE-PJ-03PJ 10.302,83 2.060,57 0,00 0,00 0,00 0,00 12.363,40 1.359,97 2.199,79 0,00 3.559,76 8.803,64 685,50 0,00 31/08/2014
127 303700 ALMIR LOPES LOURES ANALISTA DO MP ATIVO BELO HORIZONTE - COMARCA; CENTRAL DE APOIO TECN-SETOR DE MEIO AMBIENTE 10.638,28 2.127,66 0,00 0,00 0,00 0,00 12.765,94 1.404,25 2.199,47 0,00 3.603,72 9.162,22 4.230,79 324,98 31/08/2014
128 515900 ALTAIR NEVES JUNIOR OFICIAL DO MP ATIVO BELO HORIZONTE - COMARCA; BH-03PJ EMPRESARIAL-SECRETARIA 3.938,84 0,00 0,00 0,00 0,00 0,00 3.938,84 433,27 190,81 0,00 624,08 3.314,76 685,50 0,00 31/08/2014
129 233300 ALVARINDO BATISTA COORDENADOR/ANALISTA ATIVO BELO HORIZONTE - COMARCA; DIVISAO DE MULTIMIDIA 11.885,64 4.189,85 0,00 0,00 0,00 0,00 16.075,49 1.568,90 3.163,16 0,00 4.732,06 11.343,43 685,50 0,00 31/08/2014
130 274100 ALYSSON CARVALHO VIDAL DE LACERDA OFICIAL DO MP ATIVO MANHUAÇU - COMARCA; MANHUACU-PJ-01PJ 6.265,58 1.253,12 0,00 0,00 0,00 0,00 7.518,70 827,06 1.014,05 0,00 1.841,11 5.677,59 685,50 0,00 31/08/2014
131 621000 AMANDA BASTOS ALVES ANALISTA DO MP ATIVO BELO HORIZONTE - COMARCA; PROC JUST RECURSOS ESP E EXTRAORD CRIMINAIS 4.404,59 0,00 0,00 0,00 0,00 0,00 4.404,59 759,06 862,75 0,00 1.621,81 2.782,78 1.090,57 2.495,93 31/08/2014
132 521700 AMANDA CRISTINA AGUIAR MACHADO OFICIAL DO MP ATIVO CONGONHAS - COMARCA; CONGONHAS-PJ-01PJ 3.250,03 0,00 0,00 0,00 0,00 0,00 3.250,03 357,50 71,89 0,00 429,39 2.820,64 685,50 0,00 31/08/2014
133 613400 AMANDA DE ASSIS IUNES SANTOS ANALISTA DO MP ATIVO PIRANGA - COMARCA; PIRANGA-PJ-UNPJ 4.404,59 0,00 0,00 0,00 0,00 0,00 4.404,59 484,50 279,06 0,00 763,56 3.641,03 1.155,50 0,00 31/08/2014
134 520800 AMANDA DE SOUZA MACHADO ANALISTA DO MP ATIVO BAEPENDI - COMARCA; BAEPENDI-PJ-UNPJ 6.068,01 0,00 0,00 0,00 0,00 0,00 6.068,01 667,48 560,16 0,00 1.227,64 4.840,37 920,50 0,00 31/08/2014
135 543100 AMANDA VIEIRA FREITAS ANALISTA DO MP ATIVO PARAGUAÇU - COMARCA; PARAGUACU-PJ-UNPJ 4.548,03 0,00 0,00 0,00 0,00 0,00 4.548,03 500,28 307,78 0,00 808,06 3.739,97 685,50 0,00 31/08/2014
136 434400 AMARILIS ASSIS SIMAO CURCIO ANALISTA DO MP ATIVO MANHUAÇU - COMARCA; MANHUACU-PJ-SECRETARIA 7.014,37 420,86 0,00 0,00 0,00 0,00 7.435,23 863,45 1.095,01 0,00 1.958,46 5.476,77 1.155,50 414,27 31/08/2014
137 273700 AMBROLINA CARNEIRO DE VASCONCELOS OFICIAL DO MP ATIVO FRUTAL - COMARCA; FRUTAL-PJ-03PJ 6.469,61 3.234,80 0,00 0,00 0,00 0,00 9.704,41 1.067,49 1.499,58 0,00 2.567,07 7.137,34 685,50 0,00 31/08/2014
138 58000 AMELIA GUARIZE DE CASTRO OFICIAL DO MP ATIVO JUIZ DE FORA - COMARCA; JUIZ DE FORA-PJ-SECRETARIA 5.169,86 4.652,88 0,00 0,00 0,00 1.080,50 10.903,24 1.080,50 1.875,10 0,00 2.955,60 7.947,64 685,50 0,00 31/08/2014
139 324301 AMERICA SUELI FERREIRA DA SILVA ANALISTA DO MP ATIVO MONTE CARMELO - COMARCA; MONTE CARMELO-PJ-02PJ 6.265,58 375,93 0,00 0,00 0,00 0,00 6.641,51 730,57 799,36 0,00 1.529,93 5.111,58 685,50 0,00 31/08/2014
140 273300 AMUJACY DE BRITO ASSIZ OFICIAL DO MP ATIVO BELO HORIZONTE - COMARCA; BH-12PJ JUIZO CRIMINAL-SECRETARIA 6.265,58 1.253,12 0,00 0,00 0,00 0,00 7.518,70 900,32 1.028,79 0,00 1.929,11 5.589,59 920,50 666,00 31/08/2014
141 482200 ANA ALICE LOPES ACHTSCHIN ANALISTA DO MP ATIVO BELO HORIZONTE - COMARCA; PROC JUST RECURSOS ESP E EXTRAORD CRIMINAIS 6.265,58 375,93 0,00 0,00 0,00 0,00 6.641,51 730,57 799,36 0,00 1.529,93 5.111,58 685,50 0,00 31/08/2014
142 490400 ANA AMELIA PAULINO GARCIA OFICIAL DO MP ATIVO BELO HORIZONTE - COMARCA; BH-12PJ JUIZO CRIMINAL-SECRETARIA 4.000,95 240,06 0,00 0,00 0,00 0,00 4.241,01 481,00 277,61 0,00 758,61 3.482,40 685,50 153,62 31/08/2014
143 279100 ANA CAROLINA ARAUJO PEREIRA ANALISTA DO MP ATIVO BELO HORIZONTE - COMARCA; DIRETORIA DE PROJETOS DE EDIFICACOES 10.302,83 2.060,57 0,00 0,00 0,00 0,00 12.363,40 1.359,97 2.199,79 0,00 3.559,76 8.803,64 685,50 0,00 31/08/2014
144 359400 ANA CAROLINA DE ABREU FARIA ASSESSOR ATIVO BELO HORIZONTE - COMARCA; DIVISAO DE CONTROLE IMOBILIARIO 0,00 0,00 6.265,58 0,00 0,00 0,00 6.265,58 482,93 952,59 0,00 1.435,52 4.830,06 685,50 0,00 31/08/2014
145 408500 ANA CAROLINA DE CASTRO CARVALHO ANALISTA DO MP ATIVO BARBACENA - COMARCA; BARBACENA-PJ-SECRETARIA 7.973,40 797,34 0,00 0,00 0,00 0,00 8.770,74 1.428,95 2.353,27 0,00 3.782,22 4.988,52 4.230,79 4.544,70 31/08/2014
146 420200 ANA CAROLINA FERNANDES SILVA ANALISTA DO MP ATIVO BELO HORIZONTE - COMARCA; GABINETE DE PROCURADOR DE JUSTIÇA - SALA 708 6.469,61 646,96 0,00 0,00 0,00 0,00 7.116,57 782,82 915,63 0,00 1.698,45 5.418,12 685,50 0,00 31/08/2014
147 522100 ANA CAROLINA FERNANDINO VIDAL PEREIRA SANTOS OFICIAL DO MP ATIVO BELO HORIZONTE - COMARCA; EXTINTA - SECRETARIA ADMINISTRATIVA 3.577,90 0,00 0,00 0,00 0,00 0,00 3.577,90 393,57 142,62 0,00 536,19 3.041,71 920,50 0,00 31/08/2014
148 502400 ANA CAROLINA GONCALVES FERNANDES ANALISTA DO MP ATIVO ABRE CAMPO - COMARCA; ABRE CAMPO-PJ-01PJ 6.068,01 0,00 0,00 0,00 0,00 0,00 6.068,01 667,48 659,00 0,00 1.326,48 4.741,53 685,50 0,00 31/08/2014
149 529900 ANA CAROLINA GONCALVES PECANHA CHEQUER ANALISTA DO MP ATIVO MANHUAÇU - COMARCA; MANHUACU-PJ-04PJ 5.006,87 0,00 0,00 0,00 0,00 0,00 5.006,87 550,76 399,66 0,00 950,42 4.056,45 685,50 0,00 31/08/2014
150 431900 ANA CAROLINA MOTTA GUATIMOSIM ANALISTA DO MP ATIVO BELO HORIZONTE - COMARCA; GABINETE DE PROCURADOR DE JUSTIÇA - SALA 413 7.014,37 701,44 0,00 0,00 0,00 0,00 7.715,81 848,74 1.062,29 0,00 1.911,03 5.804,78 685,50 0,00 31/08/2014
151 539400 ANA CAROLINA REIS MACEDO ANALISTA DO MP ATIVO UBERABA - COMARCA; COORD REG PJ DEF EDUC DIR CRIANCA ADOL TRIANG 5.006,87 0,00 0,00 0,00 0,00 0,00 5.006,87 550,76 399,66 0,00 950,42 4.056,45 3.689,62 225,31 31/08/2014
152 490600 ANA CAROLINA XAVIER GODOY ANALISTA DO MP ATIVO BELO HORIZONTE - COMARCA; BH-18PJ VIOLENCIA DOMESTICA 6.265,58 375,93 0,00 0,00 0,00 0,00 6.641,51 776,64 901,87 0,00 1.678,51 4.963,00 685,50 418,84 31/08/2014
153 600300 ANA CAROLINE PEREIRA DINIZ ANALISTA DO MP ATIVO BELO HORIZONTE - COMARCA; COMB CRIMES PRAT POR AG POL MUN-SECRETARIA 4.848,98 0,00 0,00 0,00 0,00 0,00 4.848,98 533,39 368,05 0,00 901,44 3.947,54 685,50 0,00 31/08/2014
154 615800 ANA CAROLINE PEREIRA OLIVEIRA OFICIAL DO MP ATIVO ALFENAS - COMARCA; ALFENAS-PJ-06PJ 2.859,08 0,00 0,00 0,00 0,00 0,00 2.859,08 314,50 56,76 0,00 371,26 2.487,82 685,50 0,00 31/08/2014
155 324800 ANA CECILIA MENDES DA SILVA OFICIAL DO MP ATIVO OURO FINO - COMARCA; OURO FINO-PJ-01PJ 5.876,69 1.175,34 0,00 0,00 0,00 0,00 7.052,03 775,72 850,42 0,00 1.626,14 5.425,89 920,50 0,00 31/08/2014
156 441300 ANA CLAUDIA ALKIMIM MIRANDA BOMTEMPO ANALISTA DO MP ATIVO MONTES CLAROS - COMARCA; MONTES CLAROS-PJ-11PJ 6.073,08 407,59 0,00 0,00 0,00 0,00 6.480,67 792,08 639,37 0,00 1.431,45 5.049,22 1.155,50 0,00 31/08/2014
157 604900 ANA CLAUDIA OLIVEIRA DE MIRANDA OFICIAL DO MP ATIVO PONTE NOVA - COMARCA; PONTE NOVA-PJ-04PJ 2.859,08 0,00 0,00 0,00 0,00 0,00 2.859,08 341,46 79,38 0,00 420,84 2.438,24 685,50 245,10 31/08/2014
158 379300 ANA CRISTINA ALVES FLAVIO ANALISTA DO MP ATIVO SÃO GOTARDO - COMARCA; SAO GOTARDO-PJ-01PJ 7.973,40 797,34 0,00 0,00 0,00 0,00 8.770,74 964,78 1.271,07 0,00 2.235,85 6.534,89 920,50 0,00 31/08/2014
159 461200 ANA CRISTINA ALVES PASCHOAL ANALISTA DO MP ATIVO SANTA LUZIA - COMARCA; SANTA LUZIA-PJ-03PJ 6.265,58 375,93 0,00 0,00 0,00 0,00 6.641,51 730,57 799,36 0,00 1.529,93 5.111,58 920,50 0,00 31/08/2014
160 514100 ANA CRISTINA ARAUJO ASSUNCAO ANALISTA DO MP ATIVO BELO HORIZONTE - COMARCA; ASSESS JUR DO CONS SUPERIOR DO MINISTERIO PUB 6.068,01 0,00 0,00 0,00 0,00 0,00 6.068,01 667,48 659,00 0,00 1.326,48 4.741,53 685,50 0,00 31/08/2014
161 113400 ANA CRISTINA BRAGA ALBUQUERQUE ANALISTA DO MP ATIVO BELO HORIZONTE - COMARCA; ASSESS ESP ADM E FINANCEIRA DO PGJ ADJ ADM 23.074,69 9.229,88 0,00 0,00 0,00 0,00 32.304,57 2.924,86 5.681,68 5.714,89 14.321,43 17.983,14 4.230,79 324,98 31/08/2014
162 233800 ANA CRISTINA BRAGA SOARES RIOS OFICIAL DO MP ATIVO CONTAGEM - COMARCA; CONTAGEM-PJ-SECRETARIA 6.578,93 1.315,79 0,00 0,00 0,00 0,00 7.894,72 1.138,18 1.706,31 0,00 2.844,49 5.050,23 1.298,60 2.508,60 31/08/2014
163 186400 ANA CRISTINA DE AZEVEDO LOPES OFICIAL DO MP ATIVO UBÁ - COMARCA; UBA-PJ-01PJ 8.501,02 1.700,20 0,00 0,00 0,00 0,00 10.201,22 1.122,13 1.621,18 0,00 2.743,31 7.457,91 685,50 0,00 31/08/2014
164 465100 ANA CRISTINA DE OLIVEIRA GUIMARAES ANALISTA DO MP ATIVO BRASÓPOLIS - COMARCA; BRASOPOLIS-PJ-UNPJ 6.265,58 375,93 0,00 0,00 0,00 0,00 6.641,51 730,57 799,36 0,00 1.529,93 5.111,58 685,50 0,00 31/08/2014
165 500600 ANA CRISTINA LATADO SUDARIO ANALISTA DO MP ATIVO UBERLÂNDIA - COMARCA; UBERLANDIA-PJ-07PJ 5.511,94 0,00 0,00 0,00 0,00 0,00 5.511,94 606,31 522,90 0,00 1.129,21 4.382,73 685,50 0,00 31/08/2014
166 331400 ANA CRISTINA RIBEIRO ALVES OFICIAL DO MP ATIVO BAMBUÍ - COMARCA; BAMBUI-PJ-UNPJ 5.691,44 569,14 0,00 0,00 0,00 0,00 6.260,58 747,69 837,46 0,00 1.585,15 4.675,43 685,50 536,60 31/08/2014
167 249300 ANA ELOINA MARTINS DO PINHO OFICIAL DO MP ATIVO BETIM - COMARCA; BETIM-PJ-08PJ 6.578,93 1.973,68 0,00 0,00 0,00 0,00 8.552,61 940,79 1.217,68 0,00 2.158,47 6.394,14 685,50 0,00 31/08/2014
168 257400 ANA FLAVIA CAMBRAIA ANALISTA DO MP ATIVO BELO HORIZONTE - COMARCA; BH-19PJ SAUDE-SECRETARIA 150PJ 9.977,95 1.995,59 0,00 0,00 0,00 0,00 11.973,54 1.317,09 2.054,95 0,00 3.372,04 8.601,50 685,50 0,00 31/08/2014
169 248201 ANA FLAVIA DE MORAIS SOUZA ANALISTA DO MP ATIVO DIVINÓPOLIS - COMARCA; DIVINOPOLIS-PJ-01PJ 6.265,58 1.253,12 0,00 0,00 0,00 0,00 7.518,70 827,06 1.014,05 0,00 1.841,11 5.677,59 920,50 0,00 31/08/2014
170 621100 ANA FLAVIA DINIZ TEODORO OFICIAL DO MP ATIVO SANTA LUZIA - COMARCA; SANTA LUZIA-PJ-06PJ 2.859,08 0,00 0,00 0,00 0,00 0,00 2.859,08 482,23 274,92 0,00 757,15 2.101,93 1.059,41 1.524,84 31/08/2014
171 238600 ANA FLAVIA FRANCO CAMPOS OFICIAL DO MP ATIVO BELO HORIZONTE - COMARCA; DIRETORIA DE PESSOAL ADMINISTRATIVO - DPAD 6.578,93 1.315,79 0,00 0,00 0,00 0,00 7.894,72 868,42 1.106,08 0,00 1.974,50 5.920,22 685,50 0,00 31/08/2014
172 402900 ANA FLAVIA PORTES DE CARVALHO ANALISTA DO MP ATIVO BELO HORIZONTE - COMARCA; DIRET DE PLANOS PROJETOS E PROGRAMAS INST 7.973,40 797,34 0,00 0,00 0,00 0,00 8.770,74 964,78 1.271,07 0,00 2.235,85 6.534,89 920,50 0,00 31/08/2014
173 382700 ANA KARENINA SALDANHA GONTIJO ANALISTA DO MP ATIVO BELO HORIZONTE - COMARCA; ASSESS TECNICO-JUR JUNTO AS PROC. DE JUST 7.014,37 701,44 0,00 0,00 2.571,94 0,00 10.287,75 848,74 1.769,58 0,00 2.618,32 7.669,43 920,50 0,00 31/08/2014
174 620500 ANA KARINE DE ANDRADE OLIVEIRA ANALISTA DO MP ATIVO RIBEIRÃO DAS NEVES - COMARCA; RIBEIRAO DAS NEVES-PJ-10PJ 4.404,59 0,00 0,00 0,00 0,00 0,00 4.404,59 742,91 826,82 0,00 1.569,73 2.834,86 1.059,41 2.349,11 31/08/2014
175 220000 ANA LUCIA AMORIM OFICIAL DO MP ATIVO MARTINHO CAMPOS - COMARCA; MARTINHO CAMPOS-PJ-SECRETARIA 7.014,37 3.507,18 0,00 0,00 0,00 0,00 10.521,55 1.157,37 1.749,00 0,00 2.906,37 7.615,18 685,50 0,00 31/08/2014
176 462200 ANA LUCIA ANDRADE TOMICH OTTONI ANALISTA DO MP ATIVO TEÓFILO OTONI - COMARCA; TEOFILO OTONI-PJ-06PJ 6.265,58 375,93 0,00 0,00 0,00 0,00 6.641,51 730,57 700,52 0,00 1.431,09 5.210,42 920,50 0,00 31/08/2014
177 504100 ANA LUCIA CATAO DE CARVALHO OFICIAL DO MP ATIVO BELO HORIZONTE - COMARCA; BH-09PJ AUDITORIA MILITAR 3.938,84 0,00 0,00 0,00 0,00 0,00 3.938,84 433,27 163,85 0,00 597,12 3.341,72 920,50 0,00 31/08/2014
178 274700 ANA LUCIA DE ALENCAR BRAGATO OFICIAL DO MP ATIVO UBERABA - COMARCA; UBERABA-PJ-07PJ 6.469,61 1.293,92 0,00 0,00 0,00 0,00 7.763,53 853,99 1.024,55 0,00 1.878,54 5.884,99 685,50 0,00 31/08/2014
179 258600 ANA LUCIA DE FREITAS AZEVEDO ANALISTA DO MP ATIVO BELO HORIZONTE - COMARCA; BH-19PJ SAUDE-SECRETARIA 150PJ 10.638,28 2.127,66 0,00 0,00 0,00 0,00 12.765,94 1.404,25 2.298,31 0,00 3.702,56 9.063,38 2.246,59 143,10 31/08/2014
180 509400 ANA LUCIA DORNELAS MALLOSTO ANALISTA DO MP ATIVO JUIZ DE FORA - COMARCA; JUIZ DE FORA-PJ-18PJ 5.511,94 0,00 0,00 0,00 0,00 0,00 5.511,94 606,31 379,50 0,00 985,81 4.526,13 685,50 0,00 31/08/2014
181 524600 ANA LUCIA DOS SANTOS FERNANDES COELHO ASSESSOR ATIVO BELO HORIZONTE - COMARCA; COORD ESTADUAL DE DEFESA DA EDUCACAO 0,00 0,00 3.938,84 0,00 0,00 0,00 3.938,84 482,93 328,86 0,00 811,79 3.127,05 685,50 0,00 31/08/2014
182 302600 ANA LUCIA LOPES SANTOS OFICIAL DO MP ATIVO BELO HORIZONTE - COMARCA; PROCON-MG-SECRETARIA DE FISCALIZACOES 5.876,69 2.283,66 0,00 0,00 0,00 0,00 8.160,35 775,72 1.155,20 0,00 1.930,92 6.229,43 685,50 0,00 31/08/2014
183 493400 ANA LUISA NOGUEIRA MOREIRA ANALISTA DO MP ATIVO BELO HORIZONTE - COMARCA; TRIBUNAL DO JURI-07 PJ-02 TRIBUNAL 6.265,58 375,93 0,00 0,00 0,00 0,00 6.641,51 761,28 867,70 0,00 1.628,98 5.012,53 786,02 288,44 31/08/2014
184 389300 ANA LUISA REUTER LIMA ANALISTA DO MP ATIVO BELO HORIZONTE - COMARCA; DIRETORIA DE SISTEMAS DE INFORMACAO 6.578,93 657,89 0,00 0,00 0,00 0,00 7.236,82 796,05 945,06 0,00 1.741,11 5.495,71 685,50 0,00 31/08/2014
185 480600 ANA LUIZA FERNANDES FRAGA E GRECO OFICIAL DO MP ATIVO SANTO ANTÔNIO DO MONTE - COMARCA; SANTO ANTONIO DO MONTE-PJ-UNPJ 3.694,41 221,66 0,00 0,00 0,00 0,00 3.916,07 430,77 187,77 0,00 618,54 3.297,53 685,50 0,00 31/08/2014
186 517800 ANA LUIZA MAGALHAES CIRINO PIOTO DE MELO OFICIAL DO MP ATIVO BELO HORIZONTE - COMARCA; DIVISAO DE MANUTENCAO PREDIAL 3.250,03 0,00 0,00 0,00 1.083,34 0,00 4.333,37 357,50 291,61 0,00 649,11 3.684,26 685,50 0,00 31/08/2014
187 481400 ANA MARCIA CANDIDA FERREIRA OFICIAL DO MP ATIVO BRUMADINHO - COMARCA; BRUMADINHO-PJ-01PJ 3.355,81 201,35 0,00 0,00 0,00 0,00 3.557,16 391,29 139,85 0,00 531,14 3.026,02 1.681,50 49,80 31/08/2014
188 556400 ANA MARIA OLIVEIRA SOUZA OFICIAL DO MP ATIVO ITAPECERICA - COMARCA; ITAPECERICA-PJ-UNPJ 2.952,15 0,00 0,00 0,00 0,00 0,00 2.952,15 341,46 84,03 0,00 425,49 2.526,66 685,50 183,03 31/08/2014
189 409600 ANA OLIVIA FARIA ROSENBURG ANALISTA DO MP ATIVO BELO HORIZONTE - COMARCA; DIRETORIA DO COLEGIO E DA CAMARA DE PJ 7.973,40 1.594,68 0,00 0,00 0,00 0,00 9.568,08 1.537,76 2.700,86 0,00 4.238,62 5.329,46 920,50 4.795,16 31/08/2014
190 461500 ANA PAULA ALVES CARVALHO ANALISTA DO MP ATIVO UBERLÂNDIA - COMARCA; UBERLANDIA-PJ-08PJ 6.265,58 375,93 0,00 0,00 0,00 0,00 6.641,51 730,57 799,36 0,00 1.529,93 5.111,58 685,50 0,00 31/08/2014
191 523200 ANA PAULA ALVES DA SILVA OFICIAL DO MP ATIVO GOVERNADOR VALADARES - COMARCA; GOVERNADOR VALADARES-PJ-10PJ 3.938,84 0,00 0,00 0,00 0,00 0,00 3.938,84 433,27 131,72 0,00 564,99 3.373,85 291,62 0,00 31/08/2014
192 381200 ANA PAULA BARROS PEREIRA ANALISTA DO MP ATIVO BELO HORIZONTE - COMARCA; PROC JUST RECURSOS ESP E EXTRAORD CRIMINAIS 7.973,40 797,34 0,00 0,00 0,00 0,00 8.770,74 964,78 1.320,49 0,00 2.285,27 6.485,47 685,50 0,00 31/08/2014
193 227200 ANA PAULA DA SILVA CAMPOLINA ANALISTA DO MP ATIVO BELO HORIZONTE - COMARCA; SUPERINTENDENCIA DE FINANCAS 11.885,64 3.565,69 0,00 0,00 0,00 0,00 15.451,33 1.699,65 2.955,56 0,00 4.655,21 10.796,12 685,50 0,00 31/08/2014
194 84200 ANA PAULA DE SOUZA ROCHA OFICIAL DO MP ATIVO BELO HORIZONTE - COMARCA; ASSESS ESP ADM E FINANCEIRA DO PGJ ADJ ADM 21.687,17 10.843,59 0,00 0,00 0,00 0,00 32.530,76 2.924,86 5.582,84 5.941,08 14.448,78 18.081,98 2.458,15 162,50 31/08/2014
195 278500 ANA PAULA DIAS CAPANEMA COORDENADOR/OFICIAL ATIVO BELO HORIZONTE - COMARCA; EXTINTA - DIRETORIA DE MATERIAL E PATRIMONIO 0,00 2.060,57 10.302,83 0,00 0,00 0,00 12.363,40 853,99 2.338,94 0,00 3.192,93 9.170,47 685,50 0,00 31/08/2014
196 327300 ANA PAULA GARCIA MAXIMO OFICIAL DO MP ATIVO UNAÍ - COMARCA; UNAI-PJ-01PJ 5.876,69 1.763,01 0,00 0,00 0,00 0,00 7.639,70 840,37 895,41 0,00 1.735,78 5.903,92 685,50 0,00 31/08/2014
197 270000 ANA PAULA GOULART CRUZ DE MAGALHAES ANALISTA DO MP ATIVO BELO HORIZONTE - COMARCA; COMB CRIMES PRAT POR AG POL MUN-ASSESSORIA 7.721,95 1.544,39 0,00 0,00 0,00 0,00 9.266,34 1.019,30 1.441,79 0,00 2.461,09 6.805,25 685,50 0,00 31/08/2014
198 262100 ANA PAULA KOMATSUZAKI ABIJAUDI ANALISTA DO MP ATIVO BELO HORIZONTE - COMARCA; BH-17PJ PATRIMONIO PUBLICO-SECRETARIA 9.977,95 2.993,39 0,00 0,00 0,00 0,00 12.971,34 1.549,15 2.521,86 0,00 4.071,01 8.900,33 920,50 1.111,80 31/08/2014
199 278900 ANA PAULA MOREIRA GURGEL ANALISTA DO MP ATIVO BELO HORIZONTE - COMARCA; SUPERINTENDENCIA DE RECURSOS HUMANOS 10.638,28 3.191,48 0,00 0,00 0,00 0,00 13.829,76 1.521,27 2.558,68 0,00 4.079,95 9.749,81 685,50 0,00 31/08/2014
200 425700 ANA PAULA ROCHA ASSESSOR/OFICIAL ATIVO BELO HORIZONTE - COMARCA; SUPERINTENDENCIA DE COMUNICACAO INTEGRADA 0,00 626,56 6.265,58 0,00 0,00 0,00 6.892,14 586,73 907,84 0,00 1.494,57 5.397,57 685,50 0,00 31/08/2014
201 395601 ANA PAULA SALGE OLIVEIRA ANALISTA DO MP ATIVO UBERABA - COMARCA; COORD REG PJ DEF EDUC DIR CRIANCA ADOL TRIANG 6.068,01 1.213,60 0,00 0,00 0,00 0,00 7.281,61 800,98 956,02 0,00 1.757,00 5.524,61 685,50 0,00 31/08/2014
202 473200 ANA PAULA SCOTTON BRASIL ANALISTA DO MP ATIVO JUIZ DE FORA - COMARCA; JUIZ DE FORA-PJ-09PJ 6.265,58 375,93 0,00 0,00 0,00 0,00 6.641,51 730,57 799,36 0,00 1.529,93 5.111,58 685,50 0,00 31/08/2014
203 470900 ANA PAULA VALADARES ANALISTA DO MP ATIVO PITANGUI - COMARCA; PITANGUI-PJ-01PJ 6.265,58 375,93 0,00 0,00 2.213,84 0,00 8.855,35 730,57 1.309,32 0,00 2.039,89 6.815,46 920,50 0,00 31/08/2014
204 447000 ANA PAULA VALENTIM DE ARAUJO ANALISTA DO MP ATIVO BELO HORIZONTE - COMARCA; COMB CRIMES PRAT POR AG POL MUN-SECRETARIA 6.793,15 407,59 0,00 0,00 0,00 0,00 7.200,74 792,08 936,23 0,00 1.728,31 5.472,43 685,50 0,00 31/08/2014
205 604200 ANA PAULA VIANA E SILVA OFICIAL DO MP ATIVO BELO HORIZONTE - COMARCA; BH-17PJ PATRIMONIO PUBLICO-SECRETARIA 3.147,52 0,00 0,00 0,00 0,00 0,00 3.147,52 346,23 85,16 0,00 431,39 2.716,13 685,50 0,00 31/08/2014
206 505400 ANA PAULA VIEIRA SOUTO OFICIAL DO MP ATIVO ALMENARA - COMARCA; COORD. PAT. PUBLICO-MUCURI/JEQUIT - ALMENARA 3.250,03 650,01 0,00 0,00 0,00 0,00 3.900,04 429,00 158,67 0,00 587,67 3.312,37 920,50 0,00 31/08/2014
207 280200 ANA RACHEL BRANDAO LADEIRA ROLAND COORDENADOR/ANALISTA ATIVO BELO HORIZONTE - COMARCA; ASSESSORIA JURIDICO-ADMINISTRATIVA 0,00 2.670,79 13.353,95 0,00 0,00 0,00 16.024,74 1.275,57 3.229,87 0,00 4.505,44 11.519,30 685,50 0,00 31/08/2014
208 601200 ANA REGINA RIBEIRO ANALISTA DO MP ATIVO BELO HORIZONTE - COMARCA; EXTINTA - DIVISAO DE SERVICOS GERAIS 4.404,59 0,00 0,00 0,00 0,00 0,00 4.404,59 484,50 279,06 0,00 763,56 3.641,03 685,50 0,00 31/08/2014
209 384700 ANA RODRIGUES PEREIRA MARRA ANALISTA DO MP ATIVO COROMANDEL - COMARCA; COROMANDEL-PJ-SECRETARIA 6.469,61 646,96 0,00 0,00 0,00 0,00 7.116,57 849,93 1.015,53 0,00 1.865,46 5.251,11 685,50 610,10 31/08/2014
210 232700 ANA SILVIA SEMBLANO NAKAMURA ASSESSOR/OFICIAL ATIVO BELO HORIZONTE - COMARCA; CENT DE APOIO TEC-SETOR DEF,IDOSO E INFANC 0,00 1.594,68 7.973,40 0,00 0,00 0,00 9.568,08 896,70 1.558,48 0,00 2.455,18 7.112,90 685,50 0,00 31/08/2014
211 326700 ANA TERCIA DE FATIMA COSTA OFICIAL DO MP ATIVO NOVA SERRANA - COMARCA; NOVA SERRANA-PJ-01PJ 5.876,69 587,67 0,00 0,00 0,00 711,08 7.175,44 711,08 902,13 0,00 1.613,21 5.562,23 685,50 0,00 31/08/2014
212 602100 ANACLETO FRANCISCO MARCIER PIMENTA OFICIAL DO MP ATIVO SÃO JOÃO DEL REI - COMARCA; SAO JOAO DEL REI-PJ-01PJ 2.859,08 0,00 0,00 0,00 0,00 0,00 2.859,08 314,50 16,33 0,00 330,83 2.528,25 1.390,50 0,00 31/08/2014
213 310400 ANADEJE DO CARMO DINIZ ARAUJO OFICIAL DO MP ATIVO BELO HORIZONTE - COMARCA; CENT DE ATENDIMENTO E ORIENTACAO DE PESSOAL 5.876,69 1.175,34 0,00 0,00 0,00 0,00 7.052,03 775,72 899,84 0,00 1.675,56 5.376,47 4.192,24 321,45 31/08/2014
214 337000 ANAILDES MARIA MENDES OFICIAL DO MP ATIVO JANAÚBA - COMARCA; JANAUBA-PJ-02PJ 4.848,98 1.593,22 0,00 0,00 0,00 0,00 6.442,20 660,74 948,78 0,00 1.609,52 4.832,68 853,71 688,26 31/08/2014
215 192900 ANATALIA CERQUEIRA LIMA PERES OFICIAL DO MP ATIVO UBERABA - COMARCA; COORD REG SAUDE MACROR SANIT TRIANGULO SUL 6.469,61 1.293,92 0,00 0,00 0,00 0,00 7.763,53 853,99 1.073,97 0,00 1.927,96 5.835,57 685,50 0,00 31/08/2014
216 377400 ANDEIRSON DA MATTA BARBOSA ANALISTA DO MP ATIVO POUSO ALEGRE - COMARCA; POUSO ALEGRE-PJ-01PJ 7.014,37 701,44 0,00 0,00 0,00 0,00 7.715,81 848,74 1.062,29 0,00 1.911,03 5.804,78 685,50 0,00 31/08/2014
217 317400 ANDERSON DA SILVA BICALHO OFICIAL DO MP ATIVO CONTAGEM - COMARCA; COORD REG DEF ORDEM ECONOMICA TRIB CONTAGEM 5.338,12 533,81 0,00 0,00 0,00 0,00 5.871,93 645,91 462,74 0,00 1.108,65 4.763,28 1.155,50 0,00 31/08/2014
218 506900 ANDERSON DE SOUZA DAMIANI ANALISTA DO MP ATIVO BELO HORIZONTE - COMARCA; DIRETORIA DE PAGAMENTO DE PESSOAL-DPAG 5.511,94 1.102,39 0,00 0,00 0,00 0,00 6.614,33 727,58 792,71 0,00 1.520,29 5.094,04 685,50 0,00 31/08/2014
219 410000 ANDERSON DE SOUZA NETO ASSESSOR ATIVO BELO HORIZONTE - COMARCA; DIRETORIA DE ADMINISTRACAO FINANCEIRA 0,00 0,00 3.938,84 0,00 0,00 0,00 3.938,84 482,93 328,86 0,00 811,79 3.127,05 685,50 0,00 31/08/2014
220 181900 ANDERSON FLAVIO DE OLIVEIRA OFICIAL DO MP ATIVO ITAGUARA - COMARCA; ITAGUARA-PJ-SECRETARIA 7.973,40 1.594,68 0,00 0,00 0,00 0,00 9.568,08 1.558,86 2.642,31 0,00 4.201,17 5.366,91 685,50 4.603,36 31/08/2014
221 119500 ANDERSON FUNGHI DE AZEVEDO ROCHA DIRETOR/OFICIAL ATIVO BELO HORIZONTE - COMARCA; SUPRIN DE PLANEJAMENTO E COORDENACAO 0,00 9.347,78 13.353,95 0,00 0,00 0,00 22.701,73 1.926,63 4.738,74 0,00 6.665,37 16.036,36 2.115,49 131,08 31/08/2014
222 333200 ANDERSON JOSE DE FREITAS OFICIAL DO MP ATIVO IPATINGA - COMARCA; IPATINGA-PJ-07PJ 4.848,98 1.593,22 0,00 0,00 0,00 0,00 6.442,20 660,74 865,36 0,00 1.526,10 4.916,10 752,78 735,08 31/08/2014
223 462100 ANDERSON LUIZ GUIMARAES CARDOSO ANALISTA DO MP ATIVO BARBACENA - COMARCA; BARBACENA-PJ-02PJ 6.265,58 375,93 0,00 0,00 0,00 0,00 6.641,51 730,57 799,36 0,00 1.529,93 5.111,58 685,50 0,00 31/08/2014
224 429700 ANDERSON MELO DE SOUZA OFICIAL DO MP ATIVO BELO HORIZONTE - COMARCA; DIRET DE ESTAGIOS E CONVENIOS ACADEMICOS 3.814,70 381,47 0,00 0,00 0,00 0,00 4.196,17 461,58 237,32 0,00 698,90 3.497,27 685,50 0,00 31/08/2014
225 545600 ANDERSON MENDES PROCOPIO FERREIRA ANALISTA DO MP ATIVO BARBACENA - COMARCA; BARBACENA-PJ-SECRETARIA 5.006,87 0,00 0,00 0,00 0,00 0,00 5.006,87 550,76 399,66 0,00 950,42 4.056,45 685,50 0,00 31/08/2014
226 519900 ANDERSON MOREIRA DOEHLER ANALISTA DO MP ATIVO NOVO CRUZEIRO - COMARCA; NOVO CRUZEIRO-PJ-UNPJ 5.511,94 1.102,39 0,00 0,00 0,00 0,00 6.614,33 727,58 792,71 0,00 1.520,29 5.094,04 685,50 0,00 31/08/2014
227 103000 ANDERSON TADEU DE DEUS ASSESSOR ATIVO BELO HORIZONTE - COMARCA; EXTINTA - DIVISAO DE TRANSPORTES 0,00 1.969,42 3.938,84 0,00 0,00 0,00 5.908,26 482,93 854,33 0,00 1.337,26 4.571,00 685,50 0,00 31/08/2014
228 309200 ANDITYAS SOARES DE MOURA COSTA MATOS ANALISTA DO MP ATIVO BELO HORIZONTE - COMARCA; GABINETE DE PROCURADOR DE JUSTIÇA - SALA 909 8.233,02 1.646,60 0,00 0,00 0,00 0,00 9.879,62 1.086,76 1.591,89 0,00 2.678,65 7.200,97 685,50 0,00 31/08/2014
229 613500 ANDRE AZEVEDO SOUSA ANALISTA DO MP ATIVO BELO HORIZONTE - COMARCA; CAO-CRIANCAS E ADOLESCENTES 4.404,59 0,00 0,00 0,00 0,00 0,00 4.404,59 484,50 238,63 0,00 723,13 3.681,46 685,50 0,00 31/08/2014
230 338701 ANDRE BARBUTO VITORINO ANALISTA DO MP ATIVO AIMORÉS - COMARCA; AIMORES-PJ-UNPJ 7.014,37 701,44 0,00 0,00 0,00 0,00 7.715,81 848,74 1.062,29 0,00 1.911,03 5.804,78 685,50 0,00 31/08/2014
231 519200 ANDRE BORJA LANA ANALISTA DO MP ATIVO BELO HORIZONTE - COMARCA; DIRETORIA DE IMPRENSA 6.068,01 0,00 0,00 0,00 0,00 0,00 6.068,01 667,48 659,00 0,00 1.326,48 4.741,53 685,50 0,00 31/08/2014
232 521900 ANDRE LUIS GOMES SILVA ANALISTA DO MP ATIVO FORMIGA - COMARCA; FORMIGA-PJ-01PJ 6.068,01 0,00 0,00 0,00 0,00 0,00 6.068,01 724,69 736,87 0,00 1.461,56 4.606,45 685,50 520,10 31/08/2014
233 304300 ANDRE LUIZ AVELAR ANALISTA DO MP ATIVO BELO HORIZONTE - COMARCA; DIRETORIA DE REDES E BANCOS DE DADOS 6.469,61 1.293,92 0,00 0,00 0,00 0,00 7.763,53 853,99 1.073,97 0,00 1.927,96 5.835,57 685,50 0,00 31/08/2014
234 397400 ANDRE PATARO MYRRHA DE PAULA E SILVA ANALISTA DO MP ATIVO BELO HORIZONTE - COMARCA; ASSESSORIA JURIDICO-ADMINISTRATIVA 7.973,40 797,34 0,00 0,00 0,00 0,00 8.770,74 964,78 1.320,49 0,00 2.285,27 6.485,47 4.428,80 321,59 31/08/2014
235 548500 ANDRE VINICIUS CARVALHO MEIRA ANALISTA DO MP ATIVO JUIZ DE FORA - COMARCA; JUIZ DE FORA-PJ-25PJ 4.548,03 0,00 0,00 0,00 0,00 0,00 4.548,03 500,28 307,78 0,00 808,06 3.739,97 685,50 0,00 31/08/2014
236 297200 ANDRE WILLE ROSARIO ANALISTA DO MP ATIVO BELO HORIZONTE - COMARCA; ASSESSORIA ESPECIAL DO PGJ 9.663,38 1.932,68 0,00 0,00 0,00 0,00 11.596,06 1.341,16 2.009,68 0,00 3.350,84 8.245,22 1.155,50 596,34 31/08/2014
237 423600 ANDREA COSTA GUALBERTO ANALISTA DO MP ATIVO GOVERNADOR VALADARES - COMARCA; COORD REG PJ DEF EDU DIR CRIANCA ADOL RIODOCE 6.469,61 3.234,80 0,00 0,00 0,00 0,00 9.704,41 1.131,53 1.642,09 0,00 2.773,62 6.930,79 920,50 582,26 31/08/2014
238 198600 ANDREA CRISTINA ANDRADE COSTA E SOUZA OFICIAL DO MP ATIVO MONTES CLAROS - COMARCA; MONTES CLAROS-PJ-SECRETARIA 8.501,02 2.550,31 0,00 0,00 0,00 0,00 11.051,33 1.215,65 1.779,82 0,00 2.995,47 8.055,86 685,50 0,00 31/08/2014
239 467300 ANDREA DE CASSIA PENNA ALVERNAZ ANALISTA DO MP ATIVO PONTE NOVA - COMARCA; PONTE NOVA-PJ-01PJ 6.265,58 375,93 0,00 0,00 0,00 0,00 6.641,51 730,57 749,94 0,00 1.480,51 5.161,00 920,50 0,00 31/08/2014
240 308000 ANDREA DE CASSIA SANTOS OLIVEIRA ANALISTA DO MP ATIVO BELO HORIZONTE - COMARCA; ASSESS TECNICO-JUR JUNTO AS PROC. DE JUST 9.663,38 1.932,68 0,00 0,00 0,00 0,00 11.596,06 1.275,57 1.962,56 0,00 3.238,13 8.357,93 1.750,09 54,50 31/08/2014
241 349500 ANDREA DE OLIVEIRA OFICIAL DO MP ATIVO IGUATAMA - COMARCA; IGUATAMA-PJ-UNPJ 5.511,94 551,19 0,00 0,00 0,00 0,00 6.063,13 666,94 608,38 0,00 1.275,32 4.787,81 920,50 0,00 31/08/2014
242 254700 ANDREA EMISE REIS DE AZEVEDO COORDENADOR/OFICIAL ATIVO BELO HORIZONTE - COMARCA; COMB CRIMES PRAT POR AG POL MUN-SECRETARIA 0,00 1.812,72 9.063,59 0,00 0,00 0,00 10.876,31 853,99 1.929,99 0,00 2.783,98 8.092,33 3.230,94 233,33 31/08/2014
243 287900 ANDREA FERNANDES PENA OFICIAL DO MP ATIVO MONTES CLAROS - COMARCA; MONTES CLAROS-PJ-09PJ 6.068,01 1.213,60 0,00 0,00 0,00 0,00 7.281,61 800,98 857,18 0,00 1.658,16 5.623,45 685,50 0,00 31/08/2014
244 300800 ANDREA FERREIRA ANALISTA DO MP ATIVO LAVRAS - COMARCA; LAVRAS-PJ-04PJ 9.358,72 1.871,74 0,00 0,00 0,00 0,00 11.230,46 1.235,35 1.922,51 0,00 3.157,86 8.072,60 685,50 0,00 31/08/2014
245 316700 ANDREA FRANCISCA DIAS DE SOUZA ASSESSOR ATIVO BELO HORIZONTE - COMARCA; BH-14PJ DEFESA CONSUMIDOR-GAB 110PJ 0,00 0,00 2.359,08 0,00 0,00 0,00 2.359,08 334,90 71,42 0,00 406,32 1.952,76 685,50 0,00 31/08/2014
246 395100 ANDREA LANNA MENDES NOVAIS ANALISTA DO MP ATIVO BELO HORIZONTE - COMARCA; PROMOT ESTADUAL DE DEF PATRI CULT E TUR DE MG 8.233,02 823,30 0,00 0,00 0,00 0,00 9.056,32 996,20 1.340,96 0,00 2.337,16 6.719,16 1.155,50 0,00 31/08/2014
247 67300 ANDREA LEAO MAGALHAES ROQUE ASSESSOR ATIVO BELO HORIZONTE - COMARCA; COORD DE CONT. DA CONSTITUCIONALIDADE-SEC 0,00 3.986,70 7.973,40 0,00 0,00 0,00 11.960,10 482,93 2.419,74 0,00 2.902,67 9.057,43 685,50 0,00 31/08/2014
248 335700 ANDREA LOPES PEREIRA ANALISTA DO MP ATIVO GOVERNADOR VALADARES - COMARCA; COORD REG DO MA DA BACIA DO RIO DOCE 9.358,72 935,87 0,00 0,00 0,00 0,00 10.294,59 1.132,40 1.693,45 0,00 2.825,85 7.468,74 685,50 0,00 31/08/2014
249 389200 ANDREA TUPINI DOS SANTOS TRISTAO DA ROCHA OFICIAL DO MP ATIVO DIVINO - COMARCA; DIVINO-PJ-UNPJ 4.131,19 413,12 0,00 0,00 0,00 0,00 4.544,31 499,87 266,60 0,00 766,47 3.777,84 685,50 0,00 31/08/2014
250 419000 ANDREIA BARBOSA DE ALMEIDA ANALISTA DO MP ATIVO BELO HORIZONTE - COMARCA; GABINETE DE PROCURADOR DE JUSTIÇA - SALA 705 7.014,37 701,44 0,00 0,00 0,00 0,00 7.715,81 848,74 1.062,29 0,00 1.911,03 5.804,78 1.310,73 57,31 31/08/2014
251 281501 ANDREIA CARLA COSTA FILGUEIRAS ANALISTA DO MP ATIVO VISCONDE DO RIO BRANCO - COMARCA; VISCONDE DO RIO BRANCO-PJ-02PJ 7.973,40 797,34 0,00 0,00 0,00 0,00 8.770,74 1.428,95 2.254,42 0,00 3.683,37 5.087,37 1.740,43 4.316,42 31/08/2014
252 477100 ANDREIA DE ALMEIDA RIBEIRO MELO OFICIAL DO MP ATIVO CONTAGEM - COMARCA; CONTAGEM-PJ-07PJ 3.694,41 221,66 0,00 0,00 0,00 0,00 3.916,07 430,77 187,77 0,00 618,54 3.297,53 920,50 0,00 31/08/2014
253 619000 ANDREIA FERREIRA NORONHA OFICIAL DO MP ATIVO BELO HORIZONTE - COMARCA; DIRETORIA DE SERVICO CRIMINAL 3.147,52 0,00 0,00 0,00 0,00 0,00 3.147,52 379,01 124,95 0,00 503,96 2.643,56 685,50 298,05 31/08/2014
254 424000 ANDREIA LUCIA COUTO ANALISTA DO MP ATIVO BELO HORIZONTE - COMARCA; BH-18PJ DIREITOS HUMANOS 7.973,40 797,34 0,00 0,00 0,00 0,00 8.770,74 1.428,95 2.449,97 0,00 3.878,92 4.891,82 920,50 4.571,36 31/08/2014
255 370100 ANDREIA MARIA SILVA PINTO OFICIAL DO MP ATIVO CORONEL FABRICIANO - COMARCA; CORONEL FABRICIANO-PJ-01PJ 5.169,86 516,99 0,00 0,00 0,00 0,00 5.686,85 625,55 565,71 0,00 1.191,26 4.495,59 685,50 0,00 31/08/2014
256 382100 ANDREIA NATALI PEREIRA OFICIAL DO MP ATIVO PRADOS - COMARCA; PRADOS-PJ-UNPJ 5.169,86 516,99 0,00 0,00 0,00 0,00 5.686,85 625,55 565,71 0,00 1.191,26 4.495,59 685,50 0,00 31/08/2014
257 198700 ANDREIA NUNES DURAES OFICIAL DO MP ATIVO MONTES CLAROS - COMARCA; MONTES CLAROS-PJ-06PJ 9.358,72 1.871,74 0,00 0,00 0,00 0,00 11.230,46 1.235,35 1.873,09 0,00 3.108,44 8.122,02 685,50 0,00 31/08/2014
258 275200 ANDREIA RIBEIRO FREITAS OFICIAL DO MP ATIVO VIÇOSA - COMARCA; VICOSA-PJ-03PJ 6.469,61 1.293,92 0,00 0,00 0,00 0,00 7.763,53 853,99 925,71 0,00 1.779,70 5.983,83 920,50 0,00 31/08/2014
259 352200 ANDREIA XAVIER PEREIRA OFICIAL DO MP ATIVO CLÁUDIO - COMARCA; CLAUDIO-PJ-UNPJ 5.511,94 551,19 0,00 0,00 0,00 0,00 6.063,13 666,94 657,80 0,00 1.324,74 4.738,39 685,50 0,00 31/08/2014
260 383700 ANDRESSA EDUARDO SOUZA ANALISTA DO MP ATIVO OURO BRANCO - COMARCA; OURO BRANCO-PJ-SECRETARIA 7.973,40 797,34 0,00 0,00 0,00 0,00 8.770,74 964,78 1.320,49 0,00 2.285,27 6.485,47 685,50 0,00 31/08/2014
261 426200 ANDRESSA MENDES CASAL ASSESSOR/OFICIAL ATIVO BELO HORIZONTE - COMARCA; BH-12PJ JUIZO CRIMINAL-SECRETARIA 0,00 626,56 6.265,58 0,00 0,00 0,00 6.892,14 499,87 931,72 0,00 1.431,59 5.460,55 685,50 0,00 31/08/2014
262 390100 ANDRESSA RIBEIRO PUCCI OFICIAL DO MP ATIVO UBERABA - COMARCA; UBERABA-PJ-14PJ 4.548,03 454,80 0,00 0,00 0,00 0,00 5.002,83 550,31 398,86 0,00 949,17 4.053,66 685,50 0,00 31/08/2014
263 462500 ANDREZA APARECIDA COSTA E SILVA ANALISTA DO MP ATIVO CONSELHEIRO LAFAIETE - COMARCA; CONSELHEIRO LAFAIETE-PJ-02PJ 6.265,58 375,93 0,00 0,00 0,00 0,00 6.641,51 730,57 799,36 0,00 1.529,93 5.111,58 685,50 0,00 31/08/2014
264 537800 ANDREZZA LUZIA DE OLIVEIRA ALVES ANALISTA DO MP ATIVO PATOS DE MINAS - COMARCA; COORD REG PJ DEF EDU DIR CRI ADO AL PAR NOROE 4.548,03 0,00 0,00 0,00 0,00 0,00 4.548,03 500,28 226,91 0,00 727,19 3.820,84 685,50 0,00 31/08/2014
265 491600 ANE PATRICIA RIBEIRO ANALISTA DO MP ATIVO SETE LAGOAS - COMARCA; SETE LAGOAS-PJ-10PJ 6.265,58 375,93 0,00 0,00 0,00 0,00 6.641,51 772,80 843,91 0,00 1.616,71 5.024,80 920,50 383,94 31/08/2014
266 465800 ANELISE GAMA ASSESSOR ATIVO BELO HORIZONTE - COMARCA; BH-18PJ VIOLENCIA DOMESTICA-SECRETARIA 0,00 0,00 3.938,84 0,00 0,00 0,00 3.938,84 482,93 328,86 0,00 811,79 3.127,05 685,50 0,00 31/08/2014
267 535200 ANELIZE FERNANDA ALVES VILARINHO OFICIAL DO MP ATIVO CAPINÓPOLIS - COMARCA; CAPINOPOLIS-PJ-UNPJ 2.952,15 0,00 0,00 0,00 0,00 0,00 2.952,15 352,58 92,87 0,00 445,45 2.506,70 2.579,67 297,38 31/08/2014
268 197200 ANGELA COELHO SALDANHA OFICIAL DO MP ATIVO PARÁ DE MINAS - COMARCA; PARA DE MINAS-PJ-03PJ 9.358,72 2.807,62 0,00 0,00 0,00 0,00 12.166,34 1.338,30 2.151,56 0,00 3.489,86 8.676,48 685,50 0,00 31/08/2014
269 307400 ANGELA CRISTINA GONCALVES MUNIZ ANALISTA DO MP ATIVO UBERLÂNDIA - COMARCA; UBERLANDIA-PJ-SEC FAMILIA 9.663,38 1.932,68 0,00 0,00 0,00 0,00 11.596,06 1.275,57 1.962,56 0,00 3.238,13 8.357,93 920,50 0,00 31/08/2014
270 191800 ANGELA MARIA DE OLIVEIRA OFICIAL DO MP ATIVO GUARANÉSIA - COMARCA; GUARANESIA-PJ-SECRETARIA 9.358,72 3.743,49 0,00 0,00 0,00 0,00 13.102,21 1.441,24 2.331,20 0,00 3.772,44 9.329,77 1.951,06 116,01 31/08/2014
271 69900 ANGELA MARIA DE PAULA CUNHA OFICIAL DO MP ATIVO JUIZ DE FORA - COMARCA; JUIZ DE FORA-PJ-11PJ 9.663,38 6.764,37 0,00 0,00 0,00 0,00 16.427,75 2.329,43 4.257,99 0,00 6.587,42 9.840,33 685,50 4.748,88 31/08/2014
272 497400 ANGELA MARIA HENRIQUES ANALISTA DO MP ATIVO BELO HORIZONTE - COMARCA; COORD REG BACIAS RIO VELHAS E PARAOPEBA 5.511,94 0,00 0,00 0,00 0,00 0,00 5.511,94 606,31 522,90 0,00 1.129,21 4.382,73 1.155,50 0,00 31/08/2014
273 260700 ANGELICA CRISTINA AZEVEDO MOREIRA MOUCO OFICIAL DO MP ATIVO UBÁ - COMARCA; UBA-PJ-02PJ 6.578,93 1.315,79 0,00 0,00 0,00 0,00 7.894,72 868,42 1.056,66 0,00 1.925,08 5.969,64 685,50 0,00 31/08/2014
274 334600 ANGELICA PANISSA DE FREITAS OFICIAL DO MP ATIVO GUAXUPÉ - COMARCA; GUAXUPE-PJ-02PJ 5.876,69 1.175,34 0,00 0,00 0,00 0,00 7.052,03 775,72 899,84 0,00 1.675,56 5.376,47 718,78 0,00 31/08/2014
275 521100 ANGELICA SALES MOREIRA OFICIAL DO MP ATIVO BELO HORIZONTE - COMARCA; BH-02PJ FAMILIA-SECRETARIA 3.577,90 0,00 0,00 0,00 0,00 0,00 3.577,90 393,57 142,62 0,00 536,19 3.041,71 685,50 0,00 31/08/2014
276 466500 ANGELLO MARQUES AGRELLI ANALISTA DO MP ATIVO MAR DE ESPANHA - COMARCA; MAR DE ESPANHA-PJ-UNPJ 6.265,58 375,93 0,00 0,00 0,00 0,00 6.641,51 730,57 799,36 0,00 1.529,93 5.111,58 685,50 0,00 31/08/2014
277 363300 ANGELO VERDOLIN HENRIQUES ANALISTA DO MP ATIVO SETE LAGOAS - COMARCA; SETE LAGOAS-PJ-04PJ 8.501,02 2.550,31 0,00 0,00 0,00 0,00 11.051,33 1.215,65 1.878,66 0,00 3.094,31 7.957,02 920,50 0,00 31/08/2014
278 250900 ANISIO APARECIDO SANTOS OFICIAL DO MP ATIVO CONTAGEM - COMARCA; CONTAGEM-PJ-19PJ 4.696,06 939,21 0,00 0,00 0,00 0,00 5.635,27 619,88 158,11 0,00 777,99 4.857,28 685,50 0,00 31/08/2014
279 253400 ANNA FLAVIA LEHMAN BATTAGLIA ASSESSOR ESPECIAL ATIVO BELO HORIZONTE - COMARCA; GABINETE DO PROCURADOR-GERAL DE JUSTICA 18.939,65 3.787,93 0,00 0,00 0,00 0,00 22.727,58 1.317,09 4.913,47 0,00 6.230,56 16.497,02 920,50 0,00 31/08/2014
280 447600 ANNGELUCE ALCANTARA DE CAMPOS OFICIAL DO MP ATIVO DIVINÓPOLIS - COMARCA; DIVINOPOLIS-PJ-10PJ 3.694,41 369,44 0,00 0,00 0,00 0,00 4.063,85 447,02 210,83 0,00 657,85 3.406,00 685,50 0,00 31/08/2014
281 615900 ANNY ANGEL MOREIRA MELO ANALISTA DO MP ATIVO ARAXÁ - COMARCA; ARAXA-PJ-04PJ 4.848,98 0,00 0,00 0,00 0,00 0,00 4.848,98 533,39 368,05 0,00 901,44 3.947,54 920,50 0,00 31/08/2014
282 119600 ANSELMO BORGES PARREIRAS OFICIAL DO MP ATIVO BONFIM - COMARCA; BONFIM-PJ-UNPJ 5.338,12 3.736,69 0,00 0,00 0,00 0,00 9.074,81 998,23 1.345,49 0,00 2.343,72 6.731,09 685,50 0,00 31/08/2014
283 194800 ANTONIA MARIA AFONSO DE SOUZA OFICIAL DO MP ATIVO ITAPAGIPE - COMARCA; ITAPAGIPE-PJ-SECRETARIA 8.233,02 5.763,11 0,00 0,00 0,00 0,00 13.996,13 1.720,70 2.952,99 0,00 4.673,69 9.322,44 685,50 1.646,60 31/08/2014
284 332400 ANTONIA MARIA MAMEDE OFICIAL DO MP ATIVO UBERLÂNDIA - COMARCA; COORD REG PP TRIANGULO MINEIRO UBERLANDIA 5.691,44 569,14 0,00 0,00 0,00 0,00 6.260,58 688,66 656,71 0,00 1.345,37 4.915,21 685,50 0,00 31/08/2014
285 401600 ANTONIO CARLOS GUEDES AROUCA ANALISTA DO MP ATIVO BELO HORIZONTE - COMARCA; EXTINTA - CAO-IDOSOS PESSOAS DEFIC-SEC ADM 7.973,40 797,34 0,00 0,00 0,00 0,00 8.770,74 1.428,95 2.449,97 0,00 3.878,92 4.891,82 685,50 4.571,36 31/08/2014
286 7100 ANTONIO DO NASCIMENTO OLIVEIRA ASSESSOR ATIVO BELO HORIZONTE - COMARCA; GAECO - SECRETARIA 0,00 2.123,17 2.359,08 0,00 0,00 0,00 4.482,25 482,93 201,21 0,00 684,14 3.798,11 685,50 0,00 31/08/2014
287 59400 ANTONIO GOBIRA DE ALCANTARA AGENTE DO MP ATIVO BELO HORIZONTE - COMARCA; EXTINTA - DIVISAO DE TRANSPORTES 5.169,86 4.135,89 0,00 0,00 0,00 1.409,72 10.715,47 1.409,72 2.698,15 0,00 4.107,87 6.607,60 685,50 3.509,88 31/08/2014
288 333900 ANTONIO GONCALVES DE SOUZA FILHO OFICIAL DO MP ATIVO BELO HORIZONTE - COMARCA; DIVISAO DE MEMORIA INSTITUCIONAL 5.511,94 551,19 0,00 0,00 0,00 0,00 6.063,13 666,94 657,80 0,00 1.324,74 4.738,39 685,50 0,00 31/08/2014
289 176100 ANTONIO MARCELO CAMPOS CAMPANELLA OFICIAL DO MP ATIVO BELO HORIZONTE - COMARCA; SUPERINTENDENCIA DE RECURSOS HUMANOS 9.358,72 2.807,62 0,00 0,00 0,00 0,00 12.166,34 1.338,30 2.151,56 0,00 3.489,86 8.676,48 4.465,79 324,98 31/08/2014
290 119800 ANTONIO MARCIANO DE PAULA AGENTE DO MP ATIVO BELO HORIZONTE - COMARCA; DIVISAO DE MANUTENCAO PREDIAL 4.131,19 3.718,08 0,00 0,00 0,00 863,42 8.712,69 863,42 1.184,14 0,00 2.047,56 6.665,13 685,50 0,00 31/08/2014
291 321001 ANTONIO OLINTO VIEIRA MACHADO ANALISTA DO MP ATIVO BELO HORIZONTE - COMARCA; CENTRAL DE APOIO TECN-SETOR DE MEIO AMBIENTE 8.233,02 823,30 0,00 0,00 0,00 0,00 9.056,32 996,20 1.242,12 0,00 2.238,32 6.818,00 762,74 7,08 31/08/2014
292 356200 ANTONIO PAULA DA SILVA OFICIAL DO MP ATIVO JUIZ DE FORA - COMARCA; JUIZ DE FORA-PJ-20PJ 4.848,98 969,80 0,00 0,00 0,00 0,00 5.818,78 720,81 794,46 0,00 1.515,27 4.303,51 685,50 795,17 31/08/2014
293 119900 ANTONIO RODRIGUES DE PINHO OFICIAL DO MP ATIVO GUANHÃES - COMARCA; GUANHAES-PJ-01PJ 8.501,02 4.250,51 0,00 0,00 4.250,51 0,00 17.002,04 1.402,67 3.364,84 0,00 4.767,51 12.234,53 685,50 0,00 31/08/2014
294 373300 ANTONIO SERGIO ANANIAS OFICIAL DO MP ATIVO AIURUOCA - COMARCA; AIURUOCA-PJ-UNPJ 4.848,98 484,90 0,00 0,00 0,00 0,00 5.333,88 616,90 447,62 0,00 1.064,52 4.269,36 4.120,83 514,34 31/08/2014
295 608100 ANTONIO SIDINEY VIEIRA LEMOS ANALISTA DO MP ATIVO PIRAPORA - COMARCA; PIRAPORA-PJ-01PJ 4.848,98 1.454,69 0,00 0,00 0,00 0,00 6.303,67 693,40 716,67 0,00 1.410,07 4.893,60 685,50 0,00 31/08/2014
296 374700 ANTONIO SILVA NETO OFICIAL DO MP ATIVO BELO HORIZONTE - COMARCA; GAECO - SECRETARIA 5.006,87 500,69 0,00 0,00 0,00 0,00 5.507,56 605,83 521,83 0,00 1.127,66 4.379,90 685,50 0,00 31/08/2014
297 413200 ANY PEREIRA SILVA ANALISTA DO MP ATIVO TRÊS PONTAS - COMARCA; TRES PONTAS-PJ-01PJ 7.014,37 701,44 0,00 0,00 0,00 0,00 7.715,81 921,49 1.125,33 0,00 2.046,82 5.668,99 685,50 661,40 31/08/2014
298 151401 APARECIDA DE FATIMA MENDES DE ALMEIDA ASSESSOR ATIVO JUIZ DE FORA - COMARCA; JUIZ DE FORA-PJ-SECRETARIA 0,00 0,00 3.938,84 0,00 0,00 0,00 3.938,84 482,93 328,86 0,00 811,79 3.127,05 685,50 0,00 31/08/2014
299 329300 APARECIDA MARIA MELO DE ASSIS OFICIAL DO MP ATIVO BELO HORIZONTE - COMARCA; BH-18PJ DIREITOS HUMANOS-SECRETARIA 5.876,69 587,67 0,00 0,00 0,00 0,00 6.464,36 711,08 756,00 0,00 1.467,08 4.997,28 685,50 0,00 31/08/2014
300 475300 APARECIDA MARLENE FREIRE ROSA ANALISTA DO MP ATIVO BELO HORIZONTE - COMARCA; BH-02PJ FAMILIA 6.265,58 5.012,46 0,00 0,00 0,00 0,00 11.278,04 1.240,58 1.934,15 0,00 3.174,73 8.103,31 685,50 0,00 31/08/2014
301 240300 APARECIDA PEREIRA DO NASCIMENTO OFICIAL DO MP ATIVO ITURAMA - COMARCA; ITURAMA-PJ-01PJ 6.578,93 3.289,47 0,00 0,00 0,00 0,00 9.868,40 1.085,52 1.589,14 0,00 2.674,66 7.193,74 685,50 0,00 31/08/2014
302 354500 APARECIDA VIEIRA DE CARVALHO OFICIAL DO MP ATIVO BELO HORIZONTE - COMARCA; PROCON-MG-SEC DE EDUCACAO PARA O CONSUMO 4.696,06 469,61 0,00 0,00 0,00 0,00 5.165,67 568,22 391,03 0,00 959,25 4.206,42 685,50 0,00 31/08/2014
303 551000 ARACELES BICALHO FELIX ANALISTA DO MP ATIVO MANHUAÇU - COMARCA; MANHUACU-PJ-02PJ 5.006,87 0,00 0,00 0,00 0,00 0,00 5.006,87 550,76 399,66 0,00 950,42 4.056,45 685,50 0,00 31/08/2014
304 286200 ARACELI MEDRADO DOS SANTOS LIMA OFICIAL DO MP ATIVO PARACATU - COMARCA; PARACATU-PJ-03PJ 4.696,06 939,21 0,00 0,00 0,00 0,00 5.635,27 673,01 671,30 0,00 1.344,31 4.290,96 775,50 483,00 31/08/2014
305 189000 ARAHY MARQUES SILVA OFICIAL DO MP ATIVO BELO HORIZONTE - COMARCA; BH-16PJ HABITACAO E URBANISMO 4.696,06 939,21 0,00 0,00 0,00 0,00 5.635,27 619,88 553,08 0,00 1.172,96 4.462,31 685,50 0,00 31/08/2014
306 112200 ARAQUEM AUGUSTO DE MATOS AGENTE DO MP ATIVO BELO HORIZONTE - COMARCA; BH-23PJ INFRACIONAL-SEC EXP 4.696,06 3.287,25 0,00 0,00 0,00 0,00 7.983,31 878,16 979,51 0,00 1.857,67 6.125,64 920,50 0,00 31/08/2014
307 280600 ARDUINO FRATTEZI ANALISTA DO MP ATIVO BELO HORIZONTE - COMARCA; CENTRAL DE APOIO TECNICO-SETOR CONTABIL 9.663,38 1.932,68 0,00 0,00 0,00 0,00 11.596,06 1.275,57 1.913,14 0,00 3.188,71 8.407,35 685,50 0,00 31/08/2014
308 520201 ARIANE DE FATIMA CARVALHO ALMEIDA ANALISTA DO MP ATIVO BELO HORIZONTE - COMARCA; BH-18PJ VIOLENCIA DOMESTICA-SECRETARIA 4.848,98 0,00 0,00 0,00 0,00 0,00 4.848,98 616,49 496,12 0,00 1.112,61 3.736,37 685,50 755,46 31/08/2014
309 537600 ARIELA FREIRE MONTIJO ANALISTA DO MP ATIVO ARCOS - COMARCA; ARCOS-PJ-01PJ 5.006,87 0,00 0,00 0,00 0,00 0,00 5.006,87 611,32 484,62 0,00 1.095,94 3.910,93 685,50 550,61 31/08/2014
310 182000 ARILSON ALEXANDRE MARTINS MAGALHAES OFICIAL DO MP ATIVO JOÃO MONLEVADE - COMARCA; JOAO MONLEVADE-PJ-02PJ 8.233,02 2.469,91 0,00 0,00 0,00 0,00 10.702,93 1.177,32 1.694,55 0,00 2.871,87 7.831,06 843,71 0,00 31/08/2014
311 511000 ARISLANE CAROLINA DA SILVA ANALISTA DO MP ATIVO CAMPINA VERDE - COMARCA; CAMPINA VERDE-PJ-UNPJ 5.511,94 0,00 0,00 0,00 0,00 0,00 5.511,94 606,31 522,90 0,00 1.129,21 4.382,73 685,50 0,00 31/08/2014
312 170000 ARLEY BRITES DA SILVA ASSESSOR ATIVO BELO HORIZONTE - COMARCA; EXTINTA - DIVISÃO DE MATERIAL PERMANENTE 0,00 1.181,65 3.938,84 0,00 0,00 0,00 5.120,49 482,93 489,43 0,00 972,36 4.148,13 1.155,50 0,00 31/08/2014
313 120400 ARLINDO CASSIO DA CRUZ OFICIAL DO MP ATIVO SÃO GONÇALO DO SAPUCAÍ - COMARCA; SAO GONCALO DO SAPUCAI-PJ-01PJ 12.356,19 8.649,34 0,00 0,00 0,00 0,00 21.005,53 2.310,61 4.166,69 0,00 6.477,30 14.528,23 685,50 0,00 31/08/2014
314 243700 ARLINDO MARCIO LACERDA OFICIAL DO MP ATIVO CONTAGEM - COMARCA; CONTAGEM-PJ-03PJ 6.793,15 3.146,27 0,00 0,00 0,00 0,00 9.939,42 971,42 1.640,05 0,00 2.611,47 7.327,95 685,50 0,00 31/08/2014
315 392100 ARNALDO DE ANDRADE OFICIAL DO MP ATIVO DIVINÓPOLIS - COMARCA; DIVINOPOLIS-PJ-02PJ 5.169,86 1.625,31 0,00 0,00 0,00 0,00 6.795,17 625,55 870,50 0,00 1.496,05 5.299,12 685,50 0,00 31/08/2014
316 352801 ARTHUR JONAS MENDONCA E ARAUJO ANALISTA DO MP ATIVO UBERABA - COMARCA; UBERABA-PJ-12PJ 6.793,15 407,59 0,00 0,00 0,00 0,00 7.200,74 865,90 1.001,63 0,00 1.867,53 5.333,21 920,50 671,06 31/08/2014
317 302100 AUGUSTO ROUSSEAU DE CASTRO ANALISTA DO MP ATIVO CATAGUASES - COMARCA; CATAGUASES-PJ-02PJ 10.638,28 2.127,66 0,00 0,00 0,00 0,00 12.765,94 1.404,25 2.298,31 0,00 3.702,56 9.063,38 685,50 0,00 31/08/2014
318 540200 AUREA AVELAR OFICIAL DO MP ATIVO FERROS - COMARCA; FERROS-PJ-UNPJ 2.952,15 0,00 0,00 0,00 0,00 0,00 2.952,15 324,74 36,02 0,00 360,76 2.591,39 685,50 0,00 31/08/2014
319 183200 AURELIANO MAGELA DE REZENDE COORDENADOR/OFICIAL ATIVO BELO HORIZONTE - COMARCA; COORD DE GABINETE DO PGJ 0,00 2.060,57 10.302,83 0,00 0,00 0,00 12.363,40 1.052,49 2.284,35 0,00 3.336,84 9.026,56 685,50 0,00 31/08/2014
320 436800 BARBARA ROCHA LADEIA COLEN OFICIAL DO MP ATIVO BELO HORIZONTE - COMARCA; ASSESS TECNICO-JUR JUNTO AS PROC. DE JUST 4.848,98 484,90 0,00 0,00 0,00 0,00 5.333,88 815,32 987,95 0,00 1.803,27 3.530,61 685,50 2.078,16 31/08/2014
321 546500 BARBARA ZACARONI GOULART OFICIAL DO MP ATIVO BETIM - COMARCA; BETIM-PJ-08PJ 2.952,15 0,00 0,00 0,00 0,00 0,00 2.952,15 324,74 62,98 0,00 387,72 2.564,43 685,50 0,00 31/08/2014
322 316500 BEATRIZ ABILVIA DA SILVA ANALISTA DO MP ATIVO GOVERNADOR VALADARES - COMARCA; GOVERNADOR VALADARES-PJ-13PJ 9.663,38 966,34 0,00 0,00 0,00 0,00 10.629,72 1.169,27 1.726,05 0,00 2.895,32 7.734,40 685,50 0,00 31/08/2014
323 311800 BEATRIZ APARECIDA SOARES GANEM OFICIAL DO MP ATIVO ITAMBACURI - COMARCA; ITAMBACURI-PJ-02PJ 6.265,58 1.253,12 0,00 0,00 0,00 0,00 7.518,70 897,94 1.023,51 0,00 1.921,45 5.597,25 685,50 644,40 31/08/2014
324 266800 BEATRIZ AUGUSTA VILACA GOMES DA SILVA OFICIAL DO MP ATIVO BELO HORIZONTE - COMARCA; BH-05PJ-JUÍZO SUCESSÕES-SEC 5.169,86 1.033,97 0,00 0,00 0,00 0,00 6.203,83 682,42 692,24 0,00 1.374,66 4.829,17 685,50 0,00 31/08/2014
325 235200 BEATRIZ BOTELHO BATISTA OFICIAL DO MP ATIVO BELO HORIZONTE - COMARCA; BH-21PJ TUTELA FUNDACOES-SECRETARIA 6.469,61 1.293,92 0,00 0,00 0,00 0,00 7.763,53 853,99 1.073,97 0,00 1.927,96 5.835,57 685,50 0,00 31/08/2014
326 113500 BEATRIZ DE LOURDES SOUZA ASSESSOR ATIVO BELO HORIZONTE - COMARCA; BH-02PJ FAMILIA-PROM DEC PAT 0,00 4.385,91 6.265,58 0,00 0,00 0,00 10.651,49 482,93 1.542,26 0,00 2.025,19 8.626,30 685,50 0,00 31/08/2014
327 182300 BEATRIZ PAULA SOUSA RAMOS OFICIAL DO MP ATIVO MARIANA - COMARCA; MARIANA-PJ-01PJ 8.233,02 2.469,91 0,00 0,00 0,00 0,00 10.702,93 1.177,32 1.694,55 0,00 2.871,87 7.831,06 685,50 0,00 31/08/2014
328 507000 BELCHIOR FRANKLIN AMARAL LEITE ANALISTA DO MP ATIVO BELO HORIZONTE - COMARCA; CENTRAL DE APOIO TECNICO 6.068,01 0,00 0,00 0,00 0,00 0,00 6.068,01 667,48 510,74 0,00 1.178,22 4.889,79 920,50 0,00 31/08/2014
329 345100 BENITO ELIAS RODRIGUES ANALISTA DO MP ATIVO BARBACENA - COMARCA; BARBACENA-PJ-SECRETARIA 9.358,72 935,87 0,00 0,00 0,00 0,00 10.294,59 1.229,48 1.909,44 0,00 3.138,92 7.155,67 3.889,51 1.176,20 31/08/2014
330 207300 BENITO VIEIRA DOS SANTOS ANALISTA DO MP ATIVO BELO HORIZONTE - COMARCA; COMB CRIMES PRAT POR AG POL MUN-ASSESSORIA 13.353,95 4.006,19 0,00 0,00 0,00 1.909,62 19.269,76 1.909,62 2.734,38 0,00 4.644,00 14.625,76 685,50 0,00 31/08/2014
331 480200 BERNADETE NUNES DOS SANTOS ANALISTA DO MP ATIVO GUANHÃES - COMARCA; GUANHAES-PJ-02PJ 6.265,58 1.253,12 0,00 0,00 0,00 0,00 7.518,70 827,06 1.014,05 0,00 1.841,11 5.677,59 685,50 0,00 31/08/2014
332 378400 BETANIA FARNESI DE SOUZA E SILVA OFICIAL DO MP ATIVO SETE LAGOAS - COMARCA; SETE LAGOAS-PJ-03PJ 5.006,87 1.502,06 0,00 0,00 0,00 0,00 6.508,93 715,98 717,49 0,00 1.433,47 5.075,46 920,50 0,00 31/08/2014
333 546400 BETANIA GONCALVES GONTIJO OFICIAL DO MP ATIVO PATOS DE MINAS - COMARCA; PATOS DE MINAS-PJ-02PJ 2.952,15 0,00 0,00 0,00 0,00 0,00 2.952,15 324,74 62,98 0,00 387,72 2.564,43 685,50 0,00 31/08/2014
334 387400 BETANIA MENDONCA DE ASSIS ANALISTA DO MP ATIVO BELO HORIZONTE - COMARCA; BH-08PJ JUIZADO ESPECIAL-SECRETARIA 7.973,40 797,34 0,00 0,00 0,00 0,00 8.770,74 964,78 1.320,49 0,00 2.285,27 6.485,47 685,50 0,00 31/08/2014
335 450300 BIANCA OLIVEIRA DE ALBUQUERQUE ANALISTA DO MP ATIVO BELO HORIZONTE - COMARCA; BH-10PJ EXECUÇÃO PENAL-SECRETARIA 6.793,15 407,59 0,00 0,00 0,00 0,00 7.200,74 792,08 936,23 0,00 1.728,31 5.472,43 685,50 0,00 31/08/2014
336 535400 BIANCA SALOTO ROSSI ANALISTA DO MP ATIVO SANTOS DUMONT - COMARCA; SANTOS DUMONT-PJ-01PJ 5.006,87 0,00 0,00 0,00 0,00 0,00 5.006,87 550,76 399,66 0,00 950,42 4.056,45 685,50 0,00 31/08/2014
337 120800 BRAS MARQUES DE SOUZA ANALISTA DO MP ATIVO BELO HORIZONTE - COMARCA; EXTINTA - SUPERINTENDENCIA ADMINISTRATIVA-SAD 18.218,36 12.752,86 0,00 0,00 0,00 0,00 30.971,22 2.924,86 5.533,41 4.381,54 12.839,81 18.131,41 4.230,79 324,99 31/08/2014
338 460900 BRENO CRISTIANO DE SOUZA REZENDE ANALISTA DO MP ATIVO ITAÚNA - COMARCA; ITAUNA-PJ-02PJ 5.169,86 310,19 0,00 0,00 0,00 0,00 5.480,05 602,81 515,09 0,00 1.117,90 4.362,15 685,50 0,00 31/08/2014
339 239000 BRENO VENANCIO ROMANINI OFICIAL DO MP ATIVO BELO HORIZONTE - COMARCA; BH-20PJ ORD ECON TRIBUTARIA-SECRETARIA 5.876,69 1.175,34 0,00 0,00 0,00 0,00 7.052,03 775,72 899,84 0,00 1.675,56 5.376,47 685,50 0,00 31/08/2014
340 513600 BRUNA KARLA MARTINS CARVALHO ANALISTA DO MP ATIVO GOVERNADOR VALADARES - COMARCA; GOVERNADOR VALADARES-PJ-01PJ 5.511,94 0,00 0,00 0,00 1.837,31 0,00 7.349,25 606,31 1.028,16 0,00 1.634,47 5.714,78 685,50 0,00 31/08/2014
341 415100 BRUNA MARIA SOARES OLIVEIRA COSTA RAMOS ANALISTA DO MP ATIVO UBÁ - COMARCA; COORD REG BACIA DO RIO PARAIBA DO SUL 7.973,40 797,34 0,00 0,00 0,00 0,00 8.770,74 1.428,95 2.353,27 0,00 3.782,22 4.988,52 685,50 4.219,72 31/08/2014
342 470000 BRUNA MORAES MARQUES ANALISTA DO MP ATIVO TOMBOS - COMARCA; TOMBOS-PJ-UNPJ 6.265,58 375,93 0,00 0,00 0,00 0,00 6.641,51 793,19 741,01 0,00 1.534,20 5.107,31 685,50 569,30 31/08/2014
343 614700 BRUNA NATTANY DE LIMA OFICIAL DO MP ATIVO MANTENA - COMARCA; MANTENA-PJ-02PJ 2.859,08 0,00 0,00 0,00 0,00 0,00 2.859,08 314,50 56,76 0,00 371,26 2.487,82 685,50 0,00 31/08/2014
344 463800 BRUNO ALVES TEIXEIRA ANALISTA DO MP ATIVO UBERLÂNDIA - COMARCA; UBERLANDIA-PJ-04PJ 6.265,58 375,93 0,00 0,00 0,00 0,00 6.641,51 730,57 799,36 0,00 1.529,93 5.111,58 685,50 0,00 31/08/2014
345 538500 BRUNO AUGUSTO DA SILVA OFICIAL DO MP ATIVO SANTA LUZIA - COMARCA; SANTA LUZIA-PJ-03PJ 2.952,15 0,00 0,00 0,00 0,00 0,00 2.952,15 352,58 92,87 0,00 445,45 2.506,70 685,50 253,10 31/08/2014
346 318200 BRUNO BARROS DE SOUZA OFICIAL DO MP ATIVO UBÁ - COMARCA; UBA-PJ-04PJ 5.876,69 587,67 0,00 0,00 0,00 0,00 6.464,36 772,03 546,82 0,00 1.318,85 5.145,51 685,50 554,10 31/08/2014
347 459600 BRUNO CASTELAR LUGAO MENDES OFICIAL DO MP ATIVO GOVERNADOR VALADARES - COMARCA; GOVERNADOR VALADARES-PJ-03PJ 4.000,95 240,06 0,00 0,00 0,00 0,00 4.241,01 466,51 246,30 0,00 712,81 3.528,20 685,50 0,00 31/08/2014
348 427400 BRUNO CESAR RIBEIRO DE PAIVA ASSESSOR/ANALISTA ATIVO BELO HORIZONTE - COMARCA; ASSESS JUR DO CONS SUPERIOR DO MINISTERIO PUB 0,00 797,34 7.973,40 0,00 0,00 0,00 8.770,74 1.428,94 1.192,85 0,00 2.621,79 6.148,95 685,50 0,00 31/08/2014
349 380900 BRUNO CIRILO ANTUNES OFICIAL DO MP ATIVO VARGINHA - COMARCA; VARGINHA-PJ-05PJ 4.131,19 1.521,44 0,00 0,00 0,00 0,00 5.652,63 553,17 709,44 0,00 1.262,61 4.390,02 685,50 484,50 31/08/2014
350 329000 BRUNO DE MELO REIS ANALISTA DO MP ATIVO PATROCÍNIO - COMARCA; PATROCINIO-PJ-02PJ 9.358,72 1.871,74 0,00 0,00 0,00 0,00 11.230,46 1.235,35 1.922,51 0,00 3.157,86 8.072,60 685,50 0,00 31/08/2014
351 601700 BRUNO DIAS JUNQUEIRA PEREIRA ANALISTA DO MP ATIVO BELO HORIZONTE - COMARCA; ASSESS TECNICO-JUR JUNTO AS PROC. DE JUST 4.848,98 0,00 0,00 0,00 0,00 0,00 4.848,98 533,39 368,05 0,00 901,44 3.947,54 685,50 0,00 31/08/2014
352 378300 BRUNO HERDY LOPES DE OLIVEIRA ANALISTA DO MP ATIVO MANTENA - COMARCA; MANTENA-PJ-SECRETARIA 7.973,40 797,34 0,00 0,00 0,00 0,00 8.770,74 964,78 1.320,49 0,00 2.285,27 6.485,47 685,50 0,00 31/08/2014
353 529700 BRUNO JOSE BUENO DIAS OFICIAL DO MP ATIVO SÃO SEBASTIÃO DO PARAÍSO - COMARCA; SAO SEBASTIAO DO PARAISO-PJ-02PJ 3.250,03 0,00 0,00 0,00 0,00 0,00 3.250,03 357,50 71,89 0,00 429,39 2.820,64 920,50 0,00 31/08/2014
354 350100 BRUNO LAUD SERRANO DOS REIS OFICIAL DO MP ATIVO UBÁ - COMARCA; UBA-PJ-03PJ 5.006,87 1.001,37 0,00 0,00 0,00 0,00 6.008,24 660,91 545,53 0,00 1.206,44 4.801,80 920,50 0,00 31/08/2014
355 373800 BRUNO MARTINO DE ALBUQUERQUE ANALISTA DO MP ATIVO PONTE NOVA - COMARCA; PONTE NOVA-PJ-03PJ 7.973,40 797,34 0,00 0,00 0,00 0,00 8.770,74 1.022,67 1.350,45 0,00 2.373,12 6.397,62 920,50 526,26 31/08/2014
356 470400 BRUNO NOVAIS CABRAL ANALISTA DO MP ATIVO RESPLENDOR - COMARCA; RESPLENDOR-PJ-UNPJ 5.601,43 375,93 0,00 0,00 0,00 0,00 5.977,36 730,57 616,72 0,00 1.347,29 4.630,07 685,50 0,00 31/08/2014
357 369200 BRUNO ROBERTO DIAS DE OLIVEIRA OFICIAL DO MP ATIVO BELO HORIZONTE - COMARCA; BH-22PJ PES COM DEF E IDOSOS 5.691,44 569,14 0,00 0,00 0,00 0,00 6.260,58 688,66 706,13 0,00 1.394,79 4.865,79 685,50 0,00 31/08/2014
358 547700 BRUNO ROBERTO SOUZA GONCALVES ANALISTA DO MP ATIVO PARACATU - COMARCA; PARACATU-PJ-03PJ 5.006,87 0,00 0,00 0,00 1.668,96 0,00 6.675,83 597,97 963,29 0,00 1.561,26 5.114,57 685,50 429,20 31/08/2014
359 546100 BRUNO SA VIEIRA ANALISTA DO MP ATIVO ERVÁLIA - COMARCA; ERVALIA-PJ-UNPJ 4.548,03 0,00 0,00 0,00 0,00 0,00 4.548,03 500,28 307,78 0,00 808,06 3.739,97 685,50 0,00 31/08/2014
360 438200 BRUNO SALES PEREIRA ANALISTA DO MP ATIVO BELO HORIZONTE - COMARCA; CENTRAL DE APOIO TECNICO-SETOR CONTABIL 6.793,15 407,59 0,00 0,00 0,00 0,00 7.200,74 792,08 886,81 0,00 1.678,89 5.521,85 685,50 0,00 31/08/2014
361 537400 BRUNO SANT'ANA CESAR ANALISTA DO MP ATIVO CONTAGEM - COMARCA; CONTAGEM-PJ-09PJ 4.548,03 0,00 0,00 0,00 1.516,01 0,00 6.064,04 500,28 703,88 0,00 1.204,16 4.859,88 685,50 0,00 31/08/2014
362 405800 CAIO FERNANDO RODRIGUES DE OLIVEIRA ANALISTA DO MP ATIVO BELO HORIZONTE - COMARCA; ASSESS TECNICO-JUR JUNTO AS PROC. DE JUST 7.066,03 797,34 0,00 0,00 0,00 0,00 7.863,37 1.428,95 2.103,74 0,00 3.532,69 4.330,68 771,58 4.227,61 31/08/2014
363 530000 CAIO GUEDES DE OLIVEIRA ANALISTA DO MP ATIVO DIAMANTINA - COMARCA; DIAMANTINA-PJ-03PJ 5.006,87 0,00 0,00 0,00 0,00 0,00 5.006,87 550,76 359,23 0,00 909,99 4.096,88 920,50 0,00 31/08/2014
364 491400 CAIO MIRANDA JUNQUEIRA ANALISTA DO MP ATIVO BUENO BRANDAO - COMARCA; BUENO BRANDAO-PJ-UNPJ 5.691,44 341,49 0,00 0,00 0,00 0,00 6.032,93 704,09 691,02 0,00 1.395,11 4.637,82 920,50 367,85 31/08/2014
365 415800 CAMILA ALVES DA SILVA ANALISTA DO MP ATIVO CAETÉ - COMARCA; CAETE-PJ-01PJ 7.014,37 701,44 0,00 0,00 0,00 0,00 7.715,81 848,74 1.062,29 0,00 1.911,03 5.804,78 685,50 0,00 31/08/2014
366 555800 CAMILA CAROLINE ROCHA CHAVES OFICIAL DO MP ATIVO SALINAS - COMARCA; SALINAS-PJ-01PJ 2.952,15 0,00 0,00 0,00 0,00 0,00 2.952,15 324,74 62,98 0,00 387,72 2.564,43 784,06 0,00 31/08/2014
367 445200 CAMILA CONDE ROCHA ANALISTA DO MP ATIVO CONTAGEM - COMARCA; CONTAGEM-PJ-08PJ 6.793,15 407,59 0,00 0,00 2.400,25 0,00 9.600,99 792,08 1.596,30 0,00 2.388,38 7.212,61 685,50 0,00 31/08/2014
368 419900 CAMILA CUNNINGHAM PIMENTA DE PADUA ANALISTA DO MP ATIVO BELO HORIZONTE - COMARCA; ASSESSORIA PSICOSSOCIAL 7.973,40 797,34 0,00 0,00 0,00 0,00 8.770,74 1.428,95 2.449,97 0,00 3.878,92 4.891,82 685,50 4.571,36 31/08/2014
369 507700 CAMILA ELIZABETH RODRIGUES ANALISTA DO MP ATIVO BELO HORIZONTE - COMARCA; BH-02PJ FAMILIA 6.068,01 0,00 0,00 0,00 0,00 0,00 6.068,01 667,48 659,00 0,00 1.326,48 4.741,53 685,50 0,00 31/08/2014
370 372700 CAMILA FONSECA LIMONGE ANALISTA DO MP ATIVO BETIM - COMARCA; BETIM-PJ-01PJ 7.973,40 797,34 0,00 0,00 0,00 0,00 8.770,74 964,78 1.320,49 0,00 2.285,27 6.485,47 685,50 0,00 31/08/2014
371 621300 CAMILA GOLFETO DE SOUSA VALENTE OFICIAL DO MP ATIVO ESPERA FELIZ - COMARCA; ESPERA FELIZ-PJ-UNPJ 2.859,08 0,00 0,00 0,00 0,00 0,00 2.859,08 450,78 217,67 0,00 668,45 2.190,63 965,93 1.238,93 31/08/2014
372 409800 CAMILA GONCALVES COSTA RIBEIRO ANALISTA DO MP ATIVO INHAPIM - COMARCA; INHAPIM-PJ-02PJ 7.014,37 701,44 0,00 0,00 0,00 0,00 7.715,81 848,74 1.012,87 0,00 1.861,61 5.854,20 920,50 0,00 31/08/2014
373 335000 CAMILA GONTIJO DE PAIVA ANALISTA DO MP ATIVO BELO HORIZONTE - COMARCA; COORD DE CONTROLE DA CONSTITUCIONALIDADE 9.063,59 906,36 0,00 0,00 0,00 0,00 9.969,95 1.096,69 1.564,58 0,00 2.661,27 7.308,68 685,50 0,00 31/08/2014
374 547800 CAMILA MATTARELLI DE ABREU E SILVA ANALISTA DO MP ATIVO BELO HORIZONTE - COMARCA; COORD DE INCLUSAO E MOBILIZACAO SOCIAIS 4.548,03 0,00 0,00 0,00 0,00 0,00 4.548,03 500,28 307,78 0,00 808,06 3.739,97 685,50 0,00 31/08/2014
375 430000 CANDIDA MARINA COSTA ANALISTA DO MP ATIVO BELO HORIZONTE - COMARCA; DIVISAO DE DOCUMENTACAO JURIDICA 7.014,37 701,44 0,00 0,00 0,00 0,00 7.715,81 848,74 1.062,29 0,00 1.911,03 5.804,78 685,50 0,00 31/08/2014
376 614300 CARINA CORTIELHA OFICIAL DO MP ATIVO BELO HORIZONTE - COMARCA; BH-23PJ CIVEL-RECEPCAO 2.859,08 0,00 0,00 0,00 0,00 0,00 2.859,08 314,50 56,76 0,00 371,26 2.487,82 685,50 0,00 31/08/2014
377 380400 CARINA DIAS FACANHA DE SOUZA ANALISTA DO MP ATIVO SANTA RITA DO SAPUCAÍ - COMARCA; SANTA RITA DO SAPUCAI-PJ-SECRETARIA 7.973,40 797,34 0,00 0,00 0,00 0,00 8.770,74 964,78 1.320,49 0,00 2.285,27 6.485,47 920,50 0,00 31/08/2014
378 255000 CARLA ADRIANA DE MENEZES OFICIAL DO MP ATIVO BELO HORIZONTE - COMARCA; CENT DE APOIO TEC-SETOR DEF,IDOSO E INFANC 6.469,61 1.293,92 0,00 0,00 0,00 0,00 7.763,53 853,99 1.073,97 0,00 1.927,96 5.835,57 685,50 0,00 31/08/2014
379 425100 CARLA ADRIANA DINIZ AMARAL OFICIAL DO MP ATIVO CONTAGEM - COMARCA; CONTAGEM-PJ-08PJ 5.006,87 500,69 0,00 0,00 0,00 0,00 5.507,56 605,83 472,41 0,00 1.078,24 4.429,32 685,50 0,00 31/08/2014
380 508100 CARLA ALESSANDRA FONSECA ANALISTA DO MP ATIVO BELO HORIZONTE - COMARCA; CAO-ORDEM ECONOMICA E TRIBUTARIA-SECRETARIA 6.068,01 0,00 0,00 0,00 0,00 0,00 6.068,01 667,48 659,00 0,00 1.326,48 4.741,53 685,50 0,00 31/08/2014
381 607100 CARLA ANGELICA DIAS MIRANDA OFICIAL DO MP ATIVO JABOTICATUBAS - COMARCA; JABOTICATUBAS-PJ-UNPJ 3.147,52 0,00 0,00 0,00 0,00 0,00 3.147,52 346,23 35,58 0,00 381,81 2.765,71 920,50 0,00 31/08/2014
382 351500 CARLA APARECIDA MENDES RAMIRIO OFICIAL DO MP ATIVO PASSOS - COMARCA; PASSOS-PJ-01PJ 4.601,17 516,99 0,00 0,00 0,00 0,00 5.118,16 625,55 367,44 0,00 992,99 4.125,17 920,50 0,00 31/08/2014
383 206200 CARLA BORGES DA COSTA COORDENADOR/ANALISTA ATIVO BELO HORIZONTE - COMARCA; DIRETORIA DE PROJETOS DE EDIFICACOES 13.353,95 7.402,15 0,00 0,00 0,00 0,00 20.756,10 2.056,51 4.316,24 0,00 6.372,75 14.383,35 3.715,15 277,72 31/08/2014
384 442800 CARLA GONCALVES COSTA SOALHEIRO ANALISTA DO MP ATIVO GOVERNADOR VALADARES - COMARCA; GOVERNADOR VALADARES-PJ-11PJ 6.793,15 407,59 0,00 0,00 0,00 0,00 7.200,74 792,08 886,81 0,00 1.678,89 5.521,85 920,50 0,00 31/08/2014
385 321500 CARLA GONCALVES MASSOTE OFICIAL DO MP ATIVO CAMPO BELO - COMARCA; CAMPO BELO-PJ-01PJ 5.876,69 587,67 0,00 0,00 0,00 0,00 6.464,36 711,08 756,00 0,00 1.467,08 4.997,28 685,50 0,00 31/08/2014
386 429200 CARLA HAUTEQUESTT BECHARA ANALISTA DO MP ATIVO BELO HORIZONTE - COMARCA; DIVISAO DE DOCUMENTACAO JURIDICA 7.014,37 701,44 0,00 0,00 0,00 0,00 7.715,81 848,74 1.062,29 0,00 1.911,03 5.804,78 685,50 0,00 31/08/2014
387 247500 CARLA MATILDE GUIMARAES DE OLIVEIRA OFICIAL DO MP ATIVO ITAJUBA - COMARCA; ITAJUBA-PJ-05PJ 6.793,15 2.037,95 0,00 0,00 0,00 0,00 8.831,10 971,42 1.285,84 0,00 2.257,26 6.573,84 685,50 0,00 31/08/2014
388 226100 CARLA MERLI DA CONCEICAO ANALISTA DO MP ATIVO BELO HORIZONTE - COMARCA; CENTRAL DE APOIO TECNICO-SETOR CONTABIL 11.885,64 2.377,13 0,00 0,00 0,00 0,00 14.262,77 1.568,90 2.615,24 0,00 4.184,14 10.078,63 685,50 0,00 31/08/2014
389 181401 CARLO MICHEL GAUDENSI COELHO ANALISTA DO MP ATIVO BELO HORIZONTE - COMARCA; BH-08PJ JUIZADO ESPECIAL-SECRETARIA 7.014,37 1.402,87 0,00 0,00 0,00 0,00 8.417,24 925,90 1.233,97 0,00 2.159,87 6.257,37 685,50 0,00 31/08/2014
390 375801 CARLOS ALBERTO ROCHA ANALISTA DO MP ATIVO ELOI MENDES - COMARCA; ELOI MENDES-PJ-SECRETARIA 5.511,94 0,00 0,00 0,00 0,00 0,00 5.511,94 658,29 638,54 0,00 1.296,83 4.215,11 685,50 472,50 31/08/2014
391 462800 CARLOS ANDREI SOARES FAGUNDES ANALISTA DO MP ATIVO MONTES CLAROS - COMARCA; MONTES CLAROS-PJ-09PJ 6.265,58 375,93 0,00 0,00 0,00 0,00 6.641,51 730,57 799,36 0,00 1.529,93 5.111,58 685,50 0,00 31/08/2014
392 616500 CARLOS ARI TELES DE PAULA ANALISTA DO MP ATIVO BELO HORIZONTE - COMARCA; BH-19PJ SAUDE-SECRETARIA 129PJ 4.404,59 0,00 0,00 0,00 0,00 0,00 4.404,59 484,50 279,06 0,00 763,56 3.641,03 685,50 0,00 31/08/2014
393 370300 CARLOS AUGUSTO BUENO DIAS ASSESSOR ATIVO BELO HORIZONTE - COMARCA; DIRETORIA DE FISCALIZACAO DE OBRAS 0,00 0,00 7.973,40 0,00 0,00 0,00 7.973,40 482,93 764,44 0,00 1.247,37 6.726,03 685,50 0,00 31/08/2014
394 505100 CARLOS CEZAR CARVALHO ANALISTA DO MP ATIVO RIBEIRÃO DAS NEVES - COMARCA; RIBEIRAO DAS NEVES-PJ-04PJ 5.511,94 1.653,58 0,00 0,00 0,00 0,00 7.165,52 788,21 828,77 0,00 1.616,98 5.548,54 685,50 0,00 31/08/2014
395 195900 CARLOS DE SOUZA FERREIRA OFICIAL DO MP ATIVO COROMANDEL - COMARCA; COROMANDEL-PJ-UNPJ 7.478,49 5.234,95 0,00 0,00 0,00 0,00 12.713,44 1.398,48 2.236,04 0,00 3.634,52 9.078,92 685,50 0,00 31/08/2014
396 196800 CARLOS EDUARDO DE OLIVEIRA MARINHO OFICIAL DO MP ATIVO ALPINÓPOLIS - COMARCA; ALPINOPOLIS-PJ-UNPJ 8.501,02 3.400,41 0,00 0,00 0,00 0,00 11.901,43 1.309,16 2.037,30 0,00 3.346,46 8.554,97 920,50 0,00 31/08/2014
397 491800 CARLOS EDUARDO ROMAN OFICIAL DO MP ATIVO BARBACENA - COMARCA; BARBACENA-PJ-01PJ 4.000,95 400,10 0,00 0,00 0,00 0,00 4.401,05 540,79 386,65 0,00 927,44 3.473,61 685,50 538,00 31/08/2014
398 299300 CARLOS HENRIQUE BICALHO ANALISTA DO MP ATIVO BELO HORIZONTE - COMARCA; BH-17PJ PATRIMONIO PUBLICO-SECRETARIA 9.663,38 2.899,01 0,00 0,00 0,00 0,00 12.562,39 1.381,86 2.248,50 0,00 3.630,36 8.932,03 685,50 0,00 31/08/2014
399 205100 CARLOS HENRIQUE ESTEVES OFICIAL DO MP ATIVO ITAMBACURI - COMARCA; ITAMBACURI-PJ-01PJ 9.358,72 2.807,62 0,00 0,00 0,00 0,00 12.166,34 1.453,01 2.357,37 0,00 3.810,38 8.355,96 685,50 1.042,80 31/08/2014
400 351600 CARLOS HENRIQUE FELICIO DA FONSECA OFICIAL DO MP ATIVO LIMA DUARTE - COMARCA; LIMA DUARTE-PJ-UNPJ 5.511,94 1.102,39 0,00 0,00 0,00 0,00 6.614,33 727,58 792,71 0,00 1.520,29 5.094,04 685,50 0,00 31/08/2014
401 85400 CARLOS JOSE VIEIRA OFICIAL DO MP ATIVO BELO HORIZONTE - COMARCA; DIRETORIA DO CONSELHO SUPERIOR DO MP 18.218,36 12.752,85 0,00 0,00 0,00 0,00 30.971,21 2.924,86 5.681,68 4.381,53 12.988,07 17.983,14 4.230,79 324,99 31/08/2014
402 229100 CARLOS MERCES DE OLIVEIRA ANALISTA DO MP ATIVO BELO HORIZONTE - COMARCA; CENTRAL DE APOIO TECN-SETOR DE MEIO AMBIENTE 11.342,29 2.268,46 0,00 0,00 0,00 0,00 13.610,75 1.497,18 1.860,35 0,00 3.357,53 10.253,22 685,50 0,00 31/08/2014
403 538300 CARLOS RANGEL SILVA DE MELO ANALISTA DO MP ATIVO BELO HORIZONTE - COMARCA; DIVISAO DE CONTROLE IMOBILIARIO 4.548,03 909,61 0,00 0,00 0,00 0,00 5.457,64 600,34 509,61 0,00 1.109,95 4.347,69 685,50 0,00 31/08/2014
404 265100 CARLOS REIFF MIRANDA ANALISTA DO MP ATIVO BELO HORIZONTE - COMARCA; BH-19PJ SAUDE-SECRETARIA 150PJ 9.663,38 1.932,68 0,00 0,00 0,00 0,00 11.596,06 1.275,57 2.011,98 0,00 3.287,55 8.308,51 685,50 0,00 31/08/2014
405 305400 CARLOS ROCHA DE SOUZA OFICIAL DO MP ATIVO MONTALVÂNIA - COMARCA; MONTALVANIA-PJ-SECRETARIA 4.696,06 939,21 0,00 0,00 0,00 0,00 5.635,27 619,88 363,76 0,00 983,64 4.651,63 1.390,50 0,00 31/08/2014
406 365100 CARLOS WAGNER SANDER MORAIS COORDENADOR/OFICIAL ATIVO BELO HORIZONTE - COMARCA; DIRETORIA DE ADMINISTRACAO FINANCEIRA 0,00 1.030,28 10.302,83 0,00 0,00 0,00 11.333,11 666,94 2.107,05 0,00 2.773,99 8.559,12 685,50 0,00 31/08/2014
407 399900 CARMELITA EVANGELISTA DE SOUZA OFICIAL DO MP ATIVO JOÃO PINHEIRO - COMARCA; JOAO PINHEIRO-PJ-01PJ 4.548,03 454,80 0,00 0,00 0,00 0,00 5.002,83 705,05 742,58 0,00 1.447,63 3.555,20 685,50 1.406,70 31/08/2014
408 390400 CARMEM APARECIDA ANTUNES RESENDE OFICIAL DO MP ATIVO IGARAPÉ - COMARCA; IGARAPE-PJ-SECRETARIA 5.006,87 4.506,19 0,00 0,00 0,00 1.046,44 10.559,50 1.046,44 1.740,52 0,00 2.786,96 7.772,54 685,50 0,00 31/08/2014
409 202000 CARMEN LUCIA MARIZ DE MACEDO OFICIAL DO MP ATIVO BELO HORIZONTE - COMARCA; COORD COMB REPRES TRAFICO ILICITO ENTORPECEN 8.501,02 4.250,51 0,00 0,00 0,00 0,00 12.751,53 1.522,91 2.463,48 0,00 3.986,39 8.765,14 685,50 1.093,10 31/08/2014
410 228500 CAROLINA CHIARELLA DOS SANTOS RIBEIRO OFICIAL DO MP ATIVO BELO HORIZONTE - COMARCA; BH-13ª PJ JUÍXO DE TÓXICOS 4.303,81 969,80 0,00 0,00 0,00 0,00 5.273,61 640,07 2.203,66 0,00 2.843,73 2.429,88 1.155,50 6.743,38 31/08/2014
411 446500 CAROLINA COSTA VAL RODRIGUES ANALISTA DO MP ATIVO CONTAGEM - COMARCA; CONTAGEM-PJ-05PJ 6.793,15 679,32 0,00 0,00 0,00 0,00 7.472,47 821,97 1.002,74 0,00 1.824,71 5.647,76 685,50 0,00 31/08/2014
412 603501 CAROLINA DOMINGOS BRANDAO ANALISTA DO MP ATIVO CARATINGA - COMARCA; CARATINGA-PJ-03PJ 4.404,59 0,00 0,00 0,00 0,00 0,00 4.404,59 484,50 279,06 0,00 763,56 3.641,03 685,50 0,00 31/08/2014
413 404300 CAROLINA DOS SANTOS VIEIRA ANALISTA DO MP ATIVO BELO HORIZONTE - COMARCA; BH-08PJ JUIZADO ESPECIAL-SECRETARIA 7.973,40 797,34 0,00 0,00 0,00 0,00 8.770,74 964,78 1.221,65 0,00 2.186,43 6.584,31 1.155,50 0,00 31/08/2014
414 551200 CAROLINA LOPES ARANTES MASCARENHAS ANALISTA DO MP ATIVO BELO HORIZONTE - COMARCA; EXTINTA - COORD DEFESA DO DIREITO DE FAMILIA 5.006,87 0,00 0,00 0,00 0,00 0,00 5.006,87 550,76 359,23 0,00 909,99 4.096,88 920,50 0,00 31/08/2014
415 382200 CAROLINA MENDES CHAVES LIN ANALISTA DO MP ATIVO BELO HORIZONTE - COMARCA; SUPERINTENDENCIA DE RECURSOS HUMANOS 6.469,61 646,96 0,00 0,00 0,00 0,00 7.116,57 782,82 866,21 0,00 1.649,03 5.467,54 0,00 0,00 31/08/2014
416 619100 CAROLINA MENEZES ZAKHIA NARDELLI ANALISTA DO MP ATIVO NEPOMUCENO - COMARCA; NEPOMUCENO-PJ-UNPJ 4.404,59 0,00 0,00 0,00 0,00 0,00 4.404,59 484,50 279,06 0,00 763,56 3.641,03 685,50 0,00 31/08/2014
417 461900 CAROLINA MURTA TEIXEIRA DIAS ANALISTA DO MP ATIVO BELO HORIZONTE - COMARCA; DIRET DE FORMACAO, APERFEIC. E POS-GRADUACAO 6.265,58 375,93 0,00 0,00 0,00 0,00 6.641,51 730,57 799,36 0,00 1.529,93 5.111,58 685,50 0,00 31/08/2014
418 509600 CAROLINA PINTO DE OLIVEIRA SOUZA ANALISTA DO MP ATIVO MURIAÉ - COMARCA; MURIAE-PJ-01PJ 6.068,01 0,00 0,00 0,00 0,00 0,00 6.068,01 724,69 736,87 0,00 1.461,56 4.606,45 920,50 520,10 31/08/2014
419 502600 CAROLINA RODRIGUES RUBEN ANALISTA DO MP ATIVO BELO HORIZONTE - COMARCA; EXTINTA-DEF DIREIT HUM-COMB A VIOL DOMEST-18 6.068,01 0,00 0,00 0,00 0,00 0,00 6.068,01 667,48 659,00 0,00 1.326,48 4.741,53 685,50 0,00 31/08/2014
420 529600 CAROLINA VAZ DE MELO MAMBRINI ANALISTA DO MP ATIVO MINAS NOVAS - COMARCA; MINAS NOVAS-PJ-UNPJ 5.006,87 0,00 0,00 0,00 0,00 0,00 5.006,87 550,76 399,66 0,00 950,42 4.056,45 685,50 0,00 31/08/2014
421 517600 CAROLINE ALVES DE OLIVEIRA MULLER ANALISTA DO MP ATIVO VISCONDE DO RIO BRANCO - COMARCA; VISCONDE DO RIO BRANCO-PJ-01PJ 6.068,01 0,00 0,00 0,00 0,00 0,00 6.068,01 667,48 609,58 0,00 1.277,06 4.790,95 920,50 0,00 31/08/2014
422 373200 CAROLINE ANTUNES RIBEIRO OFICIAL DO MP ATIVO JACUI - COMARCA; JACUI-PJ-UNPJ 5.169,86 516,99 0,00 0,00 0,00 0,00 5.686,85 625,55 417,45 0,00 1.043,00 4.643,85 3.195,24 208,52 31/08/2014
423 556800 CAROLINE DE SOUZA CARDOSO OFICIAL DO MP ATIVO BRASÍLIA DE MINAS - COMARCA; BRASILIA DE MINAS-PJ-02PJ 2.952,15 0,00 0,00 0,00 0,00 0,00 2.952,15 341,46 84,03 0,00 425,49 2.526,66 685,50 183,03 31/08/2014
424 499400 CAROLINE MARQUES DE LOURDES MARZULLO OFICIAL DO MP ATIVO JUIZ DE FORA - COMARCA; JUIZ DE FORA-PJ-20PJ 3.938,84 0,00 0,00 0,00 0,00 0,00 3.938,84 433,27 190,81 0,00 624,08 3.314,76 685,50 0,00 31/08/2014
425 616800 CAROLINE MONTEIRO DE BARROS ANALISTA DO MP ATIVO CONTAGEM - COMARCA; CONTAGEM-PJ-11PJ 4.404,59 0,00 0,00 0,00 0,00 0,00 4.404,59 484,50 279,06 0,00 763,56 3.641,03 685,50 0,00 31/08/2014
426 618100 CAROLINE VASCONCELOS COSTA LANZA ANALISTA DO MP ATIVO PARAOPEBA - COMARCA; PARAOPEBA-PJ-UNPJ 4.404,59 0,00 0,00 0,00 0,00 0,00 4.404,59 484,50 279,06 0,00 763,56 3.641,03 685,50 0,00 31/08/2014
427 604000 CASSIA APARECIDA DA SILVA OFICIAL DO MP ATIVO CANÁPOLIS - COMARCA; CANAPOLIS-PJ-UNPJ 2.859,08 0,00 0,00 0,00 0,00 0,00 2.859,08 314,50 56,76 0,00 371,26 2.487,82 685,50 0,00 31/08/2014
428 268800 CASSIA BEATRIZ TEIXEIRA OFICIAL DO MP ATIVO BELO HORIZONTE - COMARCA; COMB CRIMES PRAT POR AG POL MUN-SECRETARIA 6.469,61 1.293,92 0,00 0,00 0,00 0,00 7.763,53 853,99 1.073,97 0,00 1.927,96 5.835,57 685,50 0,00 31/08/2014
429 500000 CASSIA DE OLIVEIRA COSTA VIANA ANALISTA DO MP ATIVO SETE LAGOAS - COMARCA; SETE LAGOAS-PJ-01PJ 6.068,01 1.213,60 0,00 0,00 0,00 0,00 7.281,61 800,98 956,02 0,00 1.757,00 5.524,61 685,50 0,00 31/08/2014
430 368800 CASSIA LUISA BATISTA MENDONCA WEBER OFICIAL DO MP ATIVO BELO HORIZONTE - COMARCA; PROCON-MG-SEC DE EDUCACAO PARA O CONSUMO 4.696,06 469,61 0,00 0,00 0,00 0,00 5.165,67 568,22 438,15 0,00 1.006,37 4.159,30 1.155,50 0,00 31/08/2014
431 622200 CASSIA VAZ DE AZEVEDO LISBOA MARZANO ASSESSOR ADMINISTRATIVO I ATIVO BELO HORIZONTE - COMARCA; CGMP-SECRETARIA DA CORREGEDORIA-GERAL DO MP 0,00 0,00 2.359,08 0,00 0,00 0,00 2.359,08 334,90 71,42 0,00 406,32 1.952,76 685,50 0,00 31/08/2014
432 121000 CASSIO HENRIQUE AFONSO DA SILVA COORDENADOR/OFICIAL ATIVO BELO HORIZONTE - COMARCA; DIR ANALISES TECNOLOGIA INTELIGENCIA 10.638,28 7.791,82 0,00 0,00 0,00 0,00 18.430,10 1.755,32 3.660,57 0,00 5.415,89 13.014,21 1.155,50 0,00 31/08/2014
433 121100 CASSIO MOREIRA DE MIRANDA AGENTE DO MP ATIVO BELO HORIZONTE - COMARCA; PROCON-MG-SECRETARIA DE FISCALIZACOES 3.355,81 3.457,38 0,00 0,00 0,00 0,00 6.813,19 627,54 210,05 0,00 837,59 5.975,60 685,50 0,00 31/08/2014
434 512000 CATARINA NATALINO CALIXTO OFICIAL DO MP ATIVO BELO HORIZONTE - COMARCA; EXTINTA - DIVISÃO DE APOIO À LICITAÇÃO 3.577,90 0,00 0,00 0,00 0,00 0,00 3.577,90 393,57 142,62 0,00 536,19 3.041,71 685,50 0,00 31/08/2014
435 606200 CATARINE DE SIQUEIRA DE QUADROS ANALISTA DO MP ATIVO RIBEIRÃO DAS NEVES - COMARCA; RIBEIRAO DAS NEVES-PJ-09PJ 4.404,59 0,00 0,00 0,00 0,00 0,00 4.404,59 484,50 238,63 0,00 723,13 3.681,46 920,50 0,00 31/08/2014
436 71800 CATIA EFIGENIA CARNEIRO DE FREITAS OFICIAL DO MP ATIVO BELO HORIZONTE - COMARCA; ASSESSORIA JURIDICO-ADMINISTRATIVA 20.993,41 14.695,38 0,00 0,00 0,00 0,00 35.688,79 2.924,86 5.632,26 9.099,11 17.656,23 18.032,56 685,50 0,00 31/08/2014
437 538000 CECILIA FONTES DE MATOS PIMENTEL ANALISTA DO MP ATIVO PALMA - COMARCA; PALMA-PJ-SECRETARIA 4.506,18 0,00 0,00 0,00 0,00 0,00 4.506,18 550,76 287,01 0,00 837,77 3.668,41 685,50 0,00 31/08/2014
438 261300 CECILIO ANTONIO CAMPOS DOS REIS ANALISTA DO MP ATIVO BELO HORIZONTE - COMARCA; CENTRAL DE APOIO TECNICO-SETOR CONTABIL 9.977,95 1.995,59 0,00 0,00 0,00 0,00 11.973,54 1.317,09 2.104,37 0,00 3.421,46 8.552,08 685,50 0,00 31/08/2014
439 386400 CEFAS AMORELI DE FIGUEIREDO OFICIAL DO MP ATIVO CABO VERDE - COMARCA; CABO VERDE-PJ-SECRETARIA 4.131,19 413,12 0,00 0,00 0,00 0,00 4.544,31 499,87 307,04 0,00 806,91 3.737,40 685,50 0,00 31/08/2014
440 149000 CELIA MAGALHAES CLAROS SOSSI OFICIAL DO MP ATIVO GOVERNADOR VALADARES - COMARCA; GOVERNADOR VALADARES-PJ-01PJ 9.663,38 3.865,35 0,00 0,00 0,00 0,00 13.528,73 1.488,16 2.485,01 0,00 3.973,17 9.555,56 685,50 0,00 31/08/2014
441 113100 CELIA MARIA ALVES PINTO OFICIAL DO MP ATIVO BELO HORIZONTE - COMARCA; PROCON-MG-SEC DE EDUCACAO PARA O CONSUMO 6.578,93 4.605,25 0,00 0,00 0,00 0,00 11.184,18 1.260,24 1.977,89 0,00 3.238,13 7.946,05 685,50 272,57 31/08/2014
442 421000 CELINA BENEDITA DE SOUZA ALMEIDA OFICIAL DO MP ATIVO CAMBUÍ - COMARCA; CAMBUI-PJ-01PJ 5.006,87 2.002,75 0,00 0,00 0,00 0,00 7.009,62 837,15 987,08 0,00 1.824,23 5.185,39 685,50 600,80 31/08/2014
443 252900 CELIO DE MELO CASTOR ANALISTA DO MP ATIVO BELO HORIZONTE - COMARCA; BH-20PJ ORD ECON TRIBUTARIA-SECRETARIA 9.977,95 1.995,59 0,00 0,00 0,00 0,00 11.973,54 1.317,09 2.054,95 0,00 3.372,04 8.601,50 685,50 0,00 31/08/2014
444 395700 CELIO FERREIRA LIMA OFICIAL DO MP ATIVO CONTAGEM - COMARCA; CONTAGEM-PJ-07PJ 4.548,03 454,80 0,00 0,00 0,00 0,00 5.002,83 550,31 358,42 0,00 908,73 4.094,10 920,50 0,00 31/08/2014
445 281300 CELMA REGINA PEREIRA SANTOS ANALISTA DO MP ATIVO BELO HORIZONTE - COMARCA; DIVISAO DE MEMORIA INSTITUCIONAL 10.638,28 2.127,66 0,00 0,00 0,00 0,00 12.765,94 1.404,25 2.298,31 0,00 3.702,56 9.063,38 685,50 0,00 31/08/2014
446 535600 CELSO MEDEIROS DE PAIVA OFICIAL DO MP ATIVO RIO PRETO - COMARCA; RIO PRETO-PJ-SECRETARIA 2.952,15 0,00 0,00 0,00 0,00 0,00 2.952,15 324,74 49,50 0,00 374,24 2.577,91 685,50 0,00 31/08/2014
447 367000 CESAR NARVAES DE AVELAR COORDENADOR/OFICIAL ATIVO BELO HORIZONTE - COMARCA; DIVISAO DE MEMORIA INSTITUCIONAL 0,00 906,36 9.063,59 0,00 0,00 0,00 9.969,95 688,66 1.726,20 0,00 2.414,86 7.555,09 685,50 0,00 31/08/2014
448 226500 CESAR SILVEIRA BARROUIN OFICIAL DO MP ATIVO BELO HORIZONTE - COMARCA; DIRETORIA DE ADMINISTRACAO FINANCEIRA 6.793,15 2.037,95 0,00 0,00 0,00 0,00 8.831,10 971,42 1.335,26 0,00 2.306,68 6.524,42 685,50 0,00 31/08/2014
449 121400 CEZAR MORENO CONCEICAO TAVARES OFICIAL DO MP ATIVO BELO HORIZONTE - COMARCA; COORD DE INCLUSAO E MOBILIZACAO SOCIAIS 9.358,72 4.679,36 0,00 0,00 0,00 0,00 14.038,08 1.544,19 2.609,67 0,00 4.153,86 9.884,22 685,50 0,00 31/08/2014
450 243800 CHARLES MARTINS MUNIZ OFICIAL DO MP ATIVO BELO HORIZONTE - COMARCA; GAECO - SECRETARIA 5.946,86 1.879,67 0,00 0,00 0,00 0,00 7.826,53 964,90 1.233,10 0,00 2.198,00 5.628,53 685,50 626,56 31/08/2014
451 193500 CHARLIN CESAR KOURLY OFICIAL DO MP ATIVO UBERLÂNDIA - COMARCA; UBERLANDIA-PJ-10PJ 8.501,02 1.700,20 0,00 0,00 0,00 0,00 10.201,22 1.122,13 1.670,60 0,00 2.792,73 7.408,49 685,50 0,00 31/08/2014
452 385500 CHILLEN PEIXOTO DE MOURA OFICIAL DO MP ATIVO BELO HORIZONTE - COMARCA; BH-14PJ DEFESA CONSUMIDOR-GAB 112PJ 4.548,03 454,80 0,00 0,00 0,00 0,00 5.002,83 600,75 510,52 0,00 1.111,27 3.891,56 685,50 458,52 31/08/2014
453 534500 CHRISTIAN DOUGLAS BRITO RUAS OFICIAL DO MP ATIVO SÃO JOÃO DA PONTE - COMARCA; SAO JOAO DA PONTE-PJ-SECRETARIA 2.952,15 0,00 0,00 0,00 0,00 0,00 2.952,15 352,58 92,87 0,00 445,45 2.506,70 1.220,54 253,10 31/08/2014
454 370600 CHRISTIAN KARINE FELIX PRATES ASSESSOR ATIVO BELO HORIZONTE - COMARCA; ASSESS ESPECIAL DO PGJ ATUACAO JUNTO A PGJAI 0,00 0,00 7.973,40 0,00 0,00 0,00 7.973,40 482,93 1.422,24 0,00 1.905,17 6.068,23 920,50 0,00 31/08/2014
455 435800 CHRISTIANA BAHIA ANDRADE PINA ANALISTA DO MP ATIVO BELO HORIZONTE - COMARCA; CAO-ORDEM ECONOMICA E TRIBUTARIA-SECRETARIA 6.793,15 679,32 0,00 0,00 0,00 0,00 7.472,47 851,86 1.094,15 0,00 1.946,01 5.526,46 920,50 362,31 31/08/2014
456 516800 CHRISTIANE FERREIRA DO NASCIMENTO ANALISTA DO MP ATIVO ESTRELA DO SUL - COMARCA; ESTRELA DO SUL-PJ-UNPJ 5.511,94 0,00 0,00 0,00 0,00 0,00 5.511,94 658,29 638,54 0,00 1.296,83 4.215,11 685,50 472,50 31/08/2014
457 176000 CHRISTIANE JUNQUEIRA PULITI ANDRADE DE BARROS ASSESSOR ATIVO BELO HORIZONTE - COMARCA; GABINETE DO PROCURADOR-GERAL DE JUSTICA 0,00 9.347,77 13.353,95 0,00 0,00 0,00 22.701,72 2.497,19 4.680,68 0,00 7.177,87 15.523,85 2.468,95 163,48 31/08/2014
458 319200 CHRISTIANE MARIA DE ASSIS RUSSO OFICIAL DO MP ATIVO BELO HORIZONTE - COMARCA; CAO-ORDEM ECONOMICA E TRIBUTARIA-SECRETARIA 5.876,69 587,67 0,00 0,00 0,00 0,00 6.464,36 711,08 706,58 0,00 1.417,66 5.046,70 920,50 0,00 31/08/2014
459 510300 CHRISTIANE MARY DE CARVALHO FERREIRA ANALISTA DO MP ATIVO BELO HORIZONTE - COMARCA; DIRETORIA DE SISTEMAS DE INFORMACAO 5.511,94 0,00 0,00 0,00 0,00 0,00 5.511,94 606,31 473,48 0,00 1.079,79 4.432,15 920,50 0,00 31/08/2014
460 424900 CHRISTIANE PEREIRA TURNER DE ARAUJO OFICIAL DO MP ATIVO BELO HORIZONTE - COMARCA; CAO-PATRIMONIO PUBLICO 4.848,98 484,90 0,00 0,00 0,00 0,00 5.333,88 586,73 479,32 0,00 1.066,05 4.267,83 920,50 0,00 31/08/2014
461 513700 CHRISTIANE VIEIRA SOARES PEDERSOLI ANALISTA DO MP ATIVO BELO HORIZONTE - COMARCA; EXTINTA - SECRETARIA ADMINISTRATIVA 6.068,01 0,00 0,00 0,00 0,00 0,00 6.068,01 667,48 659,00 0,00 1.326,48 4.741,53 685,50 0,00 31/08/2014
462 412300 CHRYSTIAN MACHADO RIBEIRO ANALISTA DO MP ATIVO VARGINHA - COMARCA; VARGINHA-PJ-04PJ 7.973,40 797,34 0,00 0,00 0,00 0,00 8.770,74 1.438,89 2.375,39 0,00 3.814,28 4.956,46 771,58 4.317,99 31/08/2014
463 513800 CHRYSTIANE DO NASCIMENTO DE MAGALHAES OFICIAL DO MP ATIVO UBERLÂNDIA - COMARCA; UBERLANDIA-PJ-10PJ 3.938,84 0,00 0,00 0,00 0,00 0,00 3.938,84 455,56 226,37 0,00 681,93 3.256,91 920,50 202,62 31/08/2014
464 497900 CIBELE DE FREITAS SANCHES DIAS ANALISTA DO MP ATIVO SABARÁ - COMARCA; SABARA-PJ-03PJ 5.511,94 330,72 0,00 0,00 0,00 0,00 5.842,66 679,07 715,10 0,00 1.394,17 4.448,49 685,50 440,96 31/08/2014
465 500900 CIBELLE SILVA PRADO ALVARENGA ANALISTA DO MP ATIVO ITANHANDU - COMARCA; ITANHANDU-PJ-UNPJ 6.068,01 0,00 0,00 0,00 0,00 0,00 6.068,01 724,69 786,29 0,00 1.510,98 4.557,03 3.112,70 742,59 31/08/2014
466 296400 CINTIA APARECIDA MOREIRA NAVES E RODRIGUES ANALISTA DO MP ATIVO CAMPO BELO - COMARCA; CAMPO BELO-PJ-04PJ 9.663,38 1.932,68 0,00 0,00 0,00 0,00 11.596,06 1.275,57 2.011,98 0,00 3.287,55 8.308,51 920,50 0,00 31/08/2014
467 407900 CINTIA NETO COMELLI ANALISTA DO MP ATIVO BELO HORIZONTE - COMARCA; CENTRAL DE APOIO TECNICO-SETOR CONTABIL 7.973,40 797,34 0,00 0,00 0,00 0,00 8.770,74 1.428,95 2.353,27 0,00 3.782,22 4.988,52 685,50 4.219,72 31/08/2014
468 304700 CINTIA QUEIROZ OFICIAL DO MP ATIVO BELO HORIZONTE - COMARCA; COORD DE GABINETE DO PGJ 6.265,58 1.253,12 0,00 0,00 0,00 0,00 7.518,70 827,06 1.014,05 0,00 1.841,11 5.677,59 685,50 0,00 31/08/2014
469 286100 CIRO CANGUSSU CORDEIRO OFICIAL DO MP ATIVO IPATINGA - COMARCA; IPATINGA-PJ-09PJ 4.696,06 939,21 0,00 0,00 0,00 0,00 5.635,27 619,88 503,66 0,00 1.123,54 4.511,73 685,50 0,00 31/08/2014
470 412500 CLARICE GOMES MAROTTA ANALISTA DO MP ATIVO BELO HORIZONTE - COMARCA; ASSESS TECNICO-JUR JUNTO AS PROC. DE JUST 7.014,37 1.402,87 0,00 0,00 0,00 0,00 8.417,24 925,90 1.233,97 0,00 2.159,87 6.257,37 4.230,79 324,98 31/08/2014
471 605300 CLARISSA AZEVEDO ROCHA OFICIAL DO MP ATIVO BELO HORIZONTE - COMARCA; EXTINTA - DIVISÃO DE COMPRAS 3.147,52 0,00 0,00 0,00 0,00 0,00 3.147,52 346,23 85,16 0,00 431,39 2.716,13 685,50 0,00 31/08/2014
472 308100 CLARISSA DUARTE MARTINS DIRETOR/ANALISTA ATIVO BELO HORIZONTE - COMARCA; SUPERINTENDENCIA DE RECURSOS HUMANOS 0,00 2.670,79 13.353,95 0,00 0,00 0,00 16.024,74 1.275,57 3.180,45 0,00 4.456,02 11.568,72 4.230,79 324,98 31/08/2014
473 497100 CLARISSA ROCHA GUIDI ANALISTA DO MP ATIVO BELO HORIZONTE - COMARCA; EXTINTA - JUIZO DE FAMILIA-02 PJ-02 VARA 6.068,01 364,08 0,00 0,00 0,00 0,00 6.432,09 747,58 837,21 0,00 1.584,79 4.847,30 685,50 364,08 31/08/2014
474 463700 CLAUDIA ADRIANA FERRAO DIAS ANALISTA DO MP ATIVO SETE LAGOAS - COMARCA; SETE LAGOAS-PJ-06PJ 6.265,58 375,93 0,00 0,00 0,00 0,00 6.641,51 793,19 790,43 0,00 1.583,62 5.057,89 685,50 569,30 31/08/2014
475 415400 CLAUDIA ALMEIDA DE VASCONCELLOS BARROS ASSESSOR/OFICIAL ATIVO BELO HORIZONTE - COMARCA; DIRET DE PESSOAL DO MINISTERIO PUBLICO - DPMP 0,00 797,34 7.973,40 0,00 0,00 0,00 8.770,74 1.110,42 1.280,44 0,00 2.390,86 6.379,88 685,50 0,00 31/08/2014
476 389600 CLAUDIA ALVES PERDOMO ASSESSOR ATIVO BELO HORIZONTE - COMARCA; PROCON-MG-GAB DO COORDENADOR DO PROCON-MG 0,00 0,00 7.973,40 0,00 0,00 0,00 7.973,40 482,93 1.422,24 0,00 1.905,17 6.068,23 685,50 0,00 31/08/2014
477 207000 CLAUDIA APARECIDA VILELA MACHADO ANALISTA DO MP ATIVO BELO HORIZONTE - COMARCA; CENTRAL DE APOIO TECNICO-SETOR CONTABIL 12.356,19 3.706,86 0,00 0,00 0,00 0,00 16.063,05 1.766,94 2.957,02 0,00 4.723,96 11.339,09 920,50 0,00 31/08/2014
478 365700 CLAUDIA BREGUEZ CUNHA ANALISTA DO MP ATIVO VARGINHA - COMARCA; VARGINHA-PJ-07PJ 8.501,02 850,10 0,00 0,00 0,00 0,00 9.351,12 1.028,62 1.462,54 0,00 2.491,16 6.859,96 685,50 0,00 31/08/2014
479 430500 CLAUDIA CECILIA SANTANA VENCESLAU COORDENADOR/OFICIAL ATIVO BELO HORIZONTE - COMARCA; DIRET DE DESENV DE RECURSOS HUMANOS-DDRH 0,00 1.030,28 10.302,83 0,00 0,00 0,00 11.333,11 586,73 2.079,68 0,00 2.666,41 8.666,70 685,50 0,00 31/08/2014
480 112400 CLAUDIA CRISTINA FIUZA DE AVELAR AGENTE DO MP ATIVO BELO HORIZONTE - COMARCA; SERVICO MEDICO-DEPTO PERIC MEDICA SAUDE OCUP 6.265,58 3.132,79 0,00 0,00 0,00 0,00 9.398,37 1.033,82 1.474,10 0,00 2.507,92 6.890,45 685,50 0,00 31/08/2014
481 149400 CLAUDIA DINIZ OFICIAL DO MP ATIVO BELO HORIZONTE - COMARCA; BH-09PJ AUDITORIA MILITAR-SECRETARIA 10.984,62 5.492,31 0,00 0,00 0,00 0,00 16.476,93 1.812,46 3.107,74 0,00 4.920,20 11.556,73 685,50 0,00 31/08/2014
482 480400 CLAUDIA GOULART DE SOUZA OFICIAL DO MP ATIVO PASSOS - COMARCA; PASSOS-PJ-06PJ 4.000,95 400,10 0,00 0,00 0,00 0,00 4.401,05 484,12 278,35 0,00 762,47 3.638,58 685,50 0,00 31/08/2014
483 519800 CLAUDIA HELENA CORREA DE ALMEIDA ANALISTA DO MP ATIVO BELO HORIZONTE - COMARCA; BH-12PJ JUIZO CRIMINAL-GAB 090PJ 6.068,01 0,00 0,00 0,00 0,00 0,00 6.068,01 667,48 659,00 0,00 1.326,48 4.741,53 685,50 0,00 31/08/2014
484 422100 CLAUDIA IACOMINI CABRAL ANALISTA DO MP ATIVO BELO HORIZONTE - COMARCA; CENT DE APOIO TEC-SETOR DEF,IDOSO E INFANC 7.014,37 3.507,19 0,00 0,00 0,00 0,00 10.521,56 1.157,37 1.749,00 0,00 2.906,37 7.615,19 685,50 0,00 31/08/2014
485 258200 CLAUDIA LAGE MICHALAROS ANALISTA DO MP ATIVO BELO HORIZONTE - COMARCA; CENTRAL DE APOIO TECN-SETOR DE MEIO AMBIENTE 9.977,95 4.988,98 0,00 0,00 0,00 0,00 14.966,93 1.646,36 2.787,59 0,00 4.433,95 10.532,98 685,50 0,00 31/08/2014
486 284600 CLAUDIA LENI DE ABREU OFICIAL DO MP ATIVO CONTAGEM - COMARCA; CONTAGEM-PJ-22PJ 4.696,06 1.408,82 0,00 0,00 0,00 0,00 6.104,88 671,54 668,02 0,00 1.339,56 4.765,32 4.230,79 324,98 31/08/2014
487 433600 CLAUDIA LUIZA SANTIAGO FELICIO ANALISTA DO MP ATIVO BELO HORIZONTE - COMARCA; CAO-SAUDE-TECNICO JURIDICO 7.014,37 701,44 0,00 0,00 0,00 0,00 7.715,81 937,07 1.159,99 0,00 2.097,06 5.618,75 1.155,50 803,02 31/08/2014
488 317000 CLAUDIA MACHADO ALVES OFICIAL DO MP ATIVO BELO HORIZONTE - COMARCA; ASSESS ESPECIAL DO PGJ ATUACAO JUNTO A PGJAI 4.848,98 484,90 0,00 0,00 0,00 0,00 5.333,88 586,73 479,32 0,00 1.066,05 4.267,83 685,50 0,00 31/08/2014
489 155300 CLAUDIA MACIEL MIRANDA OFICIAL DO MP ATIVO CONGONHAS - COMARCA; CONGONHAS-PJ-02PJ 9.358,72 3.743,49 0,00 0,00 0,00 0,00 13.102,21 1.441,24 2.281,78 0,00 3.723,02 9.379,19 920,50 0,00 31/08/2014
490 242200 CLAUDIA MICHELLE DIAS MUNIZ BALEEIRO OFICIAL DO MP ATIVO MONTE AZUL - COMARCA; MONTE AZUL-PJ-SECRETARIA 6.578,93 1.973,68 0,00 0,00 0,00 0,00 8.552,61 940,79 1.168,26 0,00 2.109,05 6.443,56 685,50 0,00 31/08/2014
491 418400 CLAUDIA REGINA MARTINS BONIFACIO OFICIAL DO MP ATIVO ITUIUTABA - COMARCA; ITUIUTABA-PJ-06PJ 5.006,87 500,69 0,00 0,00 0,00 0,00 5.507,56 605,83 422,99 0,00 1.028,82 4.478,74 685,50 0,00 31/08/2014
492 498300 CLAUDIA SOUTO FARIAS BRAUN OFICIAL DO MP ATIVO TEÓFILO OTONI - COMARCA; TEOFILO OTONI-PJ-SECRETARIA 3.577,90 0,00 0,00 0,00 0,00 0,00 3.577,90 393,57 64,31 0,00 457,88 3.120,02 920,50 0,00 31/08/2014
493 206500 CLAUDIA VALERIA FONSECA ANDRADE ANALISTA DO MP ATIVO BELO HORIZONTE - COMARCA; BH-23PJ INF-FISC MED SOC FEC 12.356,19 4.942,48 0,00 0,00 0,00 0,00 17.298,67 1.902,85 3.358,28 0,00 5.261,13 12.037,54 685,50 0,00 31/08/2014
494 277500 CLAUDIO ANTONIO BORGES ALVARES ASSESSOR/OFICIAL ATIVO BELO HORIZONTE - COMARCA; COORD REG BACIAS RIO VELHAS E PARAOPEBA 0,00 1.253,12 6.265,58 0,00 0,00 0,00 7.518,70 800,98 1.021,22 0,00 1.822,20 5.696,50 685,50 0,00 31/08/2014
495 444800 CLAUDIO ARESIO DO CARMO ANALISTA DO MP ATIVO SETE LAGOAS - COMARCA; SETE LAGOAS-PJ-09PJ 6.793,15 1.358,63 0,00 0,00 0,00 0,00 8.151,78 973,55 1.290,59 0,00 2.264,14 5.887,64 920,50 698,70 31/08/2014
496 541600 CLAUDIO DE OLIVEIRA MELO OFICIAL DO MP ATIVO PARACATU - COMARCA; PARACATU-PJ-01PJ 2.952,15 0,00 0,00 0,00 0,00 0,00 2.952,15 324,74 36,02 0,00 360,76 2.591,39 1.155,50 0,00 31/08/2014
497 545100 CLAUDIO HENRIQUE MACEDO DE SOUZA FRANSOZO ANALISTA DO MP ATIVO OURO PRETO - COMARCA; OURO PRETO-PJ-01PJ 4.548,03 0,00 0,00 0,00 0,00 0,00 4.548,03 500,28 307,78 0,00 808,06 3.739,97 685,50 0,00 31/08/2014
498 353500 CLAUDIO HENRIQUE PEDRO DA ROCHA OFICIAL DO MP ATIVO BELO HORIZONTE - COMARCA; CAO-CRIMINAL-SECRETARIA 5.511,94 551,19 0,00 0,00 0,00 0,00 6.063,13 666,94 558,96 0,00 1.225,90 4.837,23 685,50 0,00 31/08/2014
499 265800 CLAUDIO KUPIDLOWSKY FERNANDES ASSESSOR/OFICIAL ATIVO BELO HORIZONTE - COMARCA; EXTINTA - SECRETARIA ADMINISTRATIVA 0,00 1.755,56 8.777,78 0,00 0,00 0,00 10.533,34 800,98 1.146,48 0,00 1.947,46 8.585,88 920,50 0,00 31/08/2014
500 193600 CLAUDIO LEITE FONTES OFICIAL DO MP ATIVO ITUIUTABA - COMARCA; ITUIUTABA-PJ-02PJ 5.169,86 1.550,96 0,00 0,00 0,00 0,00 6.720,82 739,29 619,67 0,00 1.358,96 5.361,86 685,50 0,00 31/08/2014
501 329400 CLAUDIO MARCIO BERNARDES OFICIAL DO MP ATIVO ITAÚNA - COMARCA; ITAUNA-PJ-04PJ 5.876,69 2.350,68 0,00 0,00 0,00 0,00 8.227,37 905,01 1.138,08 0,00 2.043,09 6.184,28 769,50 0,00 31/08/2014
502 270200 CLAUDIO RABELO ALVES OFICIAL DO MP ATIVO FORMIGA - COMARCA; FORMIGA-PJ-SECRETARIA 6.469,61 1.293,92 0,00 0,00 0,00 0,00 7.763,53 927,18 1.039,15 0,00 1.966,33 5.797,20 685,50 665,40 31/08/2014
503 264700 CLAUDIO ROBERTO KFURI DE ARAUJO ANALISTA DO MP ATIVO BELO HORIZONTE - COMARCA; CENTRAL DE APOIO TECNICO-SETOR DE INFORMATICA 9.187,40 1.995,59 0,00 0,00 0,00 0,00 11.182,99 1.317,09 1.788,13 0,00 3.105,22 8.077,77 685,50 0,00 31/08/2014
504 188600 CLAUDIO SALES OFICIAL DO MP ATIVO NEPOMUCENO - COMARCA; NEPOMUCENO-PJ-SECRETARIA 8.233,02 4.116,51 0,00 0,00 0,00 0,00 12.349,53 1.358,45 2.097,56 0,00 3.456,01 8.893,52 1.155,50 0,00 31/08/2014
505 543300 CLAUDIO SILVA DE CARVALHO ANALISTA DO MP ATIVO CAMPO BELO - COMARCA; CAMPO BELO-PJ-02PJ 4.404,59 0,00 0,00 0,00 0,00 0,00 4.404,59 484,50 199,07 0,00 683,57 3.721,02 685,50 0,00 31/08/2014
506 160700 CLAUDIO VICENTE HESS ASSESSOR ATIVO BELO HORIZONTE - COMARCA; EXTINTA - SUPERINTENDENCIA ADMINISTRATIVA-SAD 0,00 1.023,91 10.302,83 0,00 0,00 0,00 11.326,74 482,93 2.764,56 0,00 3.247,49 8.079,25 685,50 0,00 31/08/2014
507 312900 CLAUDIO VIEIRA FIRPE ASSESSOR/OFICIAL ATIVO BELO HORIZONTE - COMARCA; DIRETORIA DE RELACOES PUBLICAS E CERIMONIAL 0,00 797,34 7.973,40 0,00 0,00 0,00 8.770,74 758,14 1.377,32 0,00 2.135,46 6.635,28 685,50 0,00 31/08/2014
508 459200 CLEIA ZILLE PEREIRA ANALISTA DO MP ATIVO BELO HORIZONTE - COMARCA; ASSESS TECNICO-JUR JUNTO AS PROC. DE JUST 6.265,58 375,93 0,00 0,00 0,00 0,00 6.641,51 730,57 799,36 0,00 1.529,93 5.111,58 1.155,50 0,00 31/08/2014
509 481800 CLEIDE CARDOSO DA SILVA ANALISTA DO MP ATIVO GOVERNADOR VALADARES - COMARCA; GOVERNADOR VALADARES-PJ-15PJ 6.265,58 375,93 0,00 0,00 0,00 0,00 6.641,51 730,57 700,52 0,00 1.431,09 5.210,42 1.155,50 0,00 31/08/2014
510 347600 CLEIDIMAR DE OLIVEIRA SILVA OFICIAL DO MP ATIVO PATOS DE MINAS - COMARCA; PATOS DE MINAS-PJ-05PJ 5.338,12 1.067,62 0,00 0,00 0,00 0,00 6.405,74 704,63 543,97 0,00 1.248,60 5.157,14 685,50 0,00 31/08/2014
511 396500 CLEIDISON BATISTA DE ANDRADE OFICIAL DO MP ATIVO RESPLENDOR - COMARCA; RESPLENDOR-PJ-UNPJ 3.676,76 413,12 0,00 0,00 0,00 0,00 4.089,88 499,87 122,60 0,00 622,47 3.467,41 685,50 0,00 31/08/2014
512 535100 CLEISON ALVES DA SILVA ANALISTA DO MP ATIVO BOA ESPERANÇA - COMARCA; BOA ESPERANCA-PJ-01PJ 5.006,87 0,00 0,00 0,00 0,00 0,00 5.006,87 550,76 318,80 0,00 869,56 4.137,31 1.155,50 0,00 31/08/2014
513 298100 CLEONICE AUGUSTA BARROS DE OLIVEIRA ANALISTA DO MP ATIVO JUIZ DE FORA - COMARCA; JUIZ DE FORA-PJ-08PJ 10.302,83 2.060,57 0,00 0,00 0,00 0,00 12.363,40 1.359,97 2.199,79 0,00 3.559,76 8.803,64 685,50 0,00 31/08/2014
514 60200 CLERES DE ALMEIDA AGENTE DO MP ATIVO BELO HORIZONTE - COMARCA; EXTINTA - DIVISAO DE TRANSPORTES 4.404,59 3.523,68 0,00 0,00 0,00 0,00 7.928,27 1.044,02 1.397,96 0,00 2.441,98 5.486,29 685,50 1.562,85 31/08/2014
515 114300 CLERES PEREIRA DA SILVA JUNIOR ASSESSOR ATIVO BELO HORIZONTE - COMARCA; GAECO - SECRETARIA 0,00 1.575,53 3.938,84 0,00 0,00 0,00 5.514,37 482,93 597,75 0,00 1.080,68 4.433,69 685,50 0,00 31/08/2014
516 264100 CLETO HENRIQUE ANDRADE SILVA ANALISTA DO MP ATIVO BELO HORIZONTE - COMARCA; DIRETORIA DE SISTEMAS DE INFORMACAO 9.977,95 1.995,59 0,00 0,00 0,00 0,00 11.973,54 1.317,09 1.956,11 0,00 3.273,20 8.700,34 685,50 0,00 31/08/2014
517 334400 CLEUBA DE OLIVEIRA BARCELOS GONCALVES OFICIAL DO MP ATIVO DIVINÓPOLIS - COMARCA; COORD REG SAUDE MACRORREGIAO SANITARIA OESTE 5.876,69 587,67 0,00 0,00 0,00 0,00 6.464,36 711,08 657,16 0,00 1.368,24 5.096,12 685,50 0,00 31/08/2014
518 347500 CLEUSA CORDEIRO DA MATA PIMENTA OFICIAL DO MP ATIVO CAMPO BELO - COMARCA; CAMPO BELO-PJ-04PJ 5.691,44 3.984,01 0,00 0,00 0,00 0,00 9.675,45 1.064,30 1.443,08 0,00 2.507,38 7.168,07 685,50 0,00 31/08/2014
519 510200 CLEZIO SALES SILVA OFICIAL DO MP ATIVO BRASÓPOLIS - COMARCA; BRASOPOLIS-PJ-UNPJ 3.250,03 0,00 0,00 0,00 0,00 0,00 3.250,03 357,50 98,85 0,00 456,35 2.793,68 685,50 0,00 31/08/2014
520 323000 CLOTILDE DE PADUA VIEIRA OFICIAL DO MP ATIVO BELO HORIZONTE - COMARCA; BH-15PJ M AMB 16PJ HAB URB-SECRETARIA 3.998,81 413,12 0,00 0,00 0,00 0,00 4.411,93 499,87 277,25 0,00 777,12 3.634,81 685,50 0,00 31/08/2014
521 285200 CLOVIS ANDRE LUDTKE OFICIAL DO MP ATIVO BELO HORIZONTE - COMARCA; DIVISAO DE MANUTENCAO PREDIAL 6.469,61 1.293,92 0,00 0,00 0,00 0,00 7.763,53 853,99 1.073,97 0,00 1.927,96 5.835,57 685,50 0,00 31/08/2014
522 381100 CONCEICAO APARECIDA TEIXEIRA ARANTES ANALISTA DO MP ATIVO BELO HORIZONTE - COMARCA; BH-23PJ INFRACIONAL-ASS JURIDICA 7.014,37 701,44 0,00 0,00 0,00 0,00 7.715,81 848,74 1.012,87 0,00 1.861,61 5.854,20 685,50 0,00 31/08/2014
523 249900 CONSTANTINO CEZAR GOMES MOTA OFICIAL DO MP ATIVO MONTES CLAROS - COMARCA; COORD REG BACIA RIOS VERDE GRANDE E PARDO 4.696,06 939,21 0,00 0,00 0,00 0,00 5.635,27 619,88 503,66 0,00 1.123,54 4.511,73 685,50 0,00 31/08/2014
524 481000 CRISHMA ANALIA LOMBELLO ANALISTA DO MP ATIVO JUIZ DE FORA - COMARCA; JUIZ DE FORA-PJ-13PJ 6.265,58 375,93 0,00 0,00 0,00 0,00 6.641,51 730,57 749,94 0,00 1.480,51 5.161,00 685,50 0,00 31/08/2014
525 187500 CRISLEY PATRICK TOSTES OFICIAL DO MP ATIVO JUIZ DE FORA - COMARCA; JUIZ DE FORA-PJ-21PJ 9.358,72 1.871,74 0,00 0,00 0,00 0,00 11.230,46 1.235,35 1.922,51 0,00 3.157,86 8.072,60 685,50 0,00 31/08/2014
526 523900 CRISTHYANE BAZOLI COSTA GUEDES OFICIAL DO MP ATIVO BELO HORIZONTE - COMARCA; BH-23PJ CIVEL-SEC EXP CIVEIS 3.250,03 0,00 0,00 0,00 0,00 0,00 3.250,03 375,89 121,17 0,00 497,06 2.752,97 685,50 167,16 31/08/2014
527 187000 CRISTIAN DAYVSON EVANGELISTA OFICIAL DO MP ATIVO JUIZ DE FORA - COMARCA; JUIZ DE FORA-PJ-09PJ 8.233,02 1.646,60 0,00 0,00 0,00 0,00 9.879,62 1.086,76 1.542,47 0,00 2.629,23 7.250,39 685,50 0,00 31/08/2014
528 319800 CRISTIANA GONCALVES DOS SANTOS GUSMAO OFICIAL DO MP ATIVO BELO HORIZONTE - COMARCA; BH-14PJ DEFESA CONSUMIDOR-SECRETARIA 5.691,44 569,14 0,00 0,00 0,00 0,00 6.260,58 688,66 706,13 0,00 1.394,79 4.865,79 685,50 0,00 31/08/2014
529 520600 CRISTIANA JANAINA BARBOZA JUVENCIO DOS SANTOS ANALISTA DO MP ATIVO BELO HORIZONTE - COMARCA; EXTINTA - JUIZO DE FAMILIA-02 PJ-02 VARA 6.068,01 0,00 0,00 0,00 0,00 0,00 6.068,01 667,48 659,00 0,00 1.326,48 4.741,53 781,02 8,76 31/08/2014
530 195600 CRISTIANA SOARES HALABI OFICIAL DO MP ATIVO UBERABA - COMARCA; UBERABA-PJ-11PJ 7.973,40 1.594,68 0,00 0,00 0,00 0,00 9.568,08 1.052,49 1.515,64 0,00 2.568,13 6.999,95 685,50 0,00 31/08/2014
531 218900 CRISTIANE ALVES BELLES OFICIAL DO MP ATIVO JUIZ DE FORA - COMARCA; JUIZ DE FORA-PJ-10PJ 4.696,06 939,21 0,00 0,00 0,00 0,00 5.635,27 619,88 404,82 0,00 1.024,70 4.610,57 685,50 0,00 31/08/2014
532 263600 CRISTIANE CARVALHO COUTINHO OFICIAL DO MP ATIVO BELO HORIZONTE - COMARCA; BH-23PJ INFRACIONAL-SEC EXP 6.469,61 1.293,92 0,00 0,00 0,00 0,00 7.763,53 853,99 1.024,55 0,00 1.878,54 5.884,99 920,50 0,00 31/08/2014
533 541000 CRISTIANE COELHO ALVES OFICIAL DO MP ATIVO ITABIRA - COMARCA; ITABIRA-PJ-01PJ 2.952,15 0,00 0,00 0,00 0,00 0,00 2.952,15 324,74 49,50 0,00 374,24 2.577,91 685,50 0,00 31/08/2014
534 441700 CRISTIANE CORRADO DE ANDRADE ANALISTA DO MP ATIVO BELO HORIZONTE - COMARCA; DIRETORIA DE SISTEMAS DE INFORMACAO 6.793,15 407,59 0,00 0,00 0,00 0,00 7.200,74 792,08 936,23 0,00 1.728,31 5.472,43 685,50 0,00 31/08/2014
535 375100 CRISTIANE DAS DORES ERCIO DE LIMA OFICIAL DO MP ATIVO GOVERNADOR VALADARES - COMARCA; COOR REG INCLUSAO MOBILIZ VALE DO RIO DOCE 4.548,03 454,80 0,00 0,00 0,00 0,00 5.002,83 550,31 398,86 0,00 949,17 4.053,66 685,50 0,00 31/08/2014
536 178800 CRISTIANE DE LIMA HOSKEN OFICIAL DO MP ATIVO BELO HORIZONTE - COMARCA; BH-14PJ DEFESA CONSUMIDOR-GAB 113PJ 8.501,02 1.700,20 0,00 0,00 0,00 0,00 10.201,22 1.208,70 1.714,95 0,00 2.923,65 7.277,57 685,50 786,96 31/08/2014
537 494000 CRISTIANE DE MELO MARQUEZ OLIVEIRA ANALISTA DO MP ATIVO UBERLÂNDIA - COMARCA; UBERLANDIA-PJ-06PJ 6.265,58 375,93 0,00 0,00 0,00 0,00 6.641,51 826,98 1.013,87 0,00 1.840,85 4.800,66 685,50 876,45 31/08/2014
538 266100 CRISTIANE DE OLIVEIRA CASTRO OFICIAL DO MP ATIVO BELO HORIZONTE - COMARCA; PROCON-MG-SECRETARIA DE FISCALIZACOES 6.578,93 2.424,11 0,00 0,00 0,00 0,00 9.003,04 868,42 1.312,03 0,00 2.180,45 6.822,59 920,50 0,00 31/08/2014
539 329500 CRISTIANE DOS REIS SILVA OFICIAL DO MP ATIVO ARAXÁ - COMARCA; ARAXA-PJ-04PJ 4.696,06 469,61 0,00 0,00 0,00 0,00 5.165,67 568,22 350,60 0,00 918,82 4.246,85 920,50 0,00 31/08/2014
540 301600 CRISTIANE GODINHO PIRES ANALISTA DO MP ATIVO BETIM - COMARCA; BETIM-PJ-07PJ 9.358,72 1.871,74 0,00 0,00 0,00 0,00 11.230,46 1.235,35 1.922,51 0,00 3.157,86 8.072,60 685,50 0,00 31/08/2014
541 406100 CRISTIANE GONCALVES CHAVES ANALISTA DO MP ATIVO BELO HORIZONTE - COMARCA; ASSESS TECNICO-JUR JUNTO AS PROC. DE JUST 7.973,40 1.594,68 0,00 0,00 0,00 0,00 9.568,08 1.052,49 1.515,64 0,00 2.568,13 6.999,95 685,50 0,00 31/08/2014
542 487600 CRISTIANE LOPES DE OLIVEIRA OFICIAL DO MP ATIVO IBIRACI - COMARCA; IBIRACI-PJ-SECRETARIA 3.694,41 221,66 0,00 0,00 0,00 0,00 3.916,07 430,77 160,81 0,00 591,58 3.324,49 685,50 0,00 31/08/2014
543 502500 CRISTIANE MACIEL DE OLIVEIRA GOMES ANALISTA DO MP ATIVO JUIZ DE FORA - COMARCA; JUIZ DE FORA-PJ-05PJ 6.068,01 364,08 0,00 0,00 0,00 0,00 6.432,09 747,58 837,21 0,00 1.584,79 4.847,30 685,50 364,08 31/08/2014
544 285500 CRISTIANE MAGALHAES LOURENCO ANALISTA DO MP ATIVO BELO HORIZONTE - COMARCA; CENTRAL DE APOIO TECNICO-SETOR CONTABIL 9.663,38 1.932,68 0,00 0,00 0,00 0,00 11.596,06 1.275,57 1.913,14 0,00 3.188,71 8.407,35 685,50 0,00 31/08/2014
545 536500 CRISTIANE MICHELE DE SOUZA ANALISTA DO MP ATIVO BARÃO DE COCAIS - COMARCA; BARAO DE COCAIS-PJ-UNPJ 5.006,87 0,00 0,00 0,00 0,00 0,00 5.006,87 550,76 359,23 0,00 909,99 4.096,88 920,50 0,00 31/08/2014
546 346600 CRISTIANE NOGUEIRA ANDRADE ANALISTA DO MP ATIVO BELO HORIZONTE - COMARCA; CENTRAL DE APOIO TECNICO-SETOR CONTABIL 9.358,72 935,87 0,00 0,00 0,00 0,00 10.294,59 1.132,40 1.693,45 0,00 2.825,85 7.468,74 1.155,50 0,00 31/08/2014
547 234000 CRISTIANE OLIVEIRA TOSTES OFICIAL DO MP ATIVO JUIZ DE FORA - COMARCA; JUIZ DE FORA-PJ-08PJ 7.973,40 1.594,68 0,00 0,00 0,00 0,00 9.568,08 1.052,49 1.515,64 0,00 2.568,13 6.999,95 685,50 0,00 31/08/2014
548 445800 CRISTIANE ORZIL COSTA OFICIAL DO MP ATIVO SANTA LUZIA - COMARCA; SANTA LUZIA-PJ-05PJ 3.694,41 221,66 0,00 0,00 0,00 0,00 3.916,07 430,77 187,77 0,00 618,54 3.297,53 685,50 0,00 31/08/2014
549 616100 CRISTIANE PAES RODRIGUES MARCICANO ANALISTA DO MP ATIVO CATAGUASES - COMARCA; CATAGUASES-PJ-05PJ 4.404,59 0,00 0,00 0,00 0,00 0,00 4.404,59 484,50 279,06 0,00 763,56 3.641,03 685,50 0,00 31/08/2014
550 612300 CRISTIANE RIBEIRO DOS REIS ARCANJO OFICIAL DO MP ATIVO BELO HORIZONTE - COMARCA; BH-17PJ PATRIMONIO PUBLICO-SECRETARIA 2.859,08 0,00 0,00 0,00 0,00 0,00 2.859,08 314,50 43,29 0,00 357,79 2.501,29 685,50 0,00 31/08/2014
551 215000 CRISTIANE RODRIGUES DE CARVALHO ASSESSOR ATIVO BELO HORIZONTE - COMARCA; BH-14PJ DEFESA CONSUMIDOR-GAB 005PJ 0,00 1.181,65 3.938,84 0,00 0,00 0,00 5.120,49 482,93 637,69 0,00 1.120,62 3.999,87 685,50 0,00 31/08/2014
552 257700 CRISTIANE RODRIGUES PAES NUNES ANALISTA DO MP ATIVO BELO HORIZONTE - COMARCA; BH-22PJ PES COM DEF E IDOSOS-ORIENTACAO PSIC 10.638,28 2.127,66 0,00 0,00 0,00 0,00 12.765,94 1.404,25 2.248,89 0,00 3.653,14 9.112,80 685,50 0,00 31/08/2014
553 510800 CRISTIANE SANTOS FERNANDES ORNELES ANALISTA DO MP ATIVO BELO HORIZONTE - COMARCA; COORD ESTADUAL DAS PJS DE HAB. E URBANISMO 6.068,01 0,00 0,00 0,00 0,00 0,00 6.068,01 667,48 609,58 0,00 1.277,06 4.790,95 685,50 0,00 31/08/2014
554 535700 CRISTIANE SANTOS MIRANDA OFICIAL DO MP ATIVO BETIM - COMARCA; BETIM-PJ-02PJ 3.250,03 0,00 0,00 0,00 0,00 0,00 3.250,03 357,50 71,89 0,00 429,39 2.820,64 685,50 0,00 31/08/2014
555 536200 CRISTIANO DE OLIVEIRA ANALISTA DO MP ATIVO CONCEIÇÃO DO MATO DENTRO - COMARCA; CONCEICAO DO MATO DENTRO-PJ-UNPJ 5.006,87 0,00 0,00 0,00 0,00 0,00 5.006,87 550,76 399,66 0,00 950,42 4.056,45 685,50 0,00 31/08/2014
556 477400 CRISTIANO SOARES ELEUTERIO ANALISTA DO MP ATIVO BELO HORIZONTE - COMARCA; BH-17PJ PATRIMONIO PUBLICO 6.265,58 375,93 0,00 0,00 0,00 0,00 6.641,51 730,57 799,36 0,00 1.529,93 5.111,58 685,50 0,00 31/08/2014
557 449400 CRISTIANO TEIXEIRA RODRIGUES LANA ANALISTA DO MP ATIVO BELO HORIZONTE - COMARCA; ASSESS TECNICO-JUR JUNTO AS PROC. DE JUST 6.793,15 407,59 0,00 0,00 0,00 0,00 7.200,74 792,08 936,23 0,00 1.728,31 5.472,43 685,50 0,00 31/08/2014
558 239400 CRISTINA DE FATIMA CRUZ E SILVA OFICIAL DO MP ATIVO MONTE SANTO DE MINAS - COMARCA; MONTE SANTO DE MINAS-PJ-SECRETARIA 6.793,15 1.358,63 0,00 0,00 0,00 0,00 8.151,78 973,55 1.340,01 0,00 2.313,56 5.838,22 685,50 698,70 31/08/2014
559 544000 CRISTINA DE OLIVEIRA TERRA ANALISTA DO MP ATIVO MATOZINHOS - COMARCA; MATOZINHOS-PJ-02PJ 4.548,03 0,00 0,00 0,00 0,00 0,00 4.548,03 500,28 307,78 0,00 808,06 3.739,97 685,50 0,00 31/08/2014
560 356800 CRISTINA DE PINHO BARROSO OFICIAL DO MP ATIVO SABINÓPOLIS - COMARCA; SABINOPOLIS-PJ-UNPJ 4.696,06 939,21 0,00 0,00 0,00 0,00 5.635,27 686,15 601,69 0,00 1.287,84 4.347,43 685,50 602,44 31/08/2014
561 449100 CRISTINA KISTEMANN CHIODI ASSESSOR ATIVO BELO HORIZONTE - COMARCA; COORD-GERAL DAS PJS POR BACIA HIDRO. DE MG 0,00 0,00 8.777,78 0,00 0,00 0,00 8.777,78 482,93 1.643,45 0,00 2.126,38 6.651,40 685,50 0,00 31/08/2014
562 348201 CRISTINA MARIA DA SILVA ANALISTA DO MP ATIVO PATOS DE MINAS - COMARCA; PATOS DE MINAS-PJ-02PJ 6.578,93 394,74 0,00 0,00 0,00 0,00 6.973,67 767,10 880,66 0,00 1.647,76 5.325,91 685,50 0,00 31/08/2014
563 434900 CRISTINA MELO DE MADUREIRA ANALISTA DO MP ATIVO BELO HORIZONTE - COMARCA; CAO-CRIMINAL-SECRETARIA 7.014,37 420,86 0,00 0,00 0,00 0,00 7.435,23 862,58 1.093,10 0,00 1.955,68 5.479,55 920,50 406,45 31/08/2014
564 117100 CRISTINA PEDROSA GARABINI COORDENADOR/ANALISTA ATIVO BELO HORIZONTE - COMARCA; DIRET DE INFORMACAO E CONHECIMENTO-DINC/CEAF 17.524,60 11.234,98 0,00 0,00 0,00 0,00 28.759,58 2.891,56 5.591,99 2.169,90 10.653,45 18.106,13 4.230,79 324,99 31/08/2014
565 307700 CRISTINA TEIXEIRA MARQUES OFICIAL DO MP ATIVO BELO HORIZONTE - COMARCA; CENTRAL DE APOIO TECNICO-SECRETARIA 5.169,86 1.033,97 0,00 0,00 0,00 0,00 6.203,83 682,42 692,24 0,00 1.374,66 4.829,17 685,50 0,00 31/08/2014
566 265300 CRISTOVAO SANCHES DE MEDEIROS ANALISTA DO MP ATIVO BELO HORIZONTE - COMARCA; BH-02PJ FAMILIA-SECRETARIA 9.663,38 1.932,68 0,00 0,00 0,00 0,00 11.596,06 1.275,57 1.913,14 0,00 3.188,71 8.407,35 685,50 0,00 31/08/2014
567 349800 CROZEIR LUIZ DA SILVA OFICIAL DO MP ATIVO UNAÍ - COMARCA; UNAI-PJ-SECRETARIA 5.338,12 533,81 0,00 0,00 0,00 0,00 5.871,93 645,91 561,59 0,00 1.207,50 4.664,43 899,26 0,00 31/08/2014
568 490500 CYNTHIA CRISTINA DE SOUZA OLIVEIRA VALENTE ANALISTA DO MP ATIVO BELO HORIZONTE - COMARCA; BH-09PJ AUDITORIA MILITAR 6.265,58 375,93 0,00 0,00 0,00 0,00 6.641,51 816,91 991,48 0,00 1.808,39 4.833,12 920,50 784,96 31/08/2014
569 389800 CYNTHIA GARIGLIO DOS SANTOS OFICIAL DO MP ATIVO PERDIZES - COMARCA; PERDIZES-PJ-SECRETARIA 4.131,19 413,12 0,00 0,00 0,00 0,00 4.544,31 499,87 226,17 0,00 726,04 3.818,27 920,50 0,00 31/08/2014
570 335101 CYNTHIA GONTIJO D ASSUNCAO ANALISTA DO MP ATIVO BELO HORIZONTE - COMARCA; PROC. JUSTICA DIR. DIFUSOS E COLETIVOS-SEC 6.265,58 375,93 0,00 0,00 0,00 0,00 6.641,51 730,57 799,36 0,00 1.529,93 5.111,58 685,50 0,00 31/08/2014
571 154000 CYNTHIA LOPES DOS SANTOS LAGES ASSESSOR ATIVO BELO HORIZONTE - COMARCA; PROCURADOR-GERAL DE JUSTICA- GABINETE 0,00 5.151,41 10.302,83 0,00 0,00 0,00 15.454,24 1.813,30 3.159,02 0,00 4.972,32 10.481,92 685,50 1.030,28 31/08/2014
572 269700 CYNTIA ROCHA CAVALCANTI OFICIAL DO MP ATIVO UBERLÂNDIA - COMARCA; UBERLANDIA-PJ-06PJ 6.578,93 1.315,79 0,00 0,00 0,00 0,00 7.894,72 1.017,29 1.437,33 0,00 2.454,62 5.440,10 685,50 1.353,40 31/08/2014
573 278000 DAIRTON LOPES MARTINS FILHO COORDENADOR/ANALISTA ATIVO BELO HORIZONTE - COMARCA; DIRETORIA DE SISTEMAS DE INFORMACAO 0,00 2.060,57 10.302,83 0,00 0,00 0,00 12.363,40 1.019,30 2.293,48 0,00 3.312,78 9.050,62 685,50 0,00 31/08/2014
574 392700 DALIANA CHAVES SILVA OFICIAL DO MP ATIVO ITAÚNA - COMARCA; ITAUNA-PJ-SECRETARIA 4.848,98 484,90 0,00 0,00 0,00 0,00 5.333,88 586,73 479,32 0,00 1.066,05 4.267,83 685,50 0,00 31/08/2014
575 558101 DALLEY TASSIA SILVA ANALISTA DO MP ATIVO MORADA NOVA DE MINAS - COMARCA; MORADA NOVA DE MINAS-PJ-UNPJ 4.404,59 0,00 0,00 0,00 0,00 0,00 4.404,59 484,50 279,06 0,00 763,56 3.641,03 685,50 0,00 31/08/2014
576 476700 DALTON DAUD ANALISTA DO MP ATIVO ARAGUARI - COMARCA; ARAGUARI-PJ-05PJ 6.265,58 375,93 0,00 0,00 0,00 0,00 6.641,51 730,57 700,52 0,00 1.431,09 5.210,42 685,50 0,00 31/08/2014
577 548700 DALVA DE SOUZA ROCHA ALMEIDA OFICIAL DO MP ATIVO IPATINGA - COMARCA; IPATINGA-PJ-02PJ 3.250,03 0,00 0,00 0,00 0,00 0,00 3.250,03 357,50 55,90 0,00 413,40 2.836,63 685,50 0,00 31/08/2014
578 426900 DANIEL ALVES DA SILVA OFICIAL DO MP ATIVO BELO HORIZONTE - COMARCA; EXTINTA - PROTOCOLO DA PGJ 3.814,70 381,47 0,00 0,00 0,00 0,00 4.196,17 461,58 171,25 0,00 632,83 3.563,34 920,50 0,00 31/08/2014
579 122000 DANIEL ANTONIO VIEIRA OFICIAL DO MP ATIVO ENTRE-RIOS DE MINAS - COMARCA; ENTRE RIOS DE MINAS-PJ-SECRETARIA 7.721,95 3.860,98 0,00 0,00 0,00 0,00 11.582,93 1.274,12 1.761,67 0,00 3.035,79 8.547,14 685,50 0,00 31/08/2014
580 272401 DANIEL AUGUSTO DOS REIS ANALISTA DO MP ATIVO BELO HORIZONTE - COMARCA; BH-22PJ PES COM DEF E IDOSOS-ASS JURIDICA 7.973,40 797,34 0,00 0,00 0,00 0,00 8.770,74 964,78 1.320,49 0,00 2.285,27 6.485,47 685,50 0,00 31/08/2014
581 536300 DANIEL BATISTA MARIANO OFICIAL DO MP ATIVO LAGOA SANTA - COMARCA; LAGOA SANTA-PJ-02PJ 3.250,03 0,00 0,00 0,00 0,00 0,00 3.250,03 357,50 98,85 0,00 456,35 2.793,68 685,50 0,00 31/08/2014
582 411000 DANIEL FERREIRA DA SILVA ANALISTA DO MP ATIVO GOVERNADOR VALADARES - COMARCA; GOVERNADOR VALADARES-PJ-15PJ 7.014,37 1.402,87 0,00 0,00 2.805,75 0,00 11.222,99 925,90 1.906,71 0,00 2.832,61 8.390,38 920,50 0,00 31/08/2014
583 309000 DANIEL GOMES DOS SANTOS ANALISTA DO MP ATIVO POÇOS DE CALDAS - COMARCA; POCOS DE CALDAS-PJ-03PJ 8.777,78 1.755,56 0,00 0,00 0,00 0,00 10.533,34 1.158,67 1.751,88 0,00 2.910,55 7.622,79 3.695,21 254,35 31/08/2014
584 554500 DANIEL GOMES PEREIRA OFICIAL DO MP ATIVO NANUQUE - COMARCA; NANUQUE-PJ-02PJ 2.952,15 0,00 0,00 0,00 0,00 0,00 2.952,15 324,74 62,98 0,00 387,72 2.564,43 685,50 0,00 31/08/2014
585 453000 DANIEL GONCALVES PEREIRA ANALISTA DO MP ATIVO UNAÍ - COMARCA; UNAI-PJ-02PJ 6.793,15 407,59 0,00 0,00 0,00 0,00 7.200,74 792,08 936,23 0,00 1.728,31 5.472,43 685,50 0,00 31/08/2014
586 495500 DANIEL GUIMARAES CABRAL OFICIAL DO MP ATIVO BELO HORIZONTE - COMARCA; BH-17PJ PATRIMONIO PUBLICO-SECRETARIA 3.355,81 201,35 0,00 0,00 0,00 0,00 3.557,16 431,28 188,39 0,00 619,67 2.937,49 685,50 363,60 31/08/2014
587 442900 DANIEL GUIMARAES GONCALVES ANALISTA DO MP ATIVO UBERLÂNDIA - COMARCA; UBERLANDIA-PJ-03PJ 6.793,15 407,59 0,00 0,00 0,00 0,00 7.200,74 792,08 936,23 0,00 1.728,31 5.472,43 685,50 0,00 31/08/2014
588 491200 DANIEL HENRIQUE SOUTO COSTA ANALISTA DO MP ATIVO CORAÇÃO DE JESUS - COMARCA; CORACAO DE JESUS-PJ-UNPJ 6.265,58 375,93 0,00 0,00 0,00 0,00 6.641,51 775,87 900,16 0,00 1.676,03 4.965,48 685,50 411,86 31/08/2014
589 464600 DANIEL PIACENTINI STIVANIN ANALISTA DO MP ATIVO ANDRADAS - COMARCA; ANDRADAS-PJ-02PJ 6.265,58 375,93 0,00 0,00 2.213,84 0,00 8.855,35 855,53 1.686,21 0,00 2.541,74 6.313,61 685,50 1.136,04 31/08/2014
590 417000 DANIEL QUEIROZ FERREIRA ANALISTA DO MP ATIVO SÃO SEBASTIÃO DO PARAÍSO - COMARCA; SAO SEBASTIAO DO PARAISO-PJ-05PJ 7.014,37 701,44 0,00 0,00 0,00 0,00 7.715,81 848,74 1.062,29 0,00 1.911,03 5.804,78 685,50 0,00 31/08/2014
591 396700 DANIEL SILVA CARNEVALLI DIRETOR/ANALISTA ATIVO BELO HORIZONTE - COMARCA; SUPERINTENDENCIA DE TECNOLOGIA DA INFORMACAO 0,00 1.335,40 13.353,95 0,00 0,00 0,00 14.689,35 964,78 2.948,11 0,00 3.912,89 10.776,46 685,50 0,00 31/08/2014
592 489300 DANIEL TABOZA ROCHA ANALISTA DO MP ATIVO IPATINGA - COMARCA; IPATINGA-PJ-08PJ 6.265,58 375,93 0,00 0,00 0,00 0,00 6.641,51 762,05 869,41 0,00 1.631,46 5.010,05 685,50 286,21 31/08/2014
593 414100 DANIEL TARDELI VALADAO ANALISTA DO MP ATIVO TRÊS CORACOES - COMARCA; TRES CORACOES-PJ-02PJ 7.014,37 701,44 0,00 0,00 2.571,94 0,00 10.287,75 848,74 1.769,58 0,00 2.618,32 7.669,43 685,50 0,00 31/08/2014
594 446600 DANIEL VIEIRA BUENO OFICIAL DO MP ATIVO RIO PIRACICABA - COMARCA; RIO PIRACICABA-PJ-UNPJ 4.000,95 240,06 0,00 0,00 0,00 0,00 4.241,01 466,51 246,30 0,00 712,81 3.528,20 685,50 0,00 31/08/2014
595 253200 DANIELA BATISTA LIMA BARBOSA ASSESSOR ATIVO BELO HORIZONTE - COMARCA; CENTRAL DE APOIO TECN-SETOR DE MEIO AMBIENTE 0,00 787,77 3.938,84 0,00 0,00 0,00 4.726,61 482,93 529,37 0,00 1.012,30 3.714,31 685,50 0,00 31/08/2014
596 505800 DANIELA BORGES DE MATTOS RESENDE ANALISTA DO MP ATIVO JUIZ DE FORA - COMARCA; JUIZ DE FORA-PJ-20PJ 6.068,01 0,00 0,00 0,00 0,00 0,00 6.068,01 667,48 659,00 0,00 1.326,48 4.741,53 920,50 0,00 31/08/2014
597 478000 DANIELA CARVALHO SOARES ANALISTA DO MP ATIVO SÃO JOÃO DEL REI - COMARCA; SAO JOAO DEL REI-PJ-06PJ 6.265,58 375,93 0,00 0,00 0,00 0,00 6.641,51 730,57 799,36 0,00 1.529,93 5.111,58 685,50 0,00 31/08/2014
598 275900 DANIELA CHAGAS SODRE ANALISTA DO MP ATIVO BELO HORIZONTE - COMARCA; CENTRAL DE APOIO TECNICO-SETOR CONTABIL 9.663,38 1.932,68 0,00 0,00 0,00 0,00 11.596,06 1.275,57 1.962,56 0,00 3.238,13 8.357,93 920,50 0,00 31/08/2014
599 234301 DANIELA CRUZ SOARES ANALISTA DO MP ATIVO BELO HORIZONTE - COMARCA; CAO-ORDEM ECONOMICA E TRIBUTARIA-SECRETARIA 9.977,95 1.995,59 0,00 0,00 0,00 0,00 11.973,54 1.317,09 2.104,37 0,00 3.421,46 8.552,08 685,50 0,00 31/08/2014
600 301000 DANIELA DE ALMEIDA E OLIVEIRA ANALISTA DO MP ATIVO BELO HORIZONTE - COMARCA; DIRETORIA DE SISTEMAS DE INFORMACAO 9.663,38 1.932,68 0,00 0,00 0,00 0,00 11.596,06 1.275,57 2.011,98 0,00 3.287,55 8.308,51 4.230,79 324,98 31/08/2014
601 296000 DANIELA DE AZEVEDO SILVA ANALISTA DO MP ATIVO ITAJUBA - COMARCA; ITAJUBA-PJ-03PJ 9.358,72 1.871,74 0,00 0,00 0,00 0,00 11.230,46 1.235,35 1.922,51 0,00 3.157,86 8.072,60 685,50 0,00 31/08/2014
602 453500 DANIELA DE CASTRO SOUSA BARBOSA ANALISTA DO MP ATIVO BELO HORIZONTE - COMARCA; BH-08PJ JUIZADO ESPECIAL-SECRETARIA 6.793,15 407,59 0,00 0,00 0,00 0,00 7.200,74 927,89 1.238,40 0,00 2.166,29 5.034,45 685,50 1.234,60 31/08/2014
603 506000 DANIELA DE OLIVEIRA CAVALIERI ANALISTA DO MP ATIVO BELO HORIZONTE - COMARCA; BH-14PJ DEFESA CONSUMIDOR-GAB 005PJ 5.006,87 0,00 0,00 0,00 0,00 0,00 5.006,87 550,76 399,66 0,00 950,42 4.056,45 685,50 0,00 31/08/2014
604 546200 DANIELA DE VILHENA LEMES GONCALVES OFICIAL DO MP ATIVO TRÊS CORACOES - COMARCA; TRES CORACOES-PJ-05PJ 2.952,15 0,00 0,00 0,00 0,00 0,00 2.952,15 324,74 36,02 0,00 360,76 2.591,39 685,50 0,00 31/08/2014
605 356400 DANIELA LEAL FERRAZ ANALISTA DO MP ATIVO MONTES CLAROS - COMARCA; COORD REG PJ DEF EDUC DIR CRIANCA ADOL NORTE 8.233,02 823,30 0,00 0,00 0,00 0,00 9.056,32 996,20 1.390,38 0,00 2.386,58 6.669,74 685,50 0,00 31/08/2014
606 501000 DANIELA LOURENCO SANTOS DA SILVA GUIMARAES ANALISTA DO MP ATIVO BELO HORIZONTE - COMARCA; BH-12PJ JUIZO CRIMINAL 6.068,01 0,00 0,00 0,00 0,00 0,00 6.068,01 667,48 659,00 0,00 1.326,48 4.741,53 685,50 0,00 31/08/2014
607 195801 DANIELA MARIA DE OLIVEIRA QUEIROZ ANALISTA DO MP ATIVO ARAGUARI - COMARCA; ARAGUARI-PJ-06PJ 7.014,37 1.402,87 0,00 0,00 0,00 0,00 8.417,24 925,90 1.233,97 0,00 2.159,87 6.257,37 685,50 0,00 31/08/2014
608 511400 DANIELA MARIA LARA DE OLIVEIRA ANALISTA DO MP ATIVO BOA ESPERANÇA - COMARCA; BOA ESPERANCA-PJ-02PJ 5.511,94 0,00 0,00 0,00 0,00 0,00 5.511,94 606,31 473,48 0,00 1.079,79 4.432,15 2.890,28 202,10 31/08/2014
609 252101 DANIELA PAULA ALVES PENA ANALISTA DO MP ATIVO CONTAGEM - COMARCA; CONTAGEM-PJ-APO TECNICO 8.233,02 2.469,91 0,00 0,00 0,00 0,00 10.702,93 1.177,32 1.793,39 0,00 2.970,71 7.732,22 685,50 0,00 31/08/2014
610 604700 DANIELA PEIXOTO NOGUEIRA OFICIAL DO MP ATIVO BELO HORIZONTE - COMARCA; DIRET DE FORMACAO, APERFEIC. E POS-GRADUACAO 3.147,52 0,00 0,00 0,00 0,00 0,00 3.147,52 346,23 85,16 0,00 431,39 2.716,13 685,50 0,00 31/08/2014
611 429600 DANIELA PIMENTA NUNES MACHADO ANALISTA DO MP ATIVO BELO HORIZONTE - COMARCA; BH-05PJ JUÍZO DE SUCESSÕES 7.014,37 701,44 0,00 0,00 0,00 0,00 7.715,81 848,74 1.062,29 0,00 1.911,03 5.804,78 685,50 0,00 31/08/2014
612 424300 DANIELA PORTO PINTO OFICIAL DO MP ATIVO BELO HORIZONTE - COMARCA; EXTINTA-DEFESA DA SAUDE-19 PJ-GABINETE 3.577,90 357,79 0,00 0,00 0,00 0,00 3.935,69 432,93 190,38 0,00 623,31 3.312,38 685,50 0,00 31/08/2014
613 462000 DANIELA SOUSA GOMES DO AMARAL ANALISTA DO MP ATIVO BETIM - COMARCA; BETIM-PJ-03PJ 6.265,58 375,93 0,00 0,00 0,00 0,00 6.641,51 730,57 799,36 0,00 1.529,93 5.111,58 920,50 0,00 31/08/2014
614 427000 DANIELA TEIXEIRA DINIZ ANDRADE ANALISTA DO MP ATIVO BELO HORIZONTE - COMARCA; DIRETORIA DE PROJETOS DE EDIFICACOES 6.421,58 646,96 0,00 0,00 0,00 0,00 7.068,54 782,82 853,00 0,00 1.635,82 5.432,72 920,50 0,00 31/08/2014
615 337200 DANIELA TOLEDO SENIUK ANALISTA DO MP ATIVO BELO HORIZONTE - COMARCA; CGMP-SECRETARIA DA CORREGEDORIA-GERAL DO MP 7.721,95 772,20 0,00 0,00 0,00 0,00 8.494,15 934,36 1.203,37 0,00 2.137,73 6.356,42 920,50 0,00 31/08/2014
616 605600 DANIELE ALZIRA SILVA CABRAL MOREIRA OFICIAL DO MP ATIVO BELO HORIZONTE - COMARCA; BH-10PJ EXECUÇÃO PENAL 3.147,52 0,00 0,00 0,00 0,00 0,00 3.147,52 346,23 85,16 0,00 431,39 2.716,13 685,50 0,00 31/08/2014
617 195500 DANIELE CHAVES FONSECA OFICIAL DO MP ATIVO BELO HORIZONTE - COMARCA; ASSESSORIA ESPECIAL DO PGJ 9.063,59 1.812,72 0,00 0,00 0,00 0,00 10.876,31 1.257,93 1.972,73 0,00 3.230,66 7.645,65 685,50 559,38 31/08/2014
618 323400 DANIELE MEGALE SANTINI OFICIAL DO MP ATIVO BELO HORIZONTE - COMARCA; ASSESS TECNICO-JUR JUNTO AS PROC. DE JUST 5.691,44 569,14 0,00 0,00 0,00 0,00 6.260,58 688,66 656,71 0,00 1.345,37 4.915,21 685,50 0,00 31/08/2014
619 357900 DANIELE REJANE PINTO VERSIEUX OFICIAL DO MP ATIVO PEDRO LEOPOLDO - COMARCA; PEDRO LEOPOLDO-PJ-03PJ 5.169,86 516,99 0,00 0,00 0,00 0,00 5.686,85 625,55 565,71 0,00 1.191,26 4.495,59 685,50 0,00 31/08/2014
620 389500 DANIELE VASCONCELOS AMORIM OFICIAL DO MP ATIVO SÃO SEBASTIÃO DO PARAÍSO - COMARCA; SAO SEBASTIAO DO PARAISO-PJ-04PJ 5.006,87 500,69 0,00 0,00 0,00 0,00 5.507,56 605,83 521,83 0,00 1.127,66 4.379,90 685,50 0,00 31/08/2014
621 265000 DANIELLE CASTANHEIRA SCALABRINI OFICIAL DO MP ATIVO BELO HORIZONTE - COMARCA; JUNTA RECURSAL DO PROCON ESTADUAL 5.876,69 1.175,34 0,00 0,00 0,00 0,00 7.052,03 802,32 810,75 0,00 1.613,07 5.438,96 685,50 241,80 31/08/2014
622 490100 DANIELLE DE AVILA SILVA LOPES ANALISTA DO MP ATIVO BELO HORIZONTE - COMARCA; PROC. JUSTICA DIR. DIFUSOS E COLETIVOS-SEC 6.265,58 1.253,12 0,00 0,00 0,00 0,00 7.518,70 879,21 1.130,10 0,00 2.009,31 5.509,39 1.113,61 513,40 31/08/2014
623 549600 DANIELLE GOMES LOPES RODRIGUES OFICIAL DO MP ATIVO ITABIRA - COMARCA; ITABIRA-PJ-03PJ 3.250,03 0,00 0,00 0,00 0,00 0,00 3.250,03 357,50 98,85 0,00 456,35 2.793,68 920,50 0,00 31/08/2014
624 613000 DANIELLE SILVA OLIVEIRA FRANKLIN OFICIAL DO MP ATIVO BELO HORIZONTE - COMARCA; DIRETORIA DE ADMINISTRACAO FINANCEIRA 3.147,52 0,00 0,00 0,00 0,00 0,00 3.147,52 346,23 85,16 0,00 431,39 2.716,13 685,50 0,00 31/08/2014
625 380800 DANILLO RIBEIRO ANTUNES ANALISTA DO MP ATIVO MONTES CLAROS - COMARCA; MONTES CLAROS-PJ-SECRETARIA 7.973,40 797,34 0,00 0,00 0,00 0,00 8.770,74 964,78 1.221,65 0,00 2.186,43 6.584,31 685,50 0,00 31/08/2014
626 453700 DANILO BOTELHO DE CARVALHO ASSESSOR/ANALISTA ATIVO BELO HORIZONTE - COMARCA; DIRETORIA DE ADMINISTRACAO FINANCEIRA 0,00 478,40 7.973,40 0,00 0,00 0,00 8.451,80 792,08 1.280,27 0,00 2.072,35 6.379,45 920,50 0,00 31/08/2014
627 391200 DANILO D'AVILA MENDES ANALISTA DO MP ATIVO SÃO ROMÃO - COMARCA; SAO ROMAO-PJ-UNPJ 7.973,40 797,34 0,00 0,00 0,00 0,00 8.770,74 964,78 1.320,49 0,00 2.285,27 6.485,47 685,50 0,00 31/08/2014
628 494900 DANILO GAVIAO AVELINO DE MELLO ANALISTA DO MP ATIVO POUSO ALEGRE - COMARCA; POUSO ALEGRE-PJ-08PJ 6.265,58 375,93 0,00 0,00 0,00 0,00 6.641,51 760,51 865,99 0,00 1.626,50 5.015,01 685,50 272,25 31/08/2014
629 604300 DANILO NASCIMENTO SALGADO ANALISTA DO MP ATIVO JANAÚBA - COMARCA; JANAUBA-PJ-01PJ 4.404,59 0,00 0,00 0,00 0,00 0,00 4.404,59 484,50 279,06 0,00 763,56 3.641,03 685,50 0,00 31/08/2014
630 600700 DANILO OLIVEIRA CARILLI OFICIAL DO MP ATIVO ARAGUARI - COMARCA; ARAGUARI-PJ-07PJ 2.859,08 0,00 0,00 0,00 0,00 0,00 2.859,08 314,50 56,76 0,00 371,26 2.487,82 685,50 0,00 31/08/2014
631 550800 DANTE MENDES BIANCHETTI FILHO ANALISTA DO MP ATIVO BARBACENA - COMARCA; BARBACENA-PJ-SECRETARIA 4.548,03 0,00 0,00 0,00 0,00 0,00 4.548,03 500,28 307,78 0,00 808,06 3.739,97 685,50 0,00 31/08/2014
632 298300 DANUZA MONICA DE SOUZA DINIZ ANALISTA DO MP ATIVO DIVINÓPOLIS - COMARCA; DIVINOPOLIS-PJ-02PJ 7.973,40 1.594,68 0,00 0,00 0,00 0,00 9.568,08 1.052,49 1.466,22 0,00 2.518,71 7.049,37 685,50 0,00 31/08/2014
633 398700 DARCY LUIZ MILEO GREGATTI OFICIAL DO MP ATIVO LAMBARI - COMARCA; LAMBARI-PJ-SECRETARIA 4.548,03 454,80 0,00 0,00 0,00 0,00 5.002,83 550,31 398,86 0,00 949,17 4.053,66 685,50 0,00 31/08/2014
634 406200 DARIANA AUGUSTA DE TOLEDO PATROCINIO ASSESSOR/OFICIAL ATIVO BELO HORIZONTE - COMARCA; EXTINTA - DIRETORIA DE CONTRATOS E CONVÊNIOS 0,00 797,34 7.973,40 0,00 0,00 0,00 8.770,74 605,83 1.419,20 0,00 2.025,03 6.745,71 685,50 0,00 31/08/2014
635 305000 DARLI LEITE DE OLIVEIRA OFICIAL DO MP ATIVO ARAÇUAÍ - COMARCA; ARACUAI-PJ-01PJ 4.696,06 939,21 0,00 0,00 0,00 0,00 5.635,27 668,59 513,20 0,00 1.181,79 4.453,48 920,50 442,80 31/08/2014
636 122200 DAVID RIBEIRO DOS SANTOS ANALISTA DO MP ATIVO BORDA DA MATA - COMARCA; BORDA DA MATA-PJ-UNPJ 14.432,31 10.102,61 0,00 0,00 0,00 0,00 24.534,92 2.907,04 5.642,01 0,00 8.549,05 15.985,87 685,50 1.892,70 31/08/2014
637 389400 DAWSON CANEDO MARQUES OFICIAL DO MP ATIVO GOVERNADOR VALADARES - COMARCA; GOVERNADOR VALADARES-PJ-03PJ 5.169,86 516,99 0,00 0,00 0,00 0,00 5.686,85 679,18 635,60 0,00 1.314,78 4.372,07 920,50 487,50 31/08/2014
638 537200 DAYANE TEIXEIRA DE OLIVEIRA ANALISTA DO MP ATIVO BONFINÓPOLIS DE MINAS - COMARCA; BONFINOPOLIS DE MINAS-PJ-UNPJ 5.006,87 0,00 0,00 0,00 0,00 0,00 5.006,87 550,76 399,66 0,00 950,42 4.056,45 685,50 0,00 31/08/2014
639 256100 DAYSE ROSALY PEREIRA BATISTA OFICIAL DO MP ATIVO BELO HORIZONTE - COMARCA; PROCON-MG-SECRETARIA DE FISCALIZACOES 5.006,87 2.109,69 0,00 0,00 0,00 0,00 7.116,56 660,91 800,89 0,00 1.461,80 5.654,76 685,50 0,00 31/08/2014
640 311901 DEBORA APARECIDA DA SILVA ASSESSOR ATIVO BELO HORIZONTE - COMARCA; BH-23PJ CIVEL-SETOR ATEND PUB 0,00 0,00 2.359,08 0,00 0,00 0,00 2.359,08 334,90 55,67 0,00 390,57 1.968,51 685,50 0,00 31/08/2014
641 194301 DEBORA APARECIDA DOS SANTOS ANALISTA DO MP ATIVO UBERLÂNDIA - COMARCA; UBERLANDIA-PJ-SEC FAMILIA 10.302,83 2.060,57 0,00 0,00 0,00 0,00 12.363,40 1.359,97 2.150,37 0,00 3.510,34 8.853,06 685,50 0,00 31/08/2014
642 518800 DEBORA CARVALHO FIORATTO OFICIAL DO MP ATIVO BELO HORIZONTE - COMARCA; EXTINTA - DIVISÃO DE APOIO À LICITAÇÃO 3.544,96 0,00 0,00 0,00 0,00 0,00 3.544,96 433,27 131,72 0,00 564,99 2.979,97 685,50 0,00 31/08/2014
643 444900 DEBORA CLAUDIA PEREIRA ALVES ANALISTA DO MP ATIVO BELO HORIZONTE - COMARCA; BH-08PJ JUIZADO ESPECIAL-SECRETARIA 6.793,15 407,59 0,00 0,00 0,00 0,00 7.200,74 792,08 886,81 0,00 1.678,89 5.521,85 920,50 0,00 31/08/2014
644 617700 DEBORA COMANDUCI SCHREIDER ANALISTA DO MP ATIVO BICAS - COMARCA; BICAS-PJ-UNPJ 4.404,59 0,00 0,00 0,00 0,00 0,00 4.404,59 484,50 279,06 0,00 763,56 3.641,03 1.155,50 0,00 31/08/2014
645 555700 DEBORA CRISTINA BUITRAGO PEREIRA ANALISTA DO MP ATIVO BELO HORIZONTE - COMARCA; EXTINTA - DIRETORIA DE CONTRATOS E CONVÊNIOS 5.006,87 0,00 0,00 0,00 0,00 0,00 5.006,87 550,76 399,66 0,00 950,42 4.056,45 685,50 0,00 31/08/2014
646 513100 DEBORA CRISTINA PEREIRA DE OLIVEIRA ANALISTA DO MP ATIVO BELO HORIZONTE - COMARCA; BH-23PJ CIVEL-SETOR JURIDICO 5.511,94 0,00 0,00 0,00 0,00 0,00 5.511,94 606,31 522,90 0,00 1.129,21 4.382,73 920,50 0,00 31/08/2014
647 612100 DEBORA DUARTE SILVA DE SOUZA OFICIAL DO MP ATIVO RIBEIRÃO DAS NEVES - COMARCA; RIBEIRAO DAS NEVES-PJ-06PJ 3.147,52 629,50 0,00 0,00 0,00 0,00 3.777,02 415,47 115,29 0,00 530,76 3.246,26 920,50 0,00 31/08/2014
648 539700 DEBORA SALES CARVALHO ANALISTA DO MP ATIVO PATOS DE MINAS - COMARCA; COORD REG PJ DEF EDU DIR CRI ADO AL PAR NOROE 4.548,03 0,00 0,00 0,00 0,00 0,00 4.548,03 500,28 307,78 0,00 808,06 3.739,97 685,50 0,00 31/08/2014
649 424100 DEBORA SANTOS E ALVES ANALISTA DO MP ATIVO JANUÁRIA - COMARCA; JANUARIA-PJ-01PJ 7.973,40 797,34 0,00 0,00 0,00 0,00 8.770,74 1.428,95 2.353,27 0,00 3.782,22 4.988,52 685,50 4.219,72 31/08/2014
650 426301 DEBORA SCUCATO MACHADO SOARES OFICIAL DO MP ATIVO NOVA LIMA - COMARCA; NOVA LIMA-PJ-01PJ 3.250,03 0,00 0,00 0,00 0,00 0,00 3.250,03 357,50 98,85 0,00 456,35 2.793,68 920,50 0,00 31/08/2014
651 550200 DEBORA TRINDADE LEITE ANALISTA DO MP ATIVO MANHUAÇU - COMARCA; MANHUACU-PJ-05PJ 5.006,87 0,00 0,00 0,00 0,00 0,00 5.006,87 599,55 409,00 0,00 1.008,55 3.998,32 685,50 443,55 31/08/2014
652 438000 DEBORAH COSTA LAGE ANALISTA DO MP ATIVO BELO HORIZONTE - COMARCA; ASSESS TECNICO-JUR JUNTO AS PROC. DE JUST 6.793,15 679,32 0,00 0,00 0,00 0,00 7.472,47 851,86 1.069,24 0,00 1.921,10 5.551,37 685,50 271,73 31/08/2014
653 475700 DEBORAH LOBAO LACERDA OFICIAL DO MP ATIVO BELO HORIZONTE - COMARCA; BH-23PJ INFRACIONAL 3.694,41 221,66 0,00 0,00 0,00 0,00 3.916,07 430,77 187,77 0,00 618,54 3.297,53 685,50 0,00 31/08/2014
654 613700 DEISER MARIA DE SOUSA FERREIRA OFICIAL DO MP ATIVO BELO HORIZONTE - COMARCA; DIRETORIA DE PAGAMENTO DE PESSOAL-DPAG 3.147,52 0,00 0,00 0,00 0,00 0,00 3.147,52 346,23 85,16 0,00 431,39 2.716,13 685,50 0,00 31/08/2014
655 551900 DEISY ROCHA DA SILVA ANALISTA DO MP ATIVO AREADO - COMARCA; AREADO-PJ-UNPJ 5.006,87 0,00 0,00 0,00 0,00 0,00 5.006,87 643,29 606,49 0,00 1.249,78 3.757,09 685,50 846,03 31/08/2014
656 501900 DELI RAQUEL RODRIGUES ANALISTA DO MP ATIVO ITUIUTABA - COMARCA; ITUIUTABA-PJ-04PJ 6.068,01 0,00 0,00 0,00 0,00 0,00 6.068,01 667,48 659,00 0,00 1.326,48 4.741,53 685,50 0,00 31/08/2014
657 378600 DELIANE LOPES VIEIRA BREIJAO NEVES ANALISTA DO MP ATIVO JUIZ DE FORA - COMARCA; JUIZ DE FORA-PJ-12PJ 7.973,40 797,34 0,00 0,00 2.923,58 0,00 11.694,32 964,78 2.124,47 0,00 3.089,25 8.605,07 685,50 0,00 31/08/2014
658 522500 DELMINDA MARIA LEAO E SILVA OFICIAL DO MP ATIVO ITAGUARA - COMARCA; ITAGUARA-PJ-UNPJ 3.250,03 2.275,02 0,00 0,00 0,00 0,00 5.525,05 607,76 427,26 0,00 1.035,02 4.490,03 685,50 0,00 31/08/2014
659 487700 DENIA FERREIRA MAIA SILVA OFICIAL DO MP ATIVO TRÊS CORACOES - COMARCA; TRES CORACOES-PJ-01PJ 3.694,41 221,66 0,00 0,00 0,00 0,00 3.916,07 430,77 160,81 0,00 591,58 3.324,49 920,50 0,00 31/08/2014
660 424800 DENIS APARECIDO CAMPOS DELFINO ANALISTA DO MP ATIVO LUZ - COMARCA; LUZ-PJ-UNPJ 7.014,37 701,44 0,00 0,00 0,00 0,00 7.715,81 848,74 864,61 0,00 1.713,35 6.002,46 920,50 0,00 31/08/2014
661 381400 DENISE ANGELICA MELLO DE PAULA OFICIAL DO MP ATIVO BELO HORIZONTE - COMARCA; BH-18PJ DIREITOS HUMANOS-SECRETARIA 5.169,86 516,99 0,00 0,00 0,00 0,00 5.686,85 625,55 565,71 0,00 1.191,26 4.495,59 685,50 0,00 31/08/2014
662 196300 DENISE DE ALMEIDA VILELA FURTADO OFICIAL DO MP ATIVO BELO HORIZONTE - COMARCA; CENTRAL DE APOIO TECNICO-SECRETARIA 6.793,15 1.358,63 0,00 0,00 0,00 0,00 8.151,78 896,70 1.119,58 0,00 2.016,28 6.135,50 685,50 0,00 31/08/2014
663 336900 DENISE DE SOUSA MORAES SILVA OFICIAL DO MP ATIVO MATEUS LEME - COMARCA; MATEUS LEME-PJ-02PJ 4.696,06 469,61 0,00 0,00 0,00 0,00 5.165,67 568,22 438,15 0,00 1.006,37 4.159,30 685,50 0,00 31/08/2014
664 271100 DENISE ELOY PEIXOTO OFICIAL DO MP ATIVO BELO HORIZONTE - COMARCA; DIRET DE DESENV DE RECURSOS HUMANOS-DDRH 6.578,93 1.315,79 0,00 0,00 0,00 0,00 7.894,72 868,42 1.106,08 0,00 1.974,50 5.920,22 685,50 0,00 31/08/2014
665 385400 DENISE FREITAS DE ASSIS OFICIAL DO MP ATIVO CARATINGA - COMARCA; CARATINGA-PJ-01PJ 4.848,98 1.593,22 0,00 0,00 0,00 0,00 6.442,20 586,73 685,26 0,00 1.271,99 5.170,21 685,50 0,00 31/08/2014
666 437100 DENISE NOGUEIRA MAGRI MENDES ANALISTA DO MP ATIVO BELO HORIZONTE - COMARCA; CAO-ORDEM ECONOMICA E TRIBUTARIA-SECRETARIA 6.793,15 1.358,63 0,00 0,00 0,00 0,00 8.151,78 896,70 1.020,74 0,00 1.917,44 6.234,34 685,50 0,00 31/08/2014
667 524700 DENISE RAMOS GUIMARAES OFICIAL DO MP ATIVO SANTA LUZIA - COMARCA; SANTA LUZIA-PJ-SECRETARIA 3.577,90 0,00 0,00 0,00 0,00 0,00 3.577,90 393,57 142,62 0,00 536,19 3.041,71 685,50 0,00 31/08/2014
668 239100 DENISE RIBEIRO DOS SANTOS CAETANO OFICIAL DO MP ATIVO ITANHANDU - COMARCA; ITANHANDU-PJ-SECRETARIA 6.793,15 1.358,63 0,00 0,00 0,00 0,00 8.151,78 973,55 1.241,17 0,00 2.214,72 5.937,06 685,50 698,70 31/08/2014
669 325500 DENISE ROSA TORRES COORDENADOR/OFICIAL ATIVO BELO HORIZONTE - COMARCA; DIRETORIA DE PESSOAL ADMINISTRATIVO - DPAD 0,00 906,36 9.063,59 0,00 0,00 0,00 9.969,95 711,08 1.720,04 0,00 2.431,12 7.538,83 685,50 0,00 31/08/2014
670 437200 DENISE VIVIANE DOS SANTOS ANALISTA DO MP ATIVO BELO HORIZONTE - COMARCA; ASSESS TECNICA DA CORREGEDORIA-GERAL DO MP 6.793,15 407,59 0,00 0,00 0,00 0,00 7.200,74 792,08 936,23 0,00 1.728,31 5.472,43 685,50 0,00 31/08/2014
671 267900 DENISIA DE ALMEIDA SALES OFICIAL DO MP ATIVO BELO HORIZONTE - COMARCA; CAO-CRIMINAL-SECRETARIA 4.696,06 939,21 0,00 0,00 0,00 0,00 5.635,27 619,88 454,24 0,00 1.074,12 4.561,15 685,50 0,00 31/08/2014
672 480300 DESIREE ARANTES FERREIRA GOUVEA OFICIAL DO MP ATIVO PRATÁPOLIS - COMARCA; PRATAPOLIS-PJ-UNPJ 3.355,81 201,35 0,00 0,00 0,00 0,00 3.557,16 391,29 139,85 0,00 531,14 3.026,02 685,50 0,00 31/08/2014
673 355300 DEYSE CRISTINA MORAIS OFICIAL DO MP ATIVO PASSOS - COMARCA; PASSOS-PJ-02PJ 5.511,94 551,19 0,00 0,00 0,00 0,00 6.063,13 666,94 657,80 0,00 1.324,74 4.738,39 685,50 0,00 31/08/2014
674 523700 DIANA CAMPOS RESENDE OFICIAL DO MP ATIVO SÃO JOÃO DEL REI - COMARCA; SAO JOAO DEL REI-PJ-04PJ 3.938,84 1.575,54 0,00 0,00 0,00 0,00 5.514,38 606,58 424,65 0,00 1.031,23 4.483,15 685,50 0,00 31/08/2014
675 241900 DIANA CARDOSO MARTINS OFICIAL DO MP ATIVO BELO HORIZONTE - COMARCA; BH-09PJ AUDITORIA MILITAR 5.691,44 1.138,29 0,00 0,00 0,00 0,00 6.829,73 751,27 845,43 0,00 1.596,70 5.233,03 685,50 0,00 31/08/2014
676 410100 DIANA GORDILHO SILVEIRA SENA ANALISTA DO MP ATIVO BELO HORIZONTE - COMARCA; ASSESS TECNICO-JUR JUNTO AS PROC. DE JUST 7.973,40 797,34 0,00 0,00 0,00 0,00 8.770,74 1.434,92 2.366,54 0,00 3.801,46 4.969,28 685,50 4.273,97 31/08/2014
677 553000 DIANA MARIA MARQUES ANALISTA DO MP ATIVO BETIM - COMARCA; BETIM-PJ-06PJ 4.548,03 0,00 0,00 0,00 0,00 0,00 4.548,03 500,28 267,35 0,00 767,63 3.780,40 685,50 0,00 31/08/2014
678 520000 DIARLE TOSTE DOS SANTOS ANALISTA DO MP ATIVO RIO POMBA - COMARCA; RIO POMBA-PJ-UNPJ 6.068,01 0,00 0,00 0,00 2.022,67 0,00 8.090,68 667,48 1.066,97 0,00 1.734,45 6.356,23 920,50 0,00 31/08/2014
679 539800 DIEGO CAMARGOS RODRIGUES OFICIAL DO MP ATIVO CONTAGEM - COMARCA; CONTAGEM-PJ-09PJ 2.952,15 0,00 0,00 0,00 0,00 0,00 2.952,15 324,74 62,98 0,00 387,72 2.564,43 685,50 0,00 31/08/2014
680 607300 DIEGO CERVEIRA DE SOUZA ANALISTA DO MP ATIVO PATOS DE MINAS - COMARCA; COORD REG BACIAS PARACATU,URUCUIA E ABAETE 4.404,59 0,00 0,00 0,00 0,00 0,00 4.404,59 484,50 279,06 0,00 763,56 3.641,03 685,50 0,00 31/08/2014
681 388100 DIEGO CESAR DO NASCIMENTO PERONI OFICIAL DO MP ATIVO CASSIA - COMARCA; CASSIA-PJ-02PJ 4.131,19 413,12 0,00 0,00 0,00 0,00 4.544,31 499,87 307,04 0,00 806,91 3.737,40 685,50 0,00 31/08/2014
682 446900 DIEGO DE FREITAS OFICIAL DO MP ATIVO UBERABA - COMARCA; UBERABA-PJ-06PJ 3.694,41 221,66 0,00 0,00 0,00 0,00 3.916,07 430,77 187,77 0,00 618,54 3.297,53 685,50 0,00 31/08/2014
683 607500 DIEGO DE SOUZA COSTA ANALISTA DO MP ATIVO POUSO ALEGRE - COMARCA; POUSO ALEGRE-PJ-09PJ 4.404,59 0,00 0,00 0,00 0,00 0,00 4.404,59 484,50 279,06 0,00 763,56 3.641,03 685,50 0,00 31/08/2014
684 379801 DIEGO OSORIO DA SILVA CORDEIRO ANALISTA DO MP ATIVO CONSELHEIRO LAFAIETE - COMARCA; CONSELHEIRO LAFAIETE-PJ-08PJ 5.006,87 0,00 0,00 0,00 0,00 0,00 5.006,87 550,76 399,66 0,00 950,42 4.056,45 2.147,08 109,62 31/08/2014
685 288800 DILENE NEPOMUCENO ALVES OFICIAL DO MP ATIVO BELO HORIZONTE - COMARCA; DIRETORIA DE PESSOAL ADMINISTRATIVO - DPAD 6.068,01 1.213,60 0,00 0,00 0,00 0,00 7.281,61 800,98 956,02 0,00 1.757,00 5.524,61 685,50 0,00 31/08/2014
686 270101 DILSON DO AMARAL ANALISTA DO MP ATIVO RIO CASCA - COMARCA; RIO CASCA-PJ-UNPJ 5.006,87 0,00 0,00 0,00 0,00 0,00 5.006,87 550,76 399,66 0,00 950,42 4.056,45 685,50 0,00 31/08/2014
687 466000 DIMITRI GUDE MARCIAL ANALISTA DO MP ATIVO NANUQUE - COMARCA; NANUQUE-PJ-02PJ 5.691,44 0,00 0,00 0,00 0,00 0,00 5.691,44 626,06 517,41 0,00 1.143,47 4.547,97 920,50 0,00 31/08/2014
688 516300 DINORA APARECIDA MACEDO BRANDAO ANALISTA DO MP ATIVO BELO HORIZONTE - COMARCA; PROC. JUSTICA DIR. DIFUSOS E COLETIVOS-SEC 5.006,87 0,00 0,00 0,00 0,00 0,00 5.006,87 550,76 399,66 0,00 950,42 4.056,45 685,50 0,00 31/08/2014
689 511700 DIOGENES HENRIQUES PEREIRA LOURENCO ANALISTA DO MP ATIVO CONTAGEM - COMARCA; CONTAGEM-PJ-22PJ 6.068,01 0,00 0,00 0,00 0,00 0,00 6.068,01 667,48 659,00 0,00 1.326,48 4.741,53 685,50 0,00 31/08/2014
690 604100 DIOGO CESAR DE OLIVEIRA HONORIO ASSESSOR ATIVO PIUMHI - COMARCA; PIUMHI-PJ-02PJ 0,00 0,00 2.359,08 0,00 0,00 0,00 2.359,08 334,90 71,42 0,00 406,32 1.952,76 685,50 0,00 31/08/2014
691 387800 DIOGO FELIX DA SILVA OFICIAL DO MP ATIVO CONSELHEIRO PENA - COMARCA; CONSELHEIRO PENA-PJ-01PJ 4.131,19 413,12 0,00 0,00 0,00 0,00 4.544,31 499,87 307,04 0,00 806,91 3.737,40 685,50 0,00 31/08/2014
692 259600 DIOGO MESQUITA MAIA ANALISTA DO MP ATIVO BELO HORIZONTE - COMARCA; DIRET DE APOIO AS PROCURADORIAS DE JUSTICA 9.663,38 6.764,36 0,00 0,00 0,00 0,00 16.427,74 1.807,05 3.046,28 0,00 4.853,33 11.574,41 4.465,79 324,98 31/08/2014
693 364100 DIOGO OLIVEIRA CANUTO OFICIAL DO MP ATIVO BELO HORIZONTE - COMARCA; EXTINTA-04ª PJ JUÍZO REG PÚBLICOS-SECRETARIA 5.511,94 551,19 0,00 0,00 0,00 0,00 6.063,13 666,94 657,80 0,00 1.324,74 4.738,39 685,50 0,00 31/08/2014
694 386700 DIRCIMAR FERNANDES CARNEIRO OFICIAL DO MP ATIVO VISCONDE DO RIO BRANCO - COMARCA; VISCONDE DO RIO BRANCO-PJ-03PJ 5.006,87 2.503,44 0,00 0,00 0,00 0,00 7.510,31 896,95 1.169,57 0,00 2.066,52 5.443,79 756,32 643,80 31/08/2014
695 113800 DIRSON APARECIDO GUIMARAES ASSESSOR ATIVO BELO HORIZONTE - COMARCA; DIVISAO DE MANUTENCAO PREDIAL 0,00 3.151,07 3.938,84 0,00 2.363,30 0,00 9.453,21 482,93 1.205,36 0,00 1.688,29 7.764,92 685,50 0,00 31/08/2014
696 216700 DOMICIO VALDETE PEREIRA OFICIAL DO MP ATIVO TEÓFILO OTONI - COMARCA; COORD REG PJ DEF EDU DIR CRIAN ADOL JEQUI MUC 8.233,02 1.646,60 0,00 0,00 0,00 0,00 9.879,62 1.273,05 1.858,14 0,00 3.131,19 6.748,43 685,50 1.693,60 31/08/2014
697 85700 DONIZETTE PEREIRA DOS SANTOS OFICIAL DO MP ATIVO BELO HORIZONTE - COMARCA; EXTINTA - PROTOCOLO DA PGJ 13.556,26 11.350,66 0,00 0,00 0,00 0,00 24.906,92 2.924,86 4.851,62 976,21 8.752,69 16.154,23 4.230,79 324,99 31/08/2014
698 192701 DONIZETTI APARECIDO AMORIM ANALISTA DO MP ATIVO PRATÁPOLIS - COMARCA; PRATAPOLIS-PJ-UNPJ 5.169,86 1.033,97 0,00 0,00 0,00 0,00 6.203,83 682,42 642,82 0,00 1.325,24 4.878,59 685,50 0,00 31/08/2014
699 276700 DORALICE ROSA DE OLIVEIRA FREITAS OFICIAL DO MP ATIVO CARMO DA MATA - COMARCA; CARMO DA MATA-PJ-SECRETARIA 4.696,06 3.756,85 0,00 0,00 0,00 929,82 9.382,73 929,82 1.498,40 0,00 2.428,22 6.954,51 685,50 0,00 31/08/2014
700 558700 DORCILIA FATIMA DE OLIVEIRA OFICIAL DO MP ATIVO DIVINÓPOLIS - COMARCA; DIVINOPOLIS-PJ-02PJ 3.147,52 0,00 0,00 0,00 0,00 0,00 3.147,52 346,23 49,06 0,00 395,29 2.752,23 920,50 0,00 31/08/2014
701 555300 DOUGLAS CUNHA DE SOUZA ANALISTA DO MP ATIVO VARZEA DA PALMA - COMARCA; VARZEA DA PALMA-PJ-01PJ 5.006,87 0,00 0,00 0,00 0,00 0,00 5.006,87 580,28 464,98 0,00 1.045,26 3.961,61 685,50 268,41 31/08/2014
702 265900 DOUGLAS GOMES MOREIRA ANALISTA DO MP ATIVO BELO HORIZONTE - COMARCA; CENTRAL DE APOIO TECNICO-SETOR DE ENGENHARIA 10.638,28 2.127,66 0,00 0,00 0,00 0,00 12.765,94 1.404,25 2.298,31 0,00 3.702,56 9.063,38 685,50 0,00 31/08/2014
703 241000 DOUGLAS MEIRELLES DE CASTRO OFICIAL DO MP ATIVO CONCEIÇÃO DO RIO VERDE - COMARCA; CONCEICAO DO RIO VERDE-PJ-UNPJ 6.578,93 1.973,68 0,00 0,00 0,00 0,00 8.552,61 940,79 1.168,26 0,00 2.109,05 6.443,56 920,50 0,00 31/08/2014
704 534900 DOUGLAS SILVA E SOUZA ANALISTA DO MP ATIVO CAMPOS GERAIS - COMARCA; CAMPOS GERAIS-PJ-SECRETARIA 5.006,87 0,00 0,00 0,00 0,00 0,00 5.006,87 597,97 454,91 0,00 1.052,88 3.953,99 2.147,08 538,82 31/08/2014
705 615600 DOUGLAS URIEL SOARES MOREIRA SILVA ANALISTA DO MP ATIVO IPATINGA - COMARCA; IPATINGA-PJ-02PJ 4.404,59 0,00 0,00 0,00 0,00 0,00 4.404,59 484,50 279,06 0,00 763,56 3.641,03 685,50 0,00 31/08/2014
706 146800 DUCINALVA AMARAL LOPES REIS OFICIAL DO MP ATIVO PARAISÓPOLIS - COMARCA; PARAISOPOLIS-PJ-UNPJ 10.302,83 5.151,42 0,00 0,00 0,00 0,00 15.454,25 1.699,97 2.758,60 0,00 4.458,57 10.995,68 920,50 0,00 31/08/2014
707 122500 DUILIO CARLOS FERREIRA UTSCH OFICIAL DO MP ATIVO CONCEIÇÃO DO MATO DENTRO - COMARCA; CONCEICAO DO MATO DENTRO-PJ-UNPJ 8.233,02 5.763,12 0,00 0,00 4.665,38 0,00 18.661,52 1.539,58 3.882,38 0,00 5.421,96 13.239,56 685,50 0,00 31/08/2014
708 201800 DULCINEIA ANDRE DE SOUZA OFICIAL DO MP ATIVO JEQUITINHONHA - COMARCA; JEQUITINHONHA-PJ-SECRETARIA 8.233,02 1.646,60 0,00 0,00 0,00 0,00 9.879,62 1.086,76 1.394,21 0,00 2.480,97 7.398,65 685,50 0,00 31/08/2014
709 395800 DUVIDIER MEDIRCIO JUNIOR ANALISTA DO MP ATIVO BELO HORIZONTE - COMARCA; CENTRAL DE APOIO TECNICO-SETOR DE ENGENHARIA 7.973,40 797,34 0,00 0,00 0,00 0,00 8.770,74 1.428,95 2.353,27 0,00 3.782,22 4.988,52 685,50 4.219,72 31/08/2014
710 604800 ECIA RAMILIS ISSA DE ABREU ANALISTA DO MP ATIVO MONTALVÂNIA - COMARCA; MONTALVANIA-PJ-UNPJ 4.404,59 0,00 0,00 0,00 0,00 0,00 4.404,59 484,50 279,06 0,00 763,56 3.641,03 685,50 0,00 31/08/2014
711 273000 EDELFINA APARECIDA GUIMARAES OFICIAL DO MP ATIVO BELO HORIZONTE - COMARCA; PROMOT ESTADUAL DE DEF PATRI CULT E TUR DE MG 5.876,69 2.350,68 0,00 0,00 0,00 0,00 8.227,37 905,01 1.088,66 0,00 1.993,67 6.233,70 685,50 0,00 31/08/2014
712 523300 EDER DOS SANTOS PATRICIO ANALISTA DO MP ATIVO NOVA SERRANA - COMARCA; NOVA SERRANA-PJ-03PJ 6.068,01 0,00 0,00 0,00 0,00 0,00 6.068,01 667,48 659,00 0,00 1.326,48 4.741,53 685,50 0,00 31/08/2014
713 356700 EDER JOSE PACHECO OFICIAL DO MP ATIVO CAMPO BELO - COMARCA; CAMPO BELO-PJ-SECRETARIA 5.691,44 569,14 0,00 0,00 0,00 0,00 6.260,58 688,66 706,13 0,00 1.394,79 4.865,79 770,36 0,00 31/08/2014
714 507900 EDERSON SILVA LOPES OFICIAL DO MP ATIVO BELO HORIZONTE - COMARCA; SERVICO MEDICO-DEPTO PERIC MEDICA SAUDE OCUP 3.250,03 0,00 0,00 0,00 0,00 0,00 3.250,03 357,50 55,90 0,00 413,40 2.836,63 920,50 0,00 31/08/2014
715 296200 EDGARD GOULART MATOSINHO DE LAET JUNIOR ANALISTA DO MP ATIVO GOVERNADOR VALADARES - COMARCA; GOVERNADOR VALADARES-PJ-12PJ 9.663,38 1.932,68 0,00 0,00 0,00 0,00 11.596,06 1.275,57 1.863,72 0,00 3.139,29 8.456,77 685,50 0,00 31/08/2014
716 295000 EDILA MARIA DA SILVEIRA OFICIAL DO MP ATIVO FORMIGA - COMARCA; FORMIGA-PJ-SECRETARIA 5.006,87 1.001,37 0,00 0,00 0,00 0,00 6.008,24 660,91 644,37 0,00 1.305,28 4.702,96 685,50 0,00 31/08/2014
717 332300 EDILA MARILAC MIRANDA PRADO OFICIAL DO MP ATIVO DIAMANTINA - COMARCA; COORD REG BACIAS RIOS JEQUITINHONHA E MUCURI 5.169,86 2.067,94 0,00 0,00 0,00 0,00 7.237,80 796,16 846,46 0,00 1.642,62 5.595,18 685,50 0,00 31/08/2014
718 376600 EDILANE CONSOLACAO ROSA NAZARETH ANALISTA DO MP ATIVO BETIM - COMARCA; BETIM-PJ-10PJ 7.973,40 797,34 0,00 0,00 0,00 0,00 8.770,74 964,78 1.320,49 0,00 2.285,27 6.485,47 685,50 0,00 31/08/2014
719 301500 EDILENE APARECIDA DE CARVALHO ANALISTA DO MP ATIVO BELO HORIZONTE - COMARCA; DIRETORIA DE ADMINISTRACAO FINANCEIRA 9.663,38 1.932,68 0,00 0,00 0,00 0,00 11.596,06 1.275,57 1.962,56 0,00 3.238,13 8.357,93 685,50 0,00 31/08/2014
720 309800 EDILZA DOS REIS OFICIAL DO MP ATIVO UBERLÂNDIA - COMARCA; UBERLANDIA-PJ-03PJ 6.265,58 1.253,12 0,00 0,00 0,00 0,00 7.518,70 827,06 964,63 0,00 1.791,69 5.727,01 685,50 0,00 31/08/2014
721 200500 EDINEIA MARIA DE OLIVEIRA ANTUNES OFICIAL DO MP ATIVO MONTES CLAROS - COMARCA; MONTES CLAROS-PJ-10PJ 8.501,02 2.550,31 0,00 0,00 0,00 0,00 11.051,33 1.215,65 1.878,66 0,00 3.094,31 7.957,02 920,50 0,00 31/08/2014
722 427700 EDISANGELA SOARES LOPES OFICIAL DO MP ATIVO PIRAPORA - COMARCA; PIRAPORA-PJ-02PJ 4.131,19 413,12 0,00 0,00 0,00 0,00 4.544,31 499,87 307,04 0,00 806,91 3.737,40 685,50 0,00 31/08/2014
723 555400 EDISON MONTEIRO SAMPAIO NETO ANALISTA DO MP ATIVO BELO HORIZONTE - COMARCA; BH-12PJ JUIZO CRIMINAL-GAB 085PJ 4.548,03 0,00 0,00 0,00 0,00 0,00 4.548,03 500,28 307,78 0,00 808,06 3.739,97 685,50 0,00 31/08/2014
724 517700 EDMILSON TADEU FERNANDES OFICIAL DO MP ATIVO POUSO ALEGRE - COMARCA; POUSO ALEGRE-PJ-SECRETARIA 3.938,84 0,00 0,00 0,00 0,00 0,00 3.938,84 433,27 190,81 0,00 624,08 3.314,76 685,50 0,00 31/08/2014
725 358400 EDNA APARECIDA SILVA FERREIRA OFICIAL DO MP ATIVO CORONEL FABRICIANO - COMARCA; CORONEL FABRICIANO-PJ-SECRETARIA 5.169,86 516,99 0,00 0,00 0,00 0,00 5.686,85 625,55 565,71 0,00 1.191,26 4.495,59 685,50 0,00 31/08/2014
726 331800 EDNA MARCIA CAMILO DA SILVA OFICIAL DO MP ATIVO SETE LAGOAS - COMARCA; SETE LAGOAS-PJ-07PJ 5.230,25 587,67 0,00 0,00 0,00 0,00 5.817,92 711,08 578,23 0,00 1.289,31 4.528,61 685,50 0,00 31/08/2014
727 422800 EDNILSON DE SOUZA FERREIRA ASSESSOR ATIVO BELO HORIZONTE - COMARCA; DIRET DE INFORMACAO E EXPEDICAO DE PROCESSOS 0,00 0,00 2.359,08 0,00 0,00 0,00 2.359,08 334,90 42,19 0,00 377,09 1.981,99 685,50 0,00 31/08/2014
728 327900 EDRIEL SANTANA PEREIRA OFICIAL DO MP ATIVO TUPACIGUARA - COMARCA; TUPACIGUARA-PJ-UNPJ 5.876,69 587,67 0,00 0,00 0,00 0,00 6.464,36 711,08 756,00 0,00 1.467,08 4.997,28 685,50 0,00 31/08/2014
729 482400 EDSON GARCIA OFICIAL DO MP ATIVO MACHADO - COMARCA; MACHADO-PJ-02PJ 3.355,81 201,35 0,00 0,00 0,00 0,00 3.557,16 391,29 85,94 0,00 477,23 3.079,93 727,74 0,00 31/08/2014
730 225601 EDSON LABRE FILHO ANALISTA DO MP ATIVO VARGINHA - COMARCA; VARGINHA-PJ-01PJ 9.663,38 1.932,68 0,00 0,00 0,00 0,00 11.596,06 1.275,57 1.962,56 0,00 3.238,13 8.357,93 685,50 0,00 31/08/2014
731 602700 EDSON NOGUEIRA BUENO OFICIAL DO MP ATIVO PITANGUI - COMARCA; PITANGUI-PJ-02PJ 2.859,08 0,00 0,00 0,00 0,00 0,00 2.859,08 314,50 56,76 0,00 371,26 2.487,82 685,50 0,00 31/08/2014
732 414400 EDUARDO ABRANTES CAMPOS ANALISTA DO MP ATIVO OLIVEIRA - COMARCA; OLIVEIRA-PJ-02PJ 7.973,40 797,34 0,00 0,00 0,00 0,00 8.770,74 1.428,95 2.353,27 0,00 3.782,22 4.988,52 685,50 4.219,72 31/08/2014
733 476800 EDUARDO ALVES DE MOURA ANALISTA DO MP ATIVO UBERLÂNDIA - COMARCA; UBERLANDIA-PJ-19PJ 6.265,58 375,93 0,00 0,00 0,00 0,00 6.641,51 730,57 700,52 0,00 1.431,09 5.210,42 685,50 0,00 31/08/2014
734 390800 EDUARDO AMORIM PETTERSEN OFICIAL DO MP ATIVO CARANGOLA - COMARCA; CARANGOLA-PJ-03PJ 4.848,98 484,90 0,00 0,00 0,00 0,00 5.333,88 586,73 479,32 0,00 1.066,05 4.267,83 685,50 0,00 31/08/2014
735 461600 EDUARDO ANTONIO DE ASSIS FARIA ASSESSOR ATIVO BELO HORIZONTE - COMARCA; ASSESS EXECUTIVA DO CONSELHO SUPERIOR DO MP 0,00 0,00 3.938,84 0,00 0,00 0,00 3.938,84 482,93 288,42 0,00 771,35 3.167,49 685,50 0,00 31/08/2014
736 248800 EDUARDO DE CASTRO AMORIM ANALISTA DO MP ATIVO BELO HORIZONTE - COMARCA; BH-01PJ FAZENDA PUBLICA EXEC FISCAIS 10.984,62 2.196,92 0,00 0,00 0,00 0,00 13.181,54 1.449,97 2.400,03 0,00 3.850,00 9.331,54 685,50 0,00 31/08/2014
737 209100 EDUARDO DE SOUZA MAIA ANALISTA DO MP ATIVO BELO HORIZONTE - COMARCA; CAO-TS-TERCEIRO SETOR-ASSESSORIA JURIDICA 11.885,64 2.377,13 0,00 0,00 0,00 0,00 14.262,77 1.568,90 2.516,40 0,00 4.085,30 10.177,47 0,00 0,00 31/08/2014
738 350500 EDUARDO GONCALVES RIBEIRO OFICIAL DO MP ATIVO VESPASIANO - COMARCA; VESPASIANO-PJ-04PJ 4.696,06 469,61 0,00 0,00 0,00 0,00 5.165,67 568,22 438,15 0,00 1.006,37 4.159,30 685,50 0,00 31/08/2014
739 115800 EDUARDO HENRIQUE DE CAMPOS MAIA OFICIAL DO MP ATIVO BELO HORIZONTE - COMARCA; EXTINTA - DIVISAO DE SERVICOS GERAIS 9.358,72 3.743,49 0,00 0,00 0,00 0,00 13.102,21 1.441,24 2.281,78 0,00 3.723,02 9.379,19 685,50 0,00 31/08/2014
740 392600 EDUARDO HENRIQUE DOS SANTOS COSTA ELIAZAR OFICIAL DO MP ATIVO MATOZINHOS - COMARCA; MATOZINHOS-PJ-02PJ 4.848,98 484,90 0,00 0,00 0,00 0,00 5.333,88 732,39 704,57 0,00 1.436,96 3.896,92 993,33 1.329,66 31/08/2014
741 122900 EDUARDO JOSE COSTA SILVA OFICIAL DO MP ATIVO SETE LAGOAS - COMARCA; SETE LAGOAS-PJ-04PJ 12.356,19 8.649,34 0,00 0,00 0,00 0,00 21.005,53 2.310,61 4.265,53 0,00 6.576,14 14.429,39 685,50 0,00 31/08/2014
742 418700 EDUARDO LEMOS SIMOES OFICIAL DO MP ATIVO LAVRAS - COMARCA; COORD REG DO MA DA BACIA DO RIO GRANDE 4.548,03 454,80 0,00 0,00 0,00 0,00 5.002,83 550,31 398,86 0,00 949,17 4.053,66 685,50 0,00 31/08/2014
743 407500 EDUARDO MASCARENHAS CURI AZEVEDO ANALISTA DO MP ATIVO BELO HORIZONTE - COMARCA; DIRETORIA DE IMPRENSA 6.469,61 646,96 0,00 0,00 0,00 0,00 7.116,57 782,82 1.108,89 0,00 1.891,71 5.224,86 685,50 702,76 31/08/2014
744 601300 EDUARDO TRAD VIEIRA OFICIAL DO MP ATIVO RIBEIRÃO DAS NEVES - COMARCA; RIBEIRAO DAS NEVES-PJ-01PJ 2.859,08 0,00 0,00 0,00 0,00 0,00 2.859,08 314,50 56,76 0,00 371,26 2.487,82 920,50 0,00 31/08/2014
745 257600 EDUARDO VALADARES CABRAL ANALISTA DO MP ATIVO BELO HORIZONTE - COMARCA; PROCON-MG-GAB DO COORDENADOR DO PROCON-MG 8.233,02 1.646,60 0,00 0,00 0,00 0,00 9.879,62 1.086,76 1.591,89 0,00 2.678,65 7.200,97 685,50 0,00 31/08/2014
746 545700 EDVAIR FERREIRA DE CARVALHO OFICIAL DO MP ATIVO ARAGUARI - COMARCA; ARAGUARI-PJ-02PJ 2.952,15 0,00 0,00 0,00 0,00 0,00 2.952,15 324,74 22,54 0,00 347,28 2.604,87 685,50 0,00 31/08/2014
747 401700 EDWANIA AMORIM DO CARMO OFICIAL DO MP ATIVO RIBEIRÃO DAS NEVES - COMARCA; RIBEIRAO DAS NEVES-PJ-03PJ 5.006,87 500,69 0,00 0,00 0,00 0,00 5.507,56 605,83 521,83 0,00 1.127,66 4.379,90 685,50 0,00 31/08/2014
748 303600 EFIGENIO SARAIVA LOPES ANALISTA DO MP ATIVO BELO HORIZONTE - COMARCA; DIRETORIA DE PAGAMENTO DE PESSOAL-DPAG 10.638,28 2.127,66 0,00 0,00 0,00 0,00 12.765,94 1.404,25 2.199,47 0,00 3.603,72 9.162,22 4.230,79 324,98 31/08/2014
749 312000 ELAINE APARECIDA DE ARAUJO RODRIGUES ASSESSOR/OFICIAL ATIVO DIVINÓPOLIS - COMARCA; DIVINOPOLIS-PJ-02PJ 0,00 4.385,91 6.265,58 0,00 0,00 0,00 10.651,49 1.064,30 1.760,91 0,00 2.825,21 7.826,28 685,50 0,00 31/08/2014
750 286000 ELAINE APARECIDA SILVA BERZOINI OFICIAL DO MP ATIVO JUIZ DE FORA - COMARCA; JUIZ DE FORA-PJ-07PJ 6.068,01 1.213,60 0,00 0,00 0,00 0,00 7.281,61 800,98 956,02 0,00 1.757,00 5.524,61 685,50 0,00 31/08/2014
751 509000 ELAINE CANDIDA PONTES OFICIAL DO MP ATIVO BELO HORIZONTE - COMARCA; BH-02PJ FAMILIA-SECRETARIA 3.577,90 0,00 0,00 0,00 0,00 0,00 3.577,90 393,57 1.004,97 0,00 1.398,54 2.179,36 685,50 3.474,27 31/08/2014
752 283601 ELAINE CRISTINA MEQUELINO DUARTE ANALISTA DO MP ATIVO ALFENAS - COMARCA; ALFENAS-PJ-04PJ 7.973,40 797,34 0,00 0,00 0,00 0,00 8.770,74 964,78 1.221,65 0,00 2.186,43 6.584,31 1.155,50 0,00 31/08/2014
753 535500 ELAINE DE OLIVEIRA CAMPOS REIS OFICIAL DO MP ATIVO RIBEIRÃO DAS NEVES - COMARCA; RIBEIRAO DAS NEVES-PJ-11PJ 2.952,15 0,00 0,00 0,00 0,00 0,00 2.952,15 324,74 62,98 0,00 387,72 2.564,43 685,50 0,00 31/08/2014
754 455700 ELAINE DE OLIVEIRA CASTRO ANALISTA DO MP ATIVO POMPÉU - COMARCA; POMPEU-PJ-UNPJ 5.691,44 341,49 0,00 0,00 0,00 0,00 6.032,93 663,62 650,41 0,00 1.314,03 4.718,90 685,50 0,00 31/08/2014
755 367200 ELAINE MUNIZ BARBOSA ANALISTA DO MP ATIVO BELO HORIZONTE - COMARCA; DIRETORIA DE REDES E BANCOS DE DADOS 8.501,02 850,10 0,00 0,00 0,00 0,00 9.351,12 1.028,62 1.462,54 0,00 2.491,16 6.859,96 685,50 0,00 31/08/2014
756 176900 ELAINE RIBEIRO TAVEIRA OFICIAL DO MP ATIVO BELO HORIZONTE - COMARCA; DIRETORIA DE PESSOAL ADMINISTRATIVO - DPAD 7.478,49 2.243,55 0,00 0,00 0,00 0,00 9.722,04 1.069,42 1.553,32 0,00 2.622,74 7.099,30 685,50 0,00 31/08/2014
757 496200 ELAINE SABRINA DIAS MOREIRA ANALISTA DO MP ATIVO CORONEL FABRICIANO - COMARCA; CORONEL FABRICIANO-PJ-03PJ 6.068,01 364,08 0,00 0,00 0,00 0,00 6.432,09 747,58 837,21 0,00 1.584,79 4.847,30 685,50 364,08 31/08/2014
758 489200 ELAINE VICENTINO GARCIA ANALISTA DO MP ATIVO BELO HORIZONTE - COMARCA; CENTRAL DE APOIO TECNICO-SETOR CONTABIL 6.265,58 1.253,12 0,00 0,00 0,00 0,00 7.518,70 827,06 915,21 0,00 1.742,27 5.776,43 1.155,50 0,00 31/08/2014
759 244500 ELCI ALVES DE SOUZA ASSESSOR ATIVO BELO HORIZONTE - COMARCA; CAO-CONFLITOS AGRARIOS-SECRETARIA 0,00 787,77 3.938,84 0,00 0,00 0,00 4.726,61 482,93 479,95 0,00 962,88 3.763,73 685,50 0,00 31/08/2014
760 472500 ELCI VAZ DE OLIVEIRA FILHO ANALISTA DO MP ATIVO PIUMHI - COMARCA; PIUMHI-PJ-02PJ 6.265,58 2.506,23 0,00 0,00 0,00 0,00 8.771,81 964,90 1.320,75 0,00 2.285,65 6.486,16 685,50 0,00 31/08/2014
761 385200 ELCI VIANA REIS OFICIAL DO MP ATIVO RIO PARDO DE MINAS - COMARCA; RIO PARDO DE MINAS-PJ-SECRETARIA 5.169,86 1.550,96 0,00 0,00 0,00 0,00 6.720,82 739,29 818,77 0,00 1.558,06 5.162,76 685,50 0,00 31/08/2014
762 289801 ELCIO JOSE DOS SANTOS ASSESSOR/ANALISTA ATIVO BELO HORIZONTE - COMARCA; EXTINTA - DIVISAO DE SERVICOS GERAIS 0,00 526,67 8.777,78 0,00 0,00 0,00 9.304,45 792,08 1.514,75 0,00 2.306,83 6.997,62 685,50 0,00 31/08/2014
763 123000 ELCIO VILHENA DE FARIA OFICIAL DO MP ATIVO BELO HORIZONTE - COMARCA; DIVISAO DE MEMORIA INSTITUCIONAL 12.356,19 9.884,96 0,00 0,00 0,00 2.446,53 24.687,68 2.446,53 5.290,17 0,00 7.736,70 16.950,98 685,50 0,00 31/08/2014
764 503200 ELDER GOMES DUTRA ANALISTA DO MP ATIVO IGARAPÉ - COMARCA; IGARAPE-PJ-03PJ 6.068,01 0,00 0,00 0,00 0,00 0,00 6.068,01 667,48 659,00 0,00 1.326,48 4.741,53 685,50 0,00 31/08/2014
765 319600 ELEN TULER DE ALBERGARIA ANALISTA DO MP ATIVO BELO HORIZONTE - COMARCA; BH-19PJ SAUDE 7.721,95 2.316,59 0,00 0,00 0,00 0,00 10.038,54 1.104,24 1.630,78 0,00 2.735,02 7.303,52 1.155,50 0,00 31/08/2014
766 333100 ELENILDA ROCHA DE MORAES MELO OFICIAL DO MP ATIVO MAR DE ESPANHA - COMARCA; MAR DE ESPANHA-PJ-SECRETARIA 4.696,06 469,61 0,00 0,00 0,00 0,00 5.165,67 568,22 391,03 0,00 959,25 4.206,42 685,50 0,00 31/08/2014
767 151000 ELI LOURENCO RIBEIRO AGENTE DO MP ATIVO BELO HORIZONTE - COMARCA; BH-17PJ PATRIMONIO PUBLICO-SECRETARIA 7.014,37 2.805,75 0,00 0,00 0,00 0,00 9.820,12 1.080,21 1.131,25 0,00 2.211,46 7.608,66 685,50 0,00 31/08/2014
768 205500 ELIANA ALVES DE SOUSA OFICIAL DO MP ATIVO GOVERNADOR VALADARES - COMARCA; GOVERNADOR VALADARES-PJ-07PJ 5.876,69 1.175,34 0,00 0,00 0,00 0,00 7.052,03 775,72 899,84 0,00 1.675,56 5.376,47 685,50 0,00 31/08/2014
769 301700 ELIANA DA SILVEIRA ANALISTA DO MP ATIVO BELO HORIZONTE - COMARCA; ASSESS TECNICO-JUR JUNTO AS PROC. DE JUST 8.501,02 1.700,20 0,00 0,00 0,00 0,00 10.201,22 1.122,13 1.621,18 0,00 2.743,31 7.457,91 685,50 0,00 31/08/2014
770 103400 ELIANA DE FARIA MORAIS JOTTA OFICIAL DO MP ATIVO BELO HORIZONTE - COMARCA; DIRET DE PESSOAL DO MINISTERIO PUBLICO - DPMP 18.939,65 7.575,87 0,00 0,00 0,00 0,00 26.515,52 2.916,71 5.515,26 0,00 8.431,97 18.083,55 2.383,99 155,69 31/08/2014
771 251500 ELIANA DE LIMA MILAGRES FONSECA ANALISTA DO MP ATIVO CONTAGEM - COMARCA; CONTAGEM-PJ-06PJ 9.063,59 1.812,72 0,00 0,00 0,00 0,00 10.876,31 1.196,39 1.736,99 0,00 2.933,38 7.942,93 685,50 0,00 31/08/2014
772 503900 ELIANA DIAS DUTRA FERREIRA OFICIAL DO MP ATIVO GOVERNADOR VALADARES - COMARCA; GOVERNADOR VALADARES-PJ-10PJ 3.938,84 0,00 0,00 0,00 0,00 0,00 3.938,84 433,27 136,89 0,00 570,16 3.368,68 920,50 0,00 31/08/2014
773 413900 ELIANA PINTO DE OLIVEIRA NEVES ANALISTA DO MP ATIVO CAMPO BELO - COMARCA; CAMPO BELO-PJ-03PJ 7.014,37 701,44 0,00 0,00 0,00 0,00 7.715,81 848,74 1.062,29 0,00 1.911,03 5.804,78 685,50 0,00 31/08/2014
774 228200 ELIANA RODRIGUES DA CUNHA PINHEIRO DIRETOR/OFICIAL ATIVO BELO HORIZONTE - COMARCA; SUPERINTENDÊNCIA DE ENGENHARIA E ARQUITETURA 0,00 2.670,79 13.353,95 0,00 0,00 925,90 16.950,64 925,90 3.531,23 0,00 4.457,13 12.493,51 685,50 0,00 31/08/2014
775 386600 ELIANA SABINO CHAVES ANALISTA DO MP ATIVO CARATINGA - COMARCA; CARATINGA-PJ-06PJ 7.973,40 3.986,70 0,00 0,00 0,00 0,00 11.960,10 1.941,62 3.545,00 0,00 5.486,62 6.473,48 5.326,80 6.481,76 31/08/2014
776 297400 ELIANE AUGUSTA RIBEIRO COSTA ANALISTA DO MP ATIVO CONSELHEIRO LAFAIETE - COMARCA; CONSELHEIRO LAFAIETE-PJ-05PJ 9.663,38 1.932,68 0,00 0,00 0,00 0,00 11.596,06 1.275,57 1.863,72 0,00 3.139,29 8.456,77 685,50 0,00 31/08/2014
777 510600 ELIANE CAROLINA MAIA ANALISTA DO MP ATIVO IGARAPÉ - COMARCA; IGARAPE-PJ-01PJ 5.511,94 0,00 0,00 0,00 0,00 0,00 5.511,94 606,31 339,07 0,00 945,38 4.566,56 1.155,50 0,00 31/08/2014
778 269300 ELIANE EDLAMAR ROCHA OFICIAL DO MP ATIVO PEDRO LEOPOLDO - COMARCA; PEDRO LEOPOLDO-PJ-02PJ 6.265,58 1.253,12 0,00 0,00 0,00 0,00 7.518,70 827,06 915,21 0,00 1.742,27 5.776,43 920,50 0,00 31/08/2014
779 359100 ELIANE FARIAS DE OLIVEIRA ASSESSOR ATIVO BELO HORIZONTE - COMARCA; EXTINTA-TUTELA DAS FUNDACOES-21 PJ- GABINETE 0,00 0,00 2.359,08 0,00 0,00 0,00 2.359,08 334,90 71,42 0,00 406,32 1.952,76 685,50 0,00 31/08/2014
780 262600 ELIANE FERREIRA SOARES ASSESSOR ATIVO BELO HORIZONTE - COMARCA; BH-18PJ DIREITOS HUMANOS-SECRETARIA 0,00 1.181,65 3.938,84 0,00 0,00 0,00 5.120,49 482,93 588,27 0,00 1.071,20 4.049,29 920,50 0,00 31/08/2014
781 204400 ELIANE GLAUCE DE QUEIROS MAIA OFICIAL DO MP ATIVO GUANHÃES - COMARCA; GUANHAES-PJ-01PJ 8.233,02 1.646,60 0,00 0,00 0,00 0,00 9.879,62 1.086,76 1.542,47 0,00 2.629,23 7.250,39 685,50 0,00 31/08/2014
782 91800 ELIANE KAPLER COORDENADOR/OFICIAL ATIVO BELO HORIZONTE - COMARCA; DIRET DE CONTROLE E DE MANUTENCAO DE IMOVEIS 11.711,44 6.951,20 0,00 0,00 0,00 0,00 18.662,64 1.803,56 3.711,26 0,00 5.514,82 13.147,82 1.574,89 38,44 31/08/2014
783 334200 ELIANE MARCIA DE OLIVEIRA BRITO OFICIAL DO MP ATIVO BELO HORIZONTE - COMARCA; BH-08PJ JUIZADO ESPECIAL-SECRETARIA 4.696,06 469,61 0,00 0,00 0,00 0,00 5.165,67 568,22 438,15 0,00 1.006,37 4.159,30 685,50 0,00 31/08/2014
784 365900 ELIANE MARIA DE OLIVEIRA FERREIRA OFICIAL DO MP ATIVO SETE LAGOAS - COMARCA; SETE LAGOAS-PJ-11PJ 5.006,21 2.276,58 0,00 0,00 0,00 0,00 7.282,79 876,48 935,59 0,00 1.812,07 5.470,72 685,50 0,00 31/08/2014
785 320600 ELIANE STADLER DE SOUZA OFICIAL DO MP ATIVO FRANCISCO SÁ - COMARCA; FRANCISCO SA-PJ-SECRETARIA 5.691,44 569,14 0,00 0,00 0,00 0,00 6.260,58 688,66 656,71 0,00 1.345,37 4.915,21 685,50 0,00 31/08/2014
786 448900 ELIAS PEREIRA OTONI ASSESSOR ATIVO BELO HORIZONTE - COMARCA; EXTINTA - DIVISAO DE TRANSPORTES 0,00 0,00 3.938,84 0,00 0,00 0,00 3.938,84 482,93 247,99 0,00 730,92 3.207,92 685,50 0,00 31/08/2014
787 495400 ELICA SOUZA GASPARONI MATTOS OFICIAL DO MP ATIVO UBÁ - COMARCA; UBA-PJ-SECRETARIA 3.694,41 221,66 0,00 0,00 0,00 0,00 3.916,07 444,80 216,05 0,00 660,85 3.255,22 920,50 168,78 31/08/2014
788 86600 ELIENE FERREIRA DA SILVA OFICIAL DO MP ATIVO BELO HORIZONTE - COMARCA; BH-22PJ PES COM DEF E IDOSOS 16.215,23 8.107,62 0,00 0,00 0,00 0,00 24.322,85 2.675,51 4.978,61 0,00 7.654,12 16.668,73 1.155,50 0,00 31/08/2014
789 183800 ELIENE MARIA CUNHA OFICIAL DO MP ATIVO BELO HORIZONTE - COMARCA; DIRETORIA DE PESSOAL ADMINISTRATIVO - DPAD 8.501,02 1.700,20 0,00 0,00 0,00 0,00 10.201,22 1.122,13 1.621,18 0,00 2.743,31 7.457,91 685,50 0,00 31/08/2014
790 172300 ELINA APARECIDA SILVA ASSESSOR ATIVO BELO HORIZONTE - COMARCA; BH-19PJ SAUDE-SECRETARIA 130PJ 0,00 707,72 2.359,08 0,00 0,00 0,00 3.066,80 412,75 111,99 0,00 524,74 2.542,06 920,50 0,00 31/08/2014
791 492501 ELINE CAMPOS DA FONSECA CUNHA ANALISTA DO MP ATIVO JEQUERI - COMARCA; JEQUERI-PJ-UNPJ 4.404,59 264,28 0,00 0,00 0,00 0,00 4.668,87 570,75 443,76 0,00 1.014,51 3.654,36 920,50 519,75 31/08/2014
792 618900 ELISA MOURA VIEIRA MARCATTI OFICIAL DO MP ATIVO BELO HORIZONTE - COMARCA; BH-23PJ CIVEL-SEC EXP CIVEIS 2.859,08 0,00 0,00 0,00 0,00 0,00 2.859,08 314,50 56,76 0,00 371,26 2.487,82 685,50 0,00 31/08/2014
793 256500 ELISABETE NOGUEIRA ANALISTA DO MP ATIVO BELO HORIZONTE - COMARCA; BH-21PJ TUTELA DAS FUNDACOES-ASS CURADORES 8.233,02 3.293,21 0,00 0,00 0,00 0,00 11.526,23 1.267,89 1.846,63 0,00 3.114,52 8.411,71 1.155,50 0,00 31/08/2014
794 355000 ELISANGELA DARLANTONI RIBEIRO OFICIAL DO MP ATIVO ARAXÁ - COMARCA; ARAXA-PJ-05PJ 4.696,06 469,61 0,00 0,00 0,00 0,00 5.165,67 568,22 391,03 0,00 959,25 4.206,42 1.155,50 0,00 31/08/2014
795 604400 ELISANGELA DEMASI FERREIRA MOREIRA ANALISTA DO MP ATIVO CAXAMBU - COMARCA; CAXAMBU-PJ-UNPJ 4.848,98 0,00 0,00 0,00 0,00 0,00 4.848,98 533,39 368,05 0,00 901,44 3.947,54 920,50 0,00 31/08/2014
796 323800 ELISANGELA GONCALVES DE JESUS OFICIAL DO MP ATIVO BELO HORIZONTE - COMARCA; BH-09PJ AUDITORIA MILITAR-SECRETARIA 4.696,06 469,61 0,00 0,00 0,00 0,00 5.165,67 568,22 438,15 0,00 1.006,37 4.159,30 685,50 0,00 31/08/2014
797 261400 ELISANGELA MENDES OFICIAL DO MP ATIVO POUSO ALEGRE - COMARCA; POUSO ALEGRE-PJ-05PJ 5.691,44 1.138,29 0,00 0,00 0,00 0,00 6.829,73 751,27 845,43 0,00 1.596,70 5.233,03 685,50 0,00 31/08/2014
798 507400 ELISANGELA MIGUEL DA ROCHA ASSESSOR ATIVO BELO HORIZONTE - COMARCA; CGMP-DIVIS DE APOIO FISC ORIENTACAO FUNCIONAL 0,00 0,00 2.359,08 0,00 0,00 0,00 2.359,08 334,90 71,42 0,00 406,32 1.952,76 685,50 0,00 31/08/2014
799 534100 ELISANGELA ROSINE SILVA OFICIAL DO MP ATIVO UBERABA - COMARCA; UBERABA-PJ-06PJ 2.952,15 0,00 0,00 0,00 0,00 0,00 2.952,15 324,74 62,98 0,00 387,72 2.564,43 685,50 0,00 31/08/2014
800 461700 ELIZABETH ALEIXO DA PAZ ANALISTA DO MP ATIVO JUIZ DE FORA - COMARCA; JUIZ DE FORA-PJ-24PJ 6.265,58 375,93 0,00 0,00 0,00 0,00 6.641,51 730,57 799,36 0,00 1.529,93 5.111,58 685,50 0,00 31/08/2014
801 198100 ELIZABETH CARDOSO CAMPOS OFICIAL DO MP ATIVO PIUMHI - COMARCA; PIUMHI-PJ-02PJ 7.973,40 6.378,72 0,00 0,00 0,00 2.522,43 16.874,55 2.522,43 5.588,75 0,00 8.111,18 8.763,37 685,50 9.154,51 31/08/2014
802 227300 ELIZABETH COIMBRA FELIX COORDENADOR/OFICIAL ATIVO BELO HORIZONTE - COMARCA; DIRETORIA DE PAGAMENTO DE PESSOAL-DPAG 3.612,64 2.896,51 0,00 0,00 0,00 0,00 6.509,15 1.065,17 2.516,68 0,00 3.581,85 2.927,30 843,06 7.265,32 31/08/2014
803 354800 ELIZABETH DOS REIS OFICIAL DO MP ATIVO BELO HORIZONTE - COMARCA; EXTINTA - DIVISÃO DE MATERIAL PERMANENTE 5.691,44 569,14 0,00 0,00 0,00 0,00 6.260,58 688,66 656,71 0,00 1.345,37 4.915,21 685,50 0,00 31/08/2014
804 612000 ELIZABETH MARIA DE QUEIROZ TANIGUCHI OFICIAL DO MP ATIVO BELO HORIZONTE - COMARCA; PROC. JUSTICA DIR. DIFUSOS E COLETIVOS-SEC 2.859,08 0,00 0,00 0,00 0,00 0,00 2.859,08 314,50 56,76 0,00 371,26 2.487,82 685,50 0,00 31/08/2014
805 452800 ELIZANGELA MARIA DAVI OFICIAL DO MP ATIVO ARCOS - COMARCA; ARCOS-PJ-01PJ 3.694,41 221,66 0,00 0,00 0,00 0,00 3.916,07 430,77 160,81 0,00 591,58 3.324,49 1.173,04 0,00 31/08/2014
806 496300 ELIZANGELA MARQUES PINTO COELHO OFICIAL DO MP ATIVO BELO HORIZONTE - COMARCA; DIRETORIA DE PESSOAL ADMINISTRATIVO - DPAD 3.938,84 236,33 0,00 0,00 0,00 0,00 4.175,17 485,27 280,44 0,00 765,71 3.409,46 920,50 236,33 31/08/2014
807 422500 ELIZETE FORTES DA CUNHA ANALISTA DO MP ATIVO RIBEIRÃO DAS NEVES - COMARCA; RIBEIRAO DAS NEVES-PJ-07PJ 7.014,37 701,44 0,00 0,00 0,00 0,00 7.715,81 848,74 1.012,87 0,00 1.861,61 5.854,20 920,50 0,00 31/08/2014
808 506100 ELLEM CRISTINA ROCHA FONSECA BOWEN ANALISTA DO MP ATIVO GOVERNADOR VALADARES - COMARCA; COORD REG PJ DEF EDU DIR CRIANCA ADOL RIODOCE 6.068,01 0,00 0,00 0,00 0,00 0,00 6.068,01 667,48 659,00 0,00 1.326,48 4.741,53 1.155,50 0,00 31/08/2014
809 468200 ELLEN CRISTINA BERNARDES DARE ANALISTA DO MP ATIVO TRÊS PONTAS - COMARCA; TRES PONTAS-PJ-02PJ 6.265,58 375,93 0,00 0,00 0,00 0,00 6.641,51 793,19 889,28 0,00 1.682,47 4.959,04 685,50 569,30 31/08/2014
810 418800 ELLEN CRISTINA DE QUEIROZ FERREIRA ANALISTA DO MP ATIVO BELO HORIZONTE - COMARCA; CENTRAL DE APOIO TECNICO-SETOR CONTABIL 7.014,37 701,44 0,00 0,00 0,00 0,00 7.715,81 848,74 1.062,29 0,00 1.911,03 5.804,78 685,50 0,00 31/08/2014
811 328401 ELLEN CRISTINA FERREIRA MORAIS MONTEIRO ANALISTA DO MP ATIVO CAMANDUCAIA - COMARCA; CAMANDUCAIA-PJ-UNPJ 7.014,37 701,44 0,00 0,00 0,00 0,00 7.715,81 848,74 963,45 0,00 1.812,19 5.903,62 920,50 0,00 31/08/2014
812 556100 ELLEN CRISTINE BIANCHIN DA SILVA OFICIAL DO MP ATIVO SÃO GONÇALO DO SAPUCAÍ - COMARCA; SAO GONCALO DO SAPUCAI-PJ-02PJ 2.952,15 0,00 0,00 0,00 0,00 0,00 2.952,15 324,74 22,54 0,00 347,28 2.604,87 685,50 0,00 31/08/2014
813 447100 ELLEN ROSANA DE MACEDO BORGES OFICIAL DO MP ATIVO UBERLÂNDIA - COMARCA; UBERLANDIA-PJ-17PJ 4.848,98 290,94 0,00 0,00 0,00 0,00 5.139,92 772,65 936,18 0,00 1.708,83 3.431,09 2.124,68 2.173,14 31/08/2014
814 477700 ELMA JACOB OFICIAL DO MP ATIVO BELO HORIZONTE - COMARCA; CAO-CRIANCAS E ADOLESCENTES 4.000,95 2.000,48 0,00 0,00 0,00 0,00 6.001,43 660,16 642,70 0,00 1.302,86 4.698,57 685,50 0,00 31/08/2014
815 123300 ELMA PAULA DOS SANTOS COELHO OFICIAL DO MP ATIVO BELO HORIZONTE - COMARCA; BH-19PJ SAUDE-SECRETARIA 130PJ 10.638,28 8.510,62 0,00 0,00 0,00 2.106,38 21.255,28 2.106,38 4.390,38 0,00 6.496,76 14.758,52 4.230,79 324,98 31/08/2014
816 356500 ELOISA CARDOSO SILVA FRANCA OFICIAL DO MP ATIVO PEÇANHA - COMARCA; PECANHA-PJ-SECRETARIA 4.696,06 469,61 0,00 0,00 0,00 0,00 5.165,67 625,50 417,32 0,00 1.042,82 4.122,85 685,50 520,68 31/08/2014
817 251901 ELOISA COSTA E SILVA ANALISTA DO MP ATIVO SANTOS DUMONT - COMARCA; SANTOS DUMONT-PJ-02PJ 6.068,01 1.213,60 0,00 0,00 0,00 0,00 7.281,61 800,98 956,02 0,00 1.757,00 5.524,61 685,50 0,00 31/08/2014
818 400400 ELOIZA MARIA FERRI PIRES DA SILVA OFICIAL DO MP ATIVO BELO HORIZONTE - COMARCA; EXTINTA - DIRETORIA DE COMPRAS E LICITAÇÕES 4.548,03 454,80 0,00 0,00 0,00 0,00 5.002,83 649,50 569,58 0,00 1.219,08 3.783,75 685,50 901,76 31/08/2014
819 258000 ELSO CECIANO PALMEIRA ASSESSOR/OFICIAL ATIVO BELO HORIZONTE - COMARCA; DIRET DE PESSOAL DO MINISTERIO PUBLICO - DPMP 0,00 3.986,70 7.973,40 0,00 0,00 0,00 11.960,10 1.085,52 2.065,52 0,00 3.151,04 8.809,06 685,50 0,00 31/08/2014
820 206900 ELVIRA RITA DOS SANTOS ANALISTA DO MP ATIVO BELO HORIZONTE - COMARCA; CENTRAL DE APOIO TECNICO-SETOR CONTABIL 13.353,95 2.670,79 0,00 0,00 0,00 0,00 16.024,74 1.762,72 3.095,91 0,00 4.858,63 11.166,11 685,50 0,00 31/08/2014
821 506800 ELVIS FERREIRA DA SILVA ANALISTA DO MP ATIVO BELO HORIZONTE - COMARCA; DIRETORIA DE SISTEMAS DE INFORMACAO 6.068,01 0,00 0,00 0,00 0,00 0,00 6.068,01 667,48 609,58 0,00 1.277,06 4.790,95 685,50 0,00 31/08/2014
822 154300 ELZA MARIA DA SILVA OFICIAL DO MP ATIVO ERVÁLIA - COMARCA; ERVALIA-PJ-SECRETARIA 7.478,49 5.982,80 0,00 0,00 0,00 1.480,74 14.942,03 1.480,74 2.875,70 0,00 4.356,44 10.585,59 685,50 0,00 31/08/2014
823 602400 ELZA MARIA MOREIRA MUNIZ ANALISTA DO MP ATIVO CARMO DO PARANAÍBA - COMARCA; CARMO DO PARANAIBA-PJ-02PJ 4.404,59 0,00 0,00 0,00 0,00 0,00 4.404,59 484,50 279,06 0,00 763,56 3.641,03 685,50 0,00 31/08/2014
824 368401 ELZIRA SIMOES DOS SANTOS ASSESSOR ATIVO BELO HORIZONTE - COMARCA; DIRETORIA DE RELACOES PUBLICAS E CERIMONIAL 0,00 1.755,56 8.777,78 0,00 3.511,11 0,00 14.044,45 482,93 3.091,78 0,00 3.574,71 10.469,74 685,50 0,00 31/08/2014
825 437400 EMANOELLE DA SILVA RODRIGUES OFICIAL DO MP ATIVO UNAÍ - COMARCA; UNAI-PJ-03PJ 4.848,98 484,90 0,00 0,00 0,00 0,00 5.333,88 815,32 938,53 0,00 1.753,85 3.580,03 685,50 2.078,16 31/08/2014
826 458900 EMANUELLE CONRAD SILVA FREDERICO ANALISTA DO MP ATIVO DIVINÓPOLIS - COMARCA; DIVINOPOLIS-PJ-08PJ 6.265,58 375,93 0,00 0,00 0,00 0,00 6.641,51 730,57 799,36 0,00 1.529,93 5.111,58 685,50 0,00 31/08/2014
827 284100 EMERSON MAGNO ALMEIDA PEDROSA DA FONSECA ANALISTA DO MP ATIVO BELO HORIZONTE - COMARCA; CENTRAL DE APOIO TECNICO-SETOR CONTABIL 9.663,38 1.932,68 0,00 0,00 0,00 0,00 11.596,06 1.275,57 1.219,54 0,00 2.495,11 9.100,95 920,50 0,00 31/08/2014
828 179900 EMERSON MORAIS DIAS OFICIAL DO MP ATIVO BELO HORIZONTE - COMARCA; EXTINTA - DIVISÃO DE APOIO À LICITAÇÃO 9.358,72 2.807,62 0,00 0,00 0,00 0,00 12.166,34 1.338,30 2.151,56 0,00 3.489,86 8.676,48 4.230,79 324,98 31/08/2014
829 488700 EMERSON SIQUEIRA DE SOUSA TEIXEIRA ANALISTA DO MP ATIVO TARUMIRIM - COMARCA; TARUMIRIM-PJ-UNPJ 6.265,58 375,93 0,00 0,00 0,00 0,00 6.641,51 730,57 651,10 0,00 1.381,67 5.259,84 1.155,50 0,00 31/08/2014
830 194200 EMILIA ALVES FERREIRA RAMOS OFICIAL DO MP ATIVO UBERLÂNDIA - COMARCA; UBERLANDIA-PJ-19PJ 4.696,06 939,21 0,00 0,00 0,00 0,00 5.635,27 619,88 454,24 0,00 1.074,12 4.561,15 685,50 0,00 31/08/2014
831 123400 EMILIO CARLOS MARTINS OFICIAL DO MP ATIVO AREADO - COMARCA; AREADO-PJ-UNPJ 9.977,95 6.984,58 0,00 0,00 0,00 0,00 16.962,53 1.865,88 3.276,01 0,00 5.141,89 11.820,64 685,50 0,00 31/08/2014
832 549300 EMILIO VIEIRA SILVA ASSESSOR ATIVO BELO HORIZONTE - COMARCA; EXTINTA - DIVISAO DE TRANSPORTES 0,00 0,00 2.359,08 0,00 0,00 0,00 2.359,08 334,90 71,42 0,00 406,32 1.952,76 685,50 0,00 31/08/2014
833 620700 EMILY DE OLIVEIRA FONTANA ANALISTA DO MP ATIVO BELO HORIZONTE - COMARCA; BH-18PJ VIOLENCIA DOMESTICA 4.848,98 0,00 0,00 0,00 0,00 0,00 4.848,98 960,10 1.310,07 0,00 2.270,17 2.578,81 1.246,36 3.879,18 31/08/2014
834 297000 ENEIDA SOARES COSTA MELO ANALISTA DO MP ATIVO PIUMHI - COMARCA; PIUMHI-PJ-01PJ 9.663,38 1.932,68 0,00 0,00 0,00 0,00 11.596,06 1.275,57 2.011,98 0,00 3.287,55 8.308,51 685,50 0,00 31/08/2014
835 276000 ENEZIO RODRIGUES DE SOUZA FILHO OFICIAL DO MP ATIVO UBERLÂNDIA - COMARCA; UBERLANDIA-PJ-SEC FAMILIA 6.068,01 1.213,60 0,00 0,00 0,00 0,00 7.281,61 800,98 956,02 0,00 1.757,00 5.524,61 685,50 0,00 31/08/2014
836 387700 ENI MARIA DOS REIS OFICIAL DO MP ATIVO POUSO ALEGRE - COMARCA; POUSO ALEGRE-PJ-04PJ 5.006,87 1.609,01 0,00 0,00 0,00 0,00 6.615,88 605,83 777,19 0,00 1.383,02 5.232,86 685,50 0,00 31/08/2014
837 605100 ENIA MAIA OFICIAL DO MP ATIVO BELO HORIZONTE - COMARCA; DIRETORIA DE ORCAMENTO-DIOR/SPC 2.859,08 0,00 0,00 0,00 0,00 0,00 2.859,08 314,50 56,76 0,00 371,26 2.487,82 685,50 0,00 31/08/2014
838 612200 ENILDO GOMES MEIRA FILHO ANALISTA DO MP ATIVO BUENÓPOLIS - COMARCA; BUENOPOLIS-PJ-UNPJ 4.404,59 0,00 0,00 0,00 0,00 0,00 4.404,59 484,50 199,07 0,00 683,57 3.721,02 920,50 0,00 31/08/2014
839 553700 ENIVALDO NOVATO PUBLIO ANALISTA DO MP ATIVO DIVINÓPOLIS - COMARCA; DIVINOPOLIS-PJ-09PJ 4.548,03 0,00 0,00 0,00 0,00 0,00 4.548,03 500,28 267,35 0,00 767,63 3.780,40 685,50 0,00 31/08/2014
840 417300 ERIC BARATTI DA SILVA ANALISTA DO MP ATIVO PRATA - COMARCA; PRATA-PJ-UNPJ 6.469,61 388,18 0,00 0,00 0,00 0,00 6.857,79 754,36 852,29 0,00 1.606,65 5.251,14 685,50 0,00 31/08/2014
841 398900 ERIC TEIXEIRA SILVA OFICIAL DO MP ATIVO UBERLÂNDIA - COMARCA; UBERLANDIA-PJ-08PJ 4.548,03 454,80 0,00 0,00 0,00 0,00 5.002,83 550,31 398,86 0,00 949,17 4.053,66 685,50 0,00 31/08/2014
842 274200 ERICA DE SOUZA ANDRADE OFICIAL DO MP ATIVO BELO HORIZONTE - COMARCA; BH-18PJ DIREITOS HUMANOS 6.469,61 1.293,92 0,00 0,00 0,00 0,00 7.763,53 897,90 1.072,85 0,00 1.970,75 5.792,78 685,50 399,24 31/08/2014
843 225700 ERICA GOMES DO COUTO OFICIAL DO MP ATIVO BELO HORIZONTE - COMARCA; CAO-TS-TERCEIRO SETOR-SECRETARIA 7.973,40 1.594,68 0,00 0,00 0,00 0,00 9.568,08 1.438,28 2.374,03 0,00 3.812,31 5.755,77 1.204,57 3.554,78 31/08/2014
844 524800 ERICA MACHADO DA COSTA E SOUZA ANALISTA DO MP ATIVO BELO HORIZONTE - COMARCA; PROC JUST RECURSOS ESP E EXTRAORD CRIMINAIS 6.068,01 0,00 0,00 0,00 0,00 0,00 6.068,01 667,48 659,00 0,00 1.326,48 4.741,53 685,50 0,00 31/08/2014
845 249500 ERICA RODRIGUES ANDRADE OFICIAL DO MP ATIVO SÃO FRANCISCO - COMARCA; SAO FRANCISCO-PJ-02PJ 4.696,06 939,21 0,00 0,00 0,00 0,00 5.635,27 619,88 503,66 0,00 1.123,54 4.511,73 920,50 0,00 31/08/2014
846 260800 ERICA VIANA GIARDINI DE OLIVEIRA OFICIAL DO MP ATIVO BELO HORIZONTE - COMARCA; EXTINTA - DIVISÃO DE COMPRAS 5.693,26 1.293,92 0,00 0,00 0,00 0,00 6.987,18 853,99 860,48 0,00 1.714,47 5.272,71 685,50 0,00 31/08/2014
847 299800 ERICH DOUGLAS RIBEIRO GARCIA ANALISTA DO MP ATIVO BELO HORIZONTE - COMARCA; CENTRAL DE APOIO TECNICO-SETOR CONTABIL 9.663,38 1.932,68 0,00 0,00 0,00 0,00 11.596,06 1.275,57 2.011,98 0,00 3.287,55 8.308,51 685,50 0,00 31/08/2014
848 365000 ERICK EDUARDO JOSE DA SILVA OFICIAL DO MP ATIVO SANTOS DUMONT - COMARCA; SANTOS DUMONT-PJ-02PJ 4.265,74 426,57 0,00 0,00 0,00 0,00 4.692,31 516,15 336,68 0,00 852,83 3.839,48 685,50 0,00 31/08/2014
849 123500 ERICO SEGISMUNDO LIMA VILASBOAS ANALISTA DO MP ATIVO MONTES CLAROS - COMARCA; COORD REG PJ DEF EDUC DIR CRIANCA ADOL NORTE 14.432,31 11.545,84 0,00 0,00 0,00 2.857,60 28.835,75 2.857,60 6.120,16 0,00 8.977,76 19.857,99 4.230,79 324,98 31/08/2014
850 227400 ERIKA DE LAET GOULART BOECHAT ASSESSOR/OFICIAL ATIVO BELO HORIZONTE - COMARCA; ASSESSORIA ESPECIAL DO PGJ 0,00 1.932,68 9.663,38 0,00 0,00 0,00 11.596,06 1.052,49 2.023,91 0,00 3.076,40 8.519,66 920,50 0,00 31/08/2014
851 285100 ERIKA FERREIRA DA SILVA OFICIAL DO MP ATIVO JUIZ DE FORA - COMARCA; JUIZ DE FORA-PJ-14PJ 6.469,61 1.293,92 0,00 0,00 0,00 0,00 7.763,53 853,99 1.073,97 0,00 1.927,96 5.835,57 685,50 0,00 31/08/2014
852 420100 ERIKA JEANINE VERSIANI DE CASTRO ANALISTA DO MP ATIVO MONTES CLAROS - COMARCA; COORD REG PJ DEF EDUC DIR CRIANCA ADOL NORTE 7.973,40 797,34 0,00 0,00 0,00 0,00 8.770,74 1.428,95 2.303,85 0,00 3.732,80 5.037,94 1.255,58 4.271,98 31/08/2014
853 606900 ERIKA MARIA BARBOSA ANALISTA DO MP ATIVO BELO HORIZONTE - COMARCA; CAO-SAUDE 4.404,59 0,00 0,00 0,00 0,00 0,00 4.404,59 484,50 238,63 0,00 723,13 3.681,46 920,50 0,00 31/08/2014
854 491000 ERIKA ROCHA PEREIRA E SILVA ANALISTA DO MP ATIVO BELO HORIZONTE - COMARCA; DIRETORIA DE SISTEMAS DE INFORMACAO 6.265,58 375,93 0,00 0,00 0,00 0,00 6.641,51 772,80 893,33 0,00 1.666,13 4.975,38 685,50 383,94 31/08/2014
855 283201 ERIKA STEHLING ASSESSOR/ANALISTA ATIVO BELO HORIZONTE - COMARCA; CENTRAL DE APOIO TECNICO-SETOR DE ENGENHARIA 0,00 478,40 7.973,40 0,00 0,00 0,00 8.451,80 774,76 1.186,20 0,00 1.960,96 6.490,84 685,50 0,00 31/08/2014
856 383500 ERIKO RODRIGUES VELOSO ANALISTA DO MP ATIVO BOCAIÚVA - COMARCA; BOCAIUVA-PJ-01PJ 6.578,93 657,89 0,00 0,00 0,00 0,00 7.236,82 796,05 945,06 0,00 1.741,11 5.495,71 685,50 0,00 31/08/2014
857 254000 ERLANDIA DA SILVA MENDES OFICIAL DO MP ATIVO IPATINGA - COMARCA; IPATINGA-PJ-03PJ 6.265,58 1.879,67 0,00 0,00 0,00 0,00 8.145,25 972,77 1.190,00 0,00 2.162,77 5.982,48 920,50 698,10 31/08/2014
858 208600 ERNANE JOSE DA COSTA ANALISTA DO MP ATIVO BELO HORIZONTE - COMARCA; CENTRAL DE APOIO TECNICO-SETOR MEDICO 13.353,95 6.676,98 0,00 0,00 0,00 0,00 20.030,93 2.203,40 4.076,42 0,00 6.279,82 13.751,11 685,50 0,00 31/08/2014
859 260600 ERNANI CALDEIRA DE ANDRADE ANALISTA DO MP ATIVO BELO HORIZONTE - COMARCA; CENTRAL DE APOIO TECNICO-SETOR CONTABIL 10.638,28 2.127,66 0,00 0,00 0,00 0,00 12.765,94 1.404,25 2.298,31 0,00 3.702,56 9.063,38 685,50 0,00 31/08/2014
860 348500 ERNILANDIA OLIVEIRA DIAS OFICIAL DO MP ATIVO BELO HORIZONTE - COMARCA; EXTINTA - JUIZO DE FAMILIA-02 PJ-02 VARA 5.006,87 500,69 0,00 0,00 0,00 0,00 5.507,56 605,83 521,83 0,00 1.127,66 4.379,90 685,50 0,00 31/08/2014
861 199300 ERTON PORTINARI DE ANDRADE OFICIAL DO MP ATIVO SETE LAGOAS - COMARCA; SETE LAGOAS-PJ-01PJ 8.233,02 2.469,91 0,00 0,00 0,00 0,00 10.702,93 1.278,24 1.919,08 0,00 3.197,32 7.505,61 685,50 917,40 31/08/2014
862 430400 ESDRAS SOARES VILAS BOAS RIBEIRO OFICIAL DO MP ATIVO BELO HORIZONTE - COMARCA; BH-17PJ PATRIMONIO PUBLICO-SECRETARIA 4.848,98 484,90 0,00 0,00 0,00 0,00 5.333,88 801,81 1.002,69 0,00 1.804,50 3.529,38 685,50 2.118,26 31/08/2014
863 618800 ESLY DE CARLA AYALLA BARBOSA MENDES OFICIAL DO MP ATIVO ITABIRITO - COMARCA; ITABIRITO-PJ-01PJ 2.859,08 0,00 0,00 0,00 0,00 0,00 2.859,08 314,50 56,76 0,00 371,26 2.487,82 920,50 0,00 31/08/2014
864 537000 ESTANISLAU CORREIA ALMEIDA JUNIOR OFICIAL DO MP ATIVO UBERLÂNDIA - COMARCA; UBERLANDIA-PJ-04PJ 2.952,15 0,00 0,00 0,00 0,00 0,00 2.952,15 324,74 62,98 0,00 387,72 2.564,43 685,50 0,00 31/08/2014
865 326900 ESTER ALICE PIMENTA OFICIAL DO MP ATIVO BELO HORIZONTE - COMARCA; COORD DE INCLUSAO E MOBILIZACAO SOCIAIS 5.876,69 587,67 0,00 0,00 0,00 0,00 6.464,36 711,08 706,58 0,00 1.417,66 5.046,70 685,50 0,00 31/08/2014
866 503700 ESTHER GONCALVES FONSECA ANALISTA DO MP ATIVO BELO HORIZONTE - COMARCA; DIRETORIA DE PUBLICIDADE INSTITUCIONAL 5.006,87 0,00 0,00 0,00 0,00 0,00 5.006,87 550,76 399,66 0,00 950,42 4.056,45 685,50 0,00 31/08/2014
867 475600 ETIENE DE FATIMA OLIVEIRA PEREIRA ANALISTA DO MP ATIVO PATROCÍNIO - COMARCA; PATROCINIO-PJ-04PJ 6.265,58 375,93 0,00 0,00 0,00 0,00 6.641,51 730,57 749,94 0,00 1.480,51 5.161,00 1.155,50 0,00 31/08/2014
868 428800 EUGENIA RODRIGUES TRAJANO BORGES ANALISTA DO MP ATIVO UBERABA - COMARCA; UBERABA-PJ-08PJ 7.014,37 701,44 0,00 0,00 0,00 0,00 7.715,81 848,74 1.062,29 0,00 1.911,03 5.804,78 685,50 0,00 31/08/2014
869 272700 EUGENIO DE BARCELOS FILHO OFICIAL DO MP ATIVO FRUTAL - COMARCA; FRUTAL-PJ-02PJ 5.006,87 1.001,37 0,00 0,00 0,00 0,00 6.008,24 660,91 594,95 0,00 1.255,86 4.752,38 685,50 0,00 31/08/2014
870 254100 EULALIA ALVES MIRANDA LUCAS OFICIAL DO MP ATIVO ALMENARA - COMARCA; ALMENARA-PJ-SECRETARIA 6.469,61 2.402,24 0,00 0,00 0,00 0,00 8.871,85 853,99 1.230,50 0,00 2.084,49 6.787,36 685,50 0,00 31/08/2014
871 615500 EUNICE BARBOSA PINTO OFICIAL DO MP ATIVO CARLOS CHAGAS - COMARCA; CARLOS CHAGAS-PJ-UNPJ 2.859,08 0,00 0,00 0,00 0,00 0,00 2.859,08 314,50 56,76 0,00 371,26 2.487,82 685,50 0,00 31/08/2014
872 557900 EURIPEDES JUSUE PERES OFICIAL DO MP ATIVO IBIÁ - COMARCA; IBIA-PJ-UNPJ 2.859,08 0,00 0,00 0,00 0,00 0,00 2.859,08 314,50 56,76 0,00 371,26 2.487,82 685,50 0,00 31/08/2014
873 225800 EURO CESAR VIEIRA BARBOSA ANALISTA DO MP ATIVO BELO HORIZONTE - COMARCA; BH-17PJ PATRIMONIO PUBLICO 11.885,64 3.565,69 0,00 0,00 0,00 0,00 15.451,33 1.830,39 3.147,62 0,00 4.978,01 10.473,32 1.162,16 1.189,17 31/08/2014
874 199400 EUSTAQUIO ADAILTON LIMA E SILVA OFICIAL DO MP ATIVO MANGA - COMARCA; MANGA-PJ-01PJ 8.501,02 3.400,41 0,00 0,00 0,00 0,00 11.901,43 1.309,16 1.889,04 0,00 3.198,20 8.703,23 685,50 0,00 31/08/2014
875 249000 EUSTAQUIO GOMES DE OLIVEIRA OFICIAL DO MP ATIVO BELO HORIZONTE - COMARCA; CAO-TS-CONTROLADORIA E APOIO AS ENTIDADES  6.469,61 2.587,84 0,00 0,00 0,00 0,00 9.057,45 996,32 1.341,24 0,00 2.337,56 6.719,89 685,50 0,00 31/08/2014
876 67100 EVA DAS DORES BARROS VALGAS ANALISTA DO MP ATIVO FERROS - COMARCA; FERROS-PJ-SECRETARIA 13.882,65 9.717,87 0,00 0,00 0,00 0,00 23.600,52 2.596,06 4.801,82 0,00 7.397,88 16.202,64 685,50 0,00 31/08/2014
877 548000 EVA VILMA LEAO DOS REIS JULIO OFICIAL DO MP ATIVO BELO HORIZONTE - COMARCA; BH-15PJ M AMB 16PJ HAB URB-SECRETARIA 2.967,12 650,01 0,00 0,00 0,00 0,00 3.617,13 474,88 198,86 0,00 673,74 2.943,39 685,50 417,04 31/08/2014
878 517000 EVALDO SENA COSTA FILHO ANALISTA DO MP ATIVO CONTAGEM - COMARCA; CONTAGEM-PJ-15PJ 6.068,01 1.213,60 0,00 0,00 0,00 0,00 7.281,61 800,98 807,76 0,00 1.608,74 5.672,87 4.465,79 324,98 31/08/2014
879 217500 EVELANGE LEAO RABELO ASSESSOR ATIVO BELO HORIZONTE - COMARCA; COORD EST DEF DIR FAMILIA PESSOA DEFICI IDOSO 0,00 471,82 2.359,08 0,00 0,00 0,00 2.830,90 386,80 134,41 0,00 521,21 2.309,69 685,50 0,00 31/08/2014
880 540400 EVIE SARAMELLA DE RESENDE OFICIAL DO MP ATIVO BARBACENA - COMARCA; BARBACENA-PJ-01PJ 2.952,15 0,00 0,00 0,00 0,00 0,00 2.952,15 352,58 92,87 0,00 445,45 2.506,70 685,50 253,10 31/08/2014
881 469000 EWERTON CARDOSO DE SA RODRIGUES ANALISTA DO MP ATIVO CAMPO BELO - COMARCA; CAMPO BELO-PJ-01PJ 6.265,58 375,93 0,00 0,00 0,00 0,00 6.641,51 730,57 749,94 0,00 1.480,51 5.161,00 685,50 0,00 31/08/2014
882 368900 FABIANA BARBOSA SIQUEIRA OFICIAL DO MP ATIVO BELO HORIZONTE - COMARCA; CAO-ORDEM ECONOMICA E TRIBUTARIA-SECRETARIA 5.691,44 569,14 0,00 0,00 0,00 0,00 6.260,58 688,66 656,71 0,00 1.345,37 4.915,21 920,50 0,00 31/08/2014
883 273800 FABIANA CARNEIRO AMORIM COORDENADOR/OFICIAL ATIVO BELO HORIZONTE - COMARCA; BH-23PJ INFRACIONAL-COORD ADM INFRACIONAL 0,00 1.812,72 9.063,59 0,00 0,00 0,00 10.876,31 751,27 1.859,40 0,00 2.610,67 8.265,64 685,50 0,00 31/08/2014
884 519300 FABIANA DE OLIVEIRA LOUREIRO ANALISTA DO MP ATIVO BELO HORIZONTE - COMARCA; BH-09PJ AUDITORIA MILITAR 6.068,01 0,00 0,00 0,00 0,00 0,00 6.068,01 667,48 659,00 0,00 1.326,48 4.741,53 920,50 0,00 31/08/2014
885 363400 FABIANA DOURADO DUPIN VIEGAS ANALISTA DO MP ATIVO BELO HORIZONTE - COMARCA; GABINETE DE PROCURADOR DE JUSTIÇA - SALA 705 8.501,02 850,10 0,00 0,00 0,00 0,00 9.351,12 1.028,62 1.413,12 0,00 2.441,74 6.909,38 1.155,50 0,00 31/08/2014
886 410800 FABIANA DUARTE QUITITE ANALISTA DO MP ATIVO BELO HORIZONTE - COMARCA; COORD ESTADUAL COMBATE CRIMES CIBERNETICOS 7.973,40 797,34 0,00 0,00 0,00 0,00 8.770,74 1.434,92 2.366,54 0,00 3.801,46 4.969,28 685,50 4.273,95 31/08/2014
887 419500 FABIANA EULALIA DOS SANTOS ANALISTA DO MP ATIVO SÃO JOÃO DEL REI - COMARCA; SAO JOAO DEL REI-PJ-01PJ 7.014,37 701,44 0,00 0,00 0,00 0,00 7.715,81 848,74 1.062,29 0,00 1.911,03 5.804,78 685,50 0,00 31/08/2014
888 376300 FABIANA MATTOSO LEMOS ANALISTA DO MP ATIVO BELO HORIZONTE - COMARCA; COORD-GERAL DAS PJS POR BACIA HIDRO. DE MG 7.973,40 797,34 0,00 0,00 0,00 0,00 8.770,74 1.690,29 1.320,49 0,00 3.010,78 5.759,96 685,50 6.595,51 31/08/2014
889 331500 FABIANA PACHECO OFICIAL DO MP ATIVO GUAXUPÉ - COMARCA; GUAXUPE-PJ-01PJ 5.691,44 569,14 0,00 0,00 0,00 0,00 6.260,58 688,66 607,29 0,00 1.295,95 4.964,63 685,50 0,00 31/08/2014
890 510700 FABIANA PEREIRA SANTOS BORGES ANALISTA DO MP ATIVO BELO HORIZONTE - COMARCA; DIRETORIA DE SISTEMAS DE INFORMACAO 5.511,94 0,00 0,00 0,00 0,00 0,00 5.511,94 606,31 473,48 0,00 1.079,79 4.432,15 685,50 0,00 31/08/2014
891 181700 FABIANA SOUZA FERREIRA OFICIAL DO MP ATIVO BELO HORIZONTE - COMARCA; BH-19PJ SAUDE-SECRETARIA 150PJ 4.404,59 880,92 0,00 0,00 0,00 0,00 5.285,51 581,41 374,59 0,00 956,00 4.329,51 920,50 0,00 31/08/2014
892 272900 FABIANA STOCKLER LEITE OFICIAL DO MP ATIVO LAJINHA - COMARCA; LAJINHA-PJ-SECRETARIA 6.265,58 1.879,67 0,00 0,00 0,00 0,00 8.145,25 895,98 1.068,56 0,00 1.964,54 6.180,71 832,19 0,00 31/08/2014
893 225500 FABIANE DE FATIMA PORTELLA ANALISTA DO MP ATIVO BELO HORIZONTE - COMARCA; SERVICO MEDICO-DEPTO PERIC MEDICA SAUDE OCUP 10.984,62 2.196,92 0,00 0,00 0,00 0,00 13.181,54 1.449,97 2.400,03 0,00 3.850,00 9.331,54 685,50 0,00 31/08/2014
894 433800 FABIANE DINIZ MATTOS ANALISTA DO MP ATIVO BELO HORIZONTE - COMARCA; BH-23PJ INFRACIONAL-ASS JURIDICA 7.014,37 701,44 0,00 0,00 0,00 0,00 7.715,81 988,32 1.372,87 0,00 2.361,19 5.354,62 831,50 1.282,31 31/08/2014
895 455000 FABIANO CARVALHO DA SILVA ANALISTA DO MP ATIVO LAVRAS - COMARCA; COORD REG DO MA DA BACIA DO RIO GRANDE 6.793,15 407,59 0,00 0,00 0,00 0,00 7.200,74 870,00 1.109,60 0,00 1.979,60 5.221,14 685,50 708,35 31/08/2014
896 498800 FABIANO FURTADO PESSOA COELHO ANALISTA DO MP ATIVO BELO HORIZONTE - COMARCA; DIRETORIA DE REDES E BANCOS DE DADOS 6.068,01 364,08 0,00 0,00 0,00 0,00 6.432,09 808,22 922,72 0,00 1.730,94 4.701,15 1.155,50 915,38 31/08/2014
897 394600 FABIANO PALHARES SILVA ANALISTA DO MP ATIVO BELO HORIZONTE - COMARCA; CENTRAL DE APOIO TECN-SETOR DE MEIO AMBIENTE 7.973,40 797,34 0,00 0,00 2.923,58 0,00 11.694,32 964,78 2.075,05 0,00 3.039,83 8.654,49 920,50 0,00 31/08/2014
898 444400 FABIANO SARAIVA MEDEIROS ANALISTA DO MP ATIVO BETIM - COMARCA; BETIM-PJ-11PJ 6.793,15 407,59 0,00 0,00 0,00 0,00 7.200,74 792,08 886,81 0,00 1.678,89 5.521,85 920,50 0,00 31/08/2014
899 408700 FABIANO SOARES PORTILHO ANALISTA DO MP ATIVO VIÇOSA - COMARCA; VICOSA-PJ-02PJ 7.014,37 701,44 0,00 0,00 0,00 0,00 7.715,81 848,74 1.062,29 0,00 1.911,03 5.804,78 685,50 0,00 31/08/2014
900 384301 FABIO BRUNO DA SILVA ANALISTA DO MP ATIVO BONFIM - COMARCA; BONFIM-PJ-UNPJ 6.469,61 646,96 0,00 0,00 0,00 0,00 7.116,57 782,82 915,63 0,00 1.698,45 5.418,12 685,50 0,00 31/08/2014
901 442600 FABIO CARVALHO VIEIRA ANALISTA DO MP ATIVO MONTES CLAROS - COMARCA; MONTES CLAROS-PJ-06PJ 5.691,44 341,49 0,00 0,00 0,00 0,00 6.032,93 663,62 650,41 0,00 1.314,03 4.718,90 685,50 0,00 31/08/2014
902 123700 FABIO JOSE ANDRADE NOGUEIRA OFICIAL DO MP ATIVO FORMIGA - COMARCA; FORMIGA-PJ-SECRETARIA 7.721,95 5.405,38 0,00 0,00 0,00 0,00 13.127,33 1.444,01 1.364,14 0,00 2.808,15 10.319,18 685,50 0,00 31/08/2014
903 240101 FABIO JUNQUEIRA DE ASSIS FONSECA OFICIAL DO MP ATIVO BELO HORIZONTE - COMARCA; DIRET DE DESENV DE RECURSOS HUMANOS-DDRH 4.131,19 413,12 0,00 0,00 0,00 0,00 4.544,31 499,87 307,04 0,00 806,91 3.737,40 685,50 0,00 31/08/2014
904 271500 FABIO LUIZ VIEIRA OFICIAL DO MP ATIVO SANTA VITÓRIA - COMARCA; SANTA VITORIA-PJ-UNPJ 5.691,44 1.138,29 0,00 0,00 0,00 0,00 6.829,73 854,32 926,45 0,00 1.780,77 5.048,96 739,02 936,80 31/08/2014
905 213100 FABIO PRATES GONCALVES ASSESSOR ATIVO BELO HORIZONTE - COMARCA; DIRETORIA DE RELACOES PUBLICAS E CERIMONIAL 6.265,58 1.253,12 0,00 0,00 0,00 0,00 7.518,70 482,93 1.198,36 0,00 1.681,29 5.837,41 920,50 0,00 31/08/2014
906 436700 FABIO SANTIAGO DE CARVALHO OFICIAL DO MP ATIVO POÇO FUNDO - COMARCA; POCO FUNDO-PJ-UNPJ 4.848,98 484,90 0,00 0,00 0,00 0,00 5.333,88 681,52 690,23 0,00 1.371,75 3.962,13 685,50 861,75 31/08/2014
907 208400 FABIOLA DE SOUSA CARDOSO ASSESSOR/ANALISTA ATIVO BELO HORIZONTE - COMARCA; ASSESS TECNICA DA CORREGEDORIA-GERAL DO MP 13.353,95 4.603,47 0,00 0,00 0,00 0,00 17.957,42 1.762,72 4.930,69 0,00 6.693,41 11.264,01 685,50 4.739,28 31/08/2014
908 392200 FABIOLA LEROY COSTA ANALISTA DO MP ATIVO ESMERALDAS - COMARCA; ESMERALDAS-PJ-01PJ 6.469,61 646,96 0,00 0,00 0,00 0,00 7.116,57 782,82 915,63 0,00 1.698,45 5.418,12 685,50 0,00 31/08/2014
909 409000 FABIOLA MONTEIRO DE CARVALHO CASTRO ANALISTA DO MP ATIVO BOM SUCESSO - COMARCA; BOM SUCESSO-PJ-UNPJ 7.014,37 701,44 0,00 0,00 0,00 0,00 7.715,81 848,74 1.062,29 0,00 1.911,03 5.804,78 685,50 0,00 31/08/2014
910 227900 FABIOLA PIMENTA DE CARVALHO OFICIAL DO MP ATIVO MONTES CLAROS - COMARCA; COORD REG BACIA RIOS VERDE GRANDE E PARDO 5.691,44 1.138,29 0,00 0,00 0,00 0,00 6.829,73 751,27 796,01 0,00 1.547,28 5.282,45 685,50 0,00 31/08/2014
911 525800 FABRICIA ALVES DANTAS OFICIAL DO MP ATIVO MONTES CLAROS - COMARCA; MONTES CLAROS-PJ-01PJ 3.938,84 0,00 0,00 0,00 0,00 0,00 3.938,84 433,27 136,89 0,00 570,16 3.368,68 920,50 0,00 31/08/2014
912 263400 FABRICIA PINTO TEIXEIRA SANTIAGO OFICIAL DO MP ATIVO BELO HORIZONTE - COMARCA; CAO-TS-TERCEIRO SETOR-SECRETARIA 6.469,61 1.293,92 0,00 0,00 0,00 0,00 7.763,53 853,99 975,13 0,00 1.829,12 5.934,41 920,50 0,00 31/08/2014
913 420800 FABRICIO BERNARDES DE OLIVEIRA OFICIAL DO MP ATIVO ITURAMA - COMARCA; ITURAMA-PJ-02PJ 4.848,98 484,90 0,00 0,00 0,00 0,00 5.333,88 637,02 541,80 0,00 1.178,82 4.155,06 772,70 457,20 31/08/2014
914 474000 FABRICIO DE FREITAS SALES ANALISTA DO MP ATIVO BELO HORIZONTE - COMARCA; SUPERINTENDENCIA DE RECURSOS HUMANOS 6.265,58 375,93 0,00 0,00 0,00 0,00 6.641,51 730,57 799,36 0,00 1.529,93 5.111,58 920,50 0,00 31/08/2014
915 510100 FABRICIO FURTADO ASSIS DO CARMO ANALISTA DO MP ATIVO BELO HORIZONTE - COMARCA; SERVICO MEDICO-DEPTO PERIC MEDICA SAUDE OCUP 5.511,94 0,00 0,00 0,00 0,00 0,00 5.511,94 606,31 522,90 0,00 1.129,21 4.382,73 685,50 0,00 31/08/2014
916 519600 FABRICIO GONTIJO SALVATI ANALISTA DO MP ATIVO JUIZ DE FORA - COMARCA; JUIZ DE FORA-PJ-13PJ 6.068,01 0,00 0,00 0,00 0,00 0,00 6.068,01 667,48 659,00 0,00 1.326,48 4.741,53 685,50 0,00 31/08/2014
917 428200 FABRICIO ORZIL VIANA ANALISTA DO MP ATIVO SANTA LUZIA - COMARCA; SANTA LUZIA-PJ-04PJ 6.469,61 646,96 0,00 0,00 0,00 0,00 7.116,57 782,82 915,63 0,00 1.698,45 5.418,12 685,50 0,00 31/08/2014
918 455600 FABRICIO PAIVA DA ROCHA ANALISTA DO MP ATIVO ANDRELÂNDIA - COMARCA; ANDRELANDIA-PJ-UNPJ 6.265,58 375,93 0,00 0,00 0,00 0,00 6.641,51 793,19 889,28 0,00 1.682,47 4.959,04 3.342,10 812,82 31/08/2014
919 511500 FABRICIO RENE CARDOSO DE PADUA ANALISTA DO MP ATIVO SÃO SEBASTIÃO DO PARAÍSO - COMARCA; SAO SEBASTIAO DO PARAISO-PJ-03PJ 6.068,01 0,00 0,00 0,00 0,00 0,00 6.068,01 667,48 659,00 0,00 1.326,48 4.741,53 685,50 0,00 31/08/2014
920 496100 FABRICIO RESENDE GONCALVES OFICIAL DO MP ATIVO ENTRE-RIOS DE MINAS - COMARCA; ENTRE RIOS DE MINAS-PJ-UNPJ 3.577,90 1.322,99 0,00 0,00 0,00 0,00 4.900,89 440,80 459,41 0,00 900,21 4.000,68 685,50 214,67 31/08/2014
921 514900 FADUA MARIA DRUMOND CHEQUER FIGUEIREDO ANALISTA DO MP ATIVO ALMENARA - COMARCA; COORD REG INCLUSAO MOBILIZ VALE JEQUITINHONHA 6.068,01 0,00 0,00 0,00 0,00 0,00 6.068,01 667,48 659,00 0,00 1.326,48 4.741,53 685,50 0,00 31/08/2014
922 282500 FANNY FERREIRA MELO FAVERO DE FRAVET OFICIAL DO MP ATIVO ARAXÁ - COMARCA; ARAXA-PJ-03PJ 5.006,87 1.001,37 0,00 0,00 0,00 0,00 6.008,24 660,91 644,37 0,00 1.305,28 4.702,96 1.155,50 0,00 31/08/2014
923 540100 FATIMA CRISTINA POVOA DA COSTA OFICIAL DO MP ATIVO BELO HORIZONTE - COMARCA; BH-18PJ VIOLENCIA DOMESTICA-SECRETARIA 2.952,15 590,43 0,00 0,00 0,00 0,00 3.542,58 443,12 203,71 0,00 646,83 2.895,75 685,50 485,76 31/08/2014
924 382800 FATIMA DE OLIVEIRA COELHO E SILVA OFICIAL DO MP ATIVO BELO HORIZONTE - COMARCA; DIRETORIA DE ADMINISTRACAO FINANCEIRA 4.131,19 826,24 0,00 0,00 0,00 0,00 4.957,43 545,32 349,33 0,00 894,65 4.062,78 4.465,79 265,90 31/08/2014
925 398601 FELIPE ANTONIO HORTA DE PAULA ANALISTA DO MP ATIVO BELO HORIZONTE - COMARCA; PROC. JUSTICA DIR. DIFUSOS E COLETIVOS-SEC 5.006,87 0,00 0,00 0,00 0,00 0,00 5.006,87 550,76 399,66 0,00 950,42 4.056,45 685,50 0,00 31/08/2014
926 430900 FELIPE BOY VIEIRA ANALISTA DO MP ATIVO BELO HORIZONTE - COMARCA; CAO-DH APOIO COMUNITARIO-SEC ADM 7.014,37 701,44 0,00 0,00 0,00 0,00 7.715,81 848,74 1.062,29 0,00 1.911,03 5.804,78 685,50 0,00 31/08/2014
927 549100 FELIPE FERNANDES ALVIM ANALISTA DO MP ATIVO LAJINHA - COMARCA; LAJINHA-PJ-UNPJ 4.548,03 0,00 0,00 0,00 0,00 0,00 4.548,03 500,28 307,78 0,00 808,06 3.739,97 1.688,24 75,21 31/08/2014
928 487300 FELIPE FERNANDES SILVEIRA ASSESSOR ATIVO BELO HORIZONTE - COMARCA; DIVISAO DE MANUTENCAO PREDIAL 0,00 0,00 2.359,08 0,00 0,00 0,00 2.359,08 482,51 58,08 0,00 540,59 1.818,49 685,50 0,00 31/08/2014
929 620100 FELIPE GOMES DE AZEVEDO OFICIAL DO MP ATIVO BELO HORIZONTE - COMARCA; BH-18PJ VIOLENCIA DOMESTICA-SECRETARIA 2.859,08 0,00 0,00 0,00 0,00 0,00 2.859,08 314,50 56,76 0,00 371,26 2.487,82 685,50 0,00 31/08/2014
930 601600 FELIPE RODRIGUES DE SIQUEIRA ANALISTA DO MP ATIVO BELO HORIZONTE - COMARCA; BH-02PJ FAMILIA 4.848,98 0,00 0,00 0,00 0,00 0,00 4.848,98 533,39 368,05 0,00 901,44 3.947,54 685,50 0,00 31/08/2014
931 544500 FELLIPE LEMOS MARCONDES BUENO ANALISTA DO MP ATIVO SÃO SEBASTIÃO DO PARAÍSO - COMARCA; SAO SEBASTIAO DO PARAISO-PJ-04PJ 5.006,87 0,00 0,00 0,00 0,00 0,00 5.006,87 646,65 612,66 0,00 1.259,31 3.747,56 685,50 871,80 31/08/2014
932 612600 FERNANDA ADRIANA DE PAULA GUIDO ANALISTA DO MP ATIVO PARACATU - COMARCA; PARACATU-PJ-03PJ 4.848,98 0,00 0,00 0,00 0,00 0,00 4.848,98 533,39 368,05 0,00 901,44 3.947,54 685,50 0,00 31/08/2014
933 508400 FERNANDA AGANETTI MATTOS DE OLIVEIRA ANALISTA DO MP ATIVO BELO HORIZONTE - COMARCA; BH-19PJ SAUDE 6.068,01 0,00 0,00 0,00 0,00 0,00 6.068,01 667,48 659,00 0,00 1.326,48 4.741,53 685,50 0,00 31/08/2014
934 453600 FERNANDA ALBERNAZ RABELO ANALISTA DO MP ATIVO BELO HORIZONTE - COMARCA; GABINETE DE PROCURADOR DE JUSTIÇA - SALA 616 6.793,15 407,59 0,00 0,00 0,00 0,00 7.200,74 915,11 1.209,97 0,00 2.125,08 5.075,66 685,50 1.118,44 31/08/2014
935 255600 FERNANDA ALINA DE ALMEIDA ANDRADE OFICIAL DO MP ATIVO BELO HORIZONTE - COMARCA; SUPRIN DE PLANEJAMENTO E COORDENACAO 5.876,69 1.175,34 0,00 0,00 0,00 0,00 7.052,03 775,72 899,84 0,00 1.675,56 5.376,47 685,50 0,00 31/08/2014
936 443200 FERNANDA ALMEIDA LOPES ANALISTA DO MP ATIVO CONTAGEM - COMARCA; CONTAGEM-PJ-23PJ 6.793,15 407,59 0,00 0,00 0,00 0,00 7.200,74 900,73 1.177,96 0,00 2.078,69 5.122,05 685,50 987,68 31/08/2014
937 281100 FERNANDA ANANIAS MEIRA ANALISTA DO MP ATIVO BELO HORIZONTE - COMARCA; BH-23PJ INFRACIONAL-ASS JURIDICA 9.663,38 1.932,68 0,00 0,00 0,00 0,00 11.596,06 1.275,57 2.011,98 0,00 3.287,55 8.308,51 685,50 0,00 31/08/2014
938 539000 FERNANDA BARBOSA ALVES ANALISTA DO MP ATIVO CANÁPOLIS - COMARCA; CANAPOLIS-PJ-SECRETARIA 5.006,87 0,00 0,00 0,00 0,00 0,00 5.006,87 550,76 399,66 0,00 950,42 4.056,45 685,50 0,00 31/08/2014
939 451200 FERNANDA BLOISE PRADO OFICIAL DO MP ATIVO BELO HORIZONTE - COMARCA; NUCLEO DE NEGOCIACAO DE CONFLITOS AMBIENTAIS 4.000,95 240,06 0,00 0,00 0,00 0,00 4.241,01 466,51 246,30 0,00 712,81 3.528,20 685,50 0,00 31/08/2014
940 427900 FERNANDA BRAGA CARNEIRO BICALHO ANALISTA DO MP ATIVO PEÇANHA - COMARCA; PECANHA-PJ-SECRETARIA 7.014,37 701,44 0,00 0,00 0,00 0,00 7.715,81 848,74 1.012,87 0,00 1.861,61 5.854,20 685,50 0,00 31/08/2014
941 507100 FERNANDA CABRINI VAZ MOTA ANALISTA DO MP ATIVO BELO HORIZONTE - COMARCA; ASSESSORIA JURIDICO-ADMINISTRATIVA 6.068,01 0,00 0,00 0,00 0,00 0,00 6.068,01 667,48 659,00 0,00 1.326,48 4.741,53 685,50 0,00 31/08/2014
942 259800 FERNANDA CALZAVARA DE SOUSA COORDENADOR/OFICIAL ATIVO BELO HORIZONTE - COMARCA; DIRET DE FORMACAO, APERFEIC. E POS-GRADUACAO 0,00 2.060,57 10.302,83 0,00 0,00 0,00 12.363,40 868,42 2.334,97 0,00 3.203,39 9.160,01 685,50 0,00 31/08/2014
943 550300 FERNANDA CAMARGOS CALDEIRA BRANT ANALISTA DO MP ATIVO CONTAGEM - COMARCA; CONTAGEM-PJ-10PJ 5.006,87 0,00 0,00 0,00 0,00 0,00 5.006,87 550,76 399,66 0,00 950,42 4.056,45 685,50 0,00 31/08/2014
944 494400 FERNANDA CAMPOS BARATA OFICIAL DO MP ATIVO JUIZ DE FORA - COMARCA; JUIZ DE FORA-PJ-08PJ 3.355,81 201,35 0,00 0,00 0,00 0,00 3.557,16 407,73 159,81 0,00 567,54 2.989,62 920,50 149,51 31/08/2014
945 555600 FERNANDA CAROLINE RIBEIRO ANALISTA DO MP ATIVO BELO HORIZONTE - COMARCA; EXTINTA - DIRETORIA DE CONTRATOS E CONVÊNIOS 5.006,87 0,00 0,00 0,00 0,00 0,00 5.006,87 550,76 399,66 0,00 950,42 4.056,45 685,50 0,00 31/08/2014
946 294500 FERNANDA COSTA FLORES OFICIAL DO MP ATIVO PARÁ DE MINAS - COMARCA; PARA DE MINAS-PJ-04PJ 6.469,61 1.293,92 0,00 0,00 0,00 0,00 7.763,53 853,99 1.024,55 0,00 1.878,54 5.884,99 685,50 0,00 31/08/2014
947 344500 FERNANDA CRISTINA DE SOUZA PAZ ASSESSOR ATIVO BELO HORIZONTE - COMARCA; CENTRAL DE APOIO TECN-SETOR DE MEIO AMBIENTE 0,00 0,00 3.938,84 0,00 0,00 0,00 3.938,84 482,93 247,99 0,00 730,92 3.207,92 1.155,50 0,00 31/08/2014
948 538100 FERNANDA CRISTINA DOS SANTOS ROSA MOREIRA OFICIAL DO MP ATIVO RIBEIRÃO DAS NEVES - COMARCA; RIBEIRAO DAS NEVES-PJ-09PJ 3.250,03 650,01 0,00 0,00 0,00 0,00 3.900,04 429,00 185,63 0,00 614,63 3.285,41 685,50 0,00 31/08/2014
949 337800 FERNANDA CRISTINA REIS ROLAND CLIMACO DA SILVA ASSESSOR/OFICIAL ATIVO BELO HORIZONTE - COMARCA; DIRETORIA-GERAL 0,00 877,78 8.777,78 0,00 0,00 0,00 9.655,56 688,66 1.639,75 0,00 2.328,41 7.327,15 685,50 0,00 31/08/2014
950 545400 FERNANDA CUNHA GUIMARAES ANALISTA DO MP ATIVO BELO HORIZONTE - COMARCA; EXTINTA - COORD DEFESA DO DIREITO DE FAMILIA 4.548,03 0,00 0,00 0,00 0,00 0,00 4.548,03 500,28 307,78 0,00 808,06 3.739,97 685,50 0,00 31/08/2014
951 429801 FERNANDA CUNHA PINHEIRO DA SILVA ANALISTA DO MP ATIVO BELO HORIZONTE - COMARCA; DIRETORIA DE PRODUCAO EDITORIAL 5.511,94 0,00 0,00 0,00 0,00 0,00 5.511,94 606,31 522,90 0,00 1.129,21 4.382,73 685,50 0,00 31/08/2014
952 408000 FERNANDA DAS NEVES RAMOS ANALISTA DO MP ATIVO BELO HORIZONTE - COMARCA; CENTRAL DE APOIO TECNICO-SETOR CONTABIL 7.014,37 701,44 0,00 0,00 0,00 0,00 7.715,81 848,74 1.062,29 0,00 1.911,03 5.804,78 685,50 0,00 31/08/2014
953 496000 FERNANDA DE ALMEIDA VIANA ASSESSOR/ANALISTA ATIVO BELO HORIZONTE - COMARCA; PROC JUST RECURSOS ESP E EXTRAORD CRIMINAIS 0,00 478,40 7.973,40 0,00 0,00 0,00 8.451,80 760,15 1.420,61 0,00 2.180,76 6.271,04 685,50 478,40 31/08/2014
954 266700 FERNANDA DE CASTRO LUCAS ASSESSOR/OFICIAL ATIVO BELO HORIZONTE - COMARCA; DIRET DE DESENV DE RECURSOS HUMANOS-DDRH 0,00 1.755,56 8.777,78 0,00 0,00 0,00 10.533,34 853,99 2.607,35 0,00 3.461,34 7.072,00 685,50 2.806,09 31/08/2014
955 433200 FERNANDA DE FIGUEIREDO NORTE ANALISTA DO MP ATIVO BELO HORIZONTE - COMARCA; ASSESS JUR DO CONS SUPERIOR DO MINISTERIO PUB 7.014,37 701,44 0,00 0,00 0,00 0,00 7.715,81 901,38 1.130,00 0,00 2.031,38 5.684,43 1.176,66 502,05 31/08/2014
956 419200 FERNANDA DE MIRANDA MARTINS SIMOES ANALISTA DO MP ATIVO UBERLÂNDIA - COMARCA; UBERLANDIA-PJ-19PJ 7.973,40 797,34 0,00 0,00 0,00 0,00 8.770,74 1.428,95 2.353,27 0,00 3.782,22 4.988,52 685,50 4.219,72 31/08/2014
957 441400 FERNANDA DE MORAIS PINTO ANALISTA DO MP ATIVO BELO HORIZONTE - COMARCA; PROC. JUSTICA DIR. DIFUSOS E COLETIVOS-SEC 6.793,15 407,59 0,00 0,00 0,00 0,00 7.200,74 792,08 936,23 0,00 1.728,31 5.472,43 685,50 0,00 31/08/2014
958 432200 FERNANDA DE MOURA GUIMARAES ANALISTA DO MP ATIVO BELO HORIZONTE - COMARCA; ASSESS TECNICO-JUR JUNTO AS PROC. DE JUST 7.014,37 420,86 0,00 0,00 0,00 0,00 7.435,23 869,46 1.108,41 0,00 1.977,87 5.457,36 685,50 468,98 31/08/2014
959 461800 FERNANDA DE OLIVEIRA SANTOS ANALISTA DO MP ATIVO JUIZ DE FORA - COMARCA; JUIZ DE FORA-PJ-21PJ 6.265,58 375,93 0,00 0,00 0,00 0,00 6.641,51 730,57 799,36 0,00 1.529,93 5.111,58 685,50 0,00 31/08/2014
960 432500 FERNANDA DE PAULA ABRANTES ANALISTA DO MP ATIVO BELO HORIZONTE - COMARCA; PROC JUST RECURSOS ESP E EXTRAORD CRIMINAIS 7.014,37 701,44 0,00 0,00 0,00 0,00 7.715,81 949,56 1.286,63 0,00 2.236,19 5.479,62 685,50 916,58 31/08/2014
961 431600 FERNANDA DIAS BARBOSA MENEZES ANALISTA DO MP ATIVO OURO BRANCO - COMARCA; OURO BRANCO-PJ-UNPJ 7.014,37 701,44 0,00 0,00 0,00 0,00 7.715,81 962,05 1.265,00 0,00 2.227,05 5.488,76 1.435,56 1.077,35 31/08/2014
962 162200 FERNANDA FERNANDES MONTEIRO ASSESSOR ATIVO BELO HORIZONTE - COMARCA; CAO-DH APOIO COMUNITARIO-SEC ADM 0,00 1.181,65 3.938,84 0,00 0,00 0,00 5.120,49 482,93 489,43 0,00 972,36 4.148,13 920,50 0,00 31/08/2014
963 512800 FERNANDA FERREIRA BARBOSA MOREIRA ANALISTA DO MP ATIVO IPATINGA - COMARCA; IPATINGA-PJ-05PJ 5.511,94 0,00 0,00 0,00 0,00 0,00 5.511,94 606,31 522,90 0,00 1.129,21 4.382,73 685,50 0,00 31/08/2014
964 329200 FERNANDA GABRIEL GUZELLA OFICIAL DO MP ATIVO BELO HORIZONTE - COMARCA; ASSESS ESPECIAL DO PGJ ATUACAO JUNTO A PGJAI 5.691,44 569,14 0,00 0,00 2.086,86 0,00 8.347,44 688,66 1.280,01 0,00 1.968,67 6.378,77 685,50 0,00 31/08/2014
965 324200 FERNANDA GEORGIA NEVES ZAHAN OFICIAL DO MP ATIVO IPANEMA - COMARCA; IPANEMA-PJ-SECRETARIA 4.848,98 2.424,49 0,00 0,00 0,00 0,00 7.273,47 800,08 855,19 0,00 1.655,27 5.618,20 685,50 0,00 31/08/2014
966 548200 FERNANDA GONCALVES DE CARVALHO ZUZA OFICIAL DO MP ATIVO TUPACIGUARA - COMARCA; TUPACIGUARA-PJ-UNPJ 2.952,15 0,00 0,00 0,00 0,00 0,00 2.952,15 324,74 62,98 0,00 387,72 2.564,43 685,50 0,00 31/08/2014
967 355400 FERNANDA HELENA BASQUES OFICIAL DO MP ATIVO SABARÁ - COMARCA; SABARA-PJ-01PJ 5.691,44 569,14 0,00 0,00 0,00 0,00 6.260,58 688,66 706,13 0,00 1.394,79 4.865,79 685,50 0,00 31/08/2014
968 454800 FERNANDA IATAROLA BARBOSA DIAS ANALISTA DO MP ATIVO BARBACENA - COMARCA; BARBACENA-PJ-01PJ 6.793,15 407,59 0,00 0,00 0,00 0,00 7.200,74 950,21 1.238,64 0,00 2.188,85 5.011,89 685,50 1.437,49 31/08/2014
969 515500 FERNANDA LILIANE MARUGEIRO ANALISTA DO MP ATIVO VESPASIANO - COMARCA; VESPASIANO-PJ-04PJ 6.068,01 0,00 0,00 0,00 0,00 0,00 6.068,01 667,48 659,00 0,00 1.326,48 4.741,53 685,50 0,00 31/08/2014
970 392900 FERNANDA MAGALHAES SILVA COORDENADOR/ANALISTA ATIVO BELO HORIZONTE - COMARCA; DIRETORIA DE IMPRENSA 0,00 1.030,28 10.302,83 0,00 0,00 0,00 11.333,11 996,20 2.016,50 0,00 3.012,70 8.320,41 685,50 0,00 31/08/2014
971 409200 FERNANDA MAIA SANTIAGO ANALISTA DO MP ATIVO PIRAPORA - COMARCA; PIRAPORA-PJ-02PJ 5.551,10 587,67 0,00 0,00 0,00 0,00 6.138,77 711,08 666,46 0,00 1.377,54 4.761,23 685,50 0,00 31/08/2014
972 621200 FERNANDA MEYGE DE BRITO ANALISTA DO MP ATIVO BELO HORIZONTE - COMARCA; SUPERINTENDENCIA DE RECURSOS HUMANOS 4.404,59 0,00 0,00 0,00 0,00 0,00 4.404,59 726,76 790,89 0,00 1.517,65 2.886,94 1.028,25 2.202,30 31/08/2014
973 556500 FERNANDA OTERO COSTA ANALISTA DO MP ATIVO BELO HORIZONTE - COMARCA; ASSESS TECNICO-JUR JUNTO AS PROC. DE JUST 4.548,03 0,00 0,00 0,00 0,00 0,00 4.548,03 529,74 372,16 0,00 901,90 3.646,13 685,50 315,56 31/08/2014
974 615300 FERNANDA PATRICIA RIBEIRO MOTA OFICIAL DO MP ATIVO UBERABA - COMARCA; UBERABA-PJ-05PJ 2.859,08 0,00 0,00 0,00 0,00 0,00 2.859,08 314,50 56,76 0,00 371,26 2.487,82 685,50 0,00 31/08/2014
975 619800 FERNANDA PINTO PEREIRA ANALISTA DO MP ATIVO UBERLÂNDIA - COMARCA; UBERLANDIA-PJ-20PJ 4.404,59 0,00 0,00 0,00 0,00 0,00 4.404,59 759,06 862,75 0,00 1.621,81 2.782,78 1.090,57 2.495,93 31/08/2014
976 412900 FERNANDA PORTELA ROSA ANALISTA DO MP ATIVO BELO HORIZONTE - COMARCA; BH-08PJ JUIZADO ESPECIAL-SECRETARIA 7.973,40 797,34 0,00 0,00 0,00 0,00 8.770,74 1.664,71 2.877,83 0,00 4.542,54 4.228,20 685,50 6.362,99 31/08/2014
977 274301 FERNANDA QUEIROZ PARREIRA ANALISTA DO MP ATIVO PATOS DE MINAS - COMARCA; COORD REG PJ DEF EDU DIR CRI ADO AL PAR NOROE 6.068,01 364,08 0,00 0,00 0,00 0,00 6.432,09 747,58 837,21 0,00 1.584,79 4.847,30 685,50 364,08 31/08/2014
978 467900 FERNANDA QUEIROZ SIMOES GANNAM ANALISTA DO MP ATIVO SÃO LOURENÇO - COMARCA; SAO LOURENCO-PJ-02PJ 6.265,58 375,93 0,00 0,00 0,00 0,00 6.641,51 730,57 799,36 0,00 1.529,93 5.111,58 685,50 0,00 31/08/2014
979 255500 FERNANDA SIMOES LOPES MENDES ANALISTA DO MP ATIVO BELO HORIZONTE - COMARCA; BH-17PJ PATRIMONIO PUBLICO-SECRETARIA 9.977,95 1.995,59 0,00 0,00 0,00 0,00 11.973,54 1.317,09 2.005,53 0,00 3.322,62 8.650,92 1.155,50 0,00 31/08/2014
980 481700 FERNANDA VIANA FROES DA SILVA OFICIAL DO MP ATIVO GOVERNADOR VALADARES - COMARCA; GOVERNADOR VALADARES-PJ-09PJ 4.000,95 240,06 0,00 0,00 0,00 0,00 4.241,01 466,51 246,30 0,00 712,81 3.528,20 1.155,50 0,00 31/08/2014
981 123900 FERNANDO ANTONIO FARIA ABREU ASSESSOR/ANALISTA ATIVO BELO HORIZONTE - COMARCA; PROCURADORIA-GERAL ADJUNTA ADMINISTRATIVA 20.299,65 21.542,83 0,00 0,00 0,00 2.924,86 44.767,34 2.924,86 3.999,88 15.252,80 22.177,54 22.589,80 2.458,15 162,49 31/08/2014
982 416900 FERNANDO APARECIDO DA SILVA ANALISTA DO MP ATIVO BOM DESPACHO - COMARCA; BOM DESPACHO-PJ-01PJ 7.014,37 2.805,75 0,00 0,00 0,00 0,00 9.820,12 1.080,21 1.478,48 0,00 2.558,69 7.261,43 3.650,04 250,21 31/08/2014
983 395900 FERNANDO AUGUSTO ETO LAGES ANALISTA DO MP ATIVO BELO HORIZONTE - COMARCA; CENTRAL DE APOIO TECN-SETOR DE MEIO AMBIENTE 7.973,40 797,34 0,00 0,00 0,00 0,00 8.770,74 964,78 1.320,49 0,00 2.285,27 6.485,47 4.230,79 324,98 31/08/2014
984 380500 FERNANDO BONES COSTA OFICIAL DO MP ATIVO BELO HORIZONTE - COMARCA; EXTINTA - DIVISÃO DE MATERIAL PERMANENTE 4.131,19 413,12 0,00 0,00 0,00 0,00 4.544,31 499,87 307,04 0,00 806,91 3.737,40 685,50 0,00 31/08/2014
985 500100 FERNANDO CEZAR PINTO ASSESSOR/OFICIAL ATIVO BELO HORIZONTE - COMARCA; EXTINTA - DIVISÃO DE MATERIAL PERMANENTE 0,00 0,00 7.973,40 0,00 0,00 0,00 7.973,40 433,27 1.197,97 0,00 1.631,24 6.342,16 920,50 0,00 31/08/2014
986 346100 FERNANDO EUSTAQUIO CAMPOS UTSCH MOREIRA ANALISTA DO MP ATIVO BELO HORIZONTE - COMARCA; DIRETORIA DE REDES E BANCOS DE DADOS 9.358,72 935,87 0,00 0,00 0,00 0,00 10.294,59 1.229,48 1.761,18 0,00 2.990,66 7.303,93 1.696,32 953,62 31/08/2014
987 103500 FERNANDO LUIZ DA SILVA JUNIOR COORDENADOR/OFICIAL ATIVO BELO HORIZONTE - COMARCA; DIVISAO DE ATENDIMENTO E CONSULTA JURIDICA 12.356,19 6.936,47 0,00 0,00 0,00 0,00 19.292,66 1.902,85 3.956,05 0,00 5.858,90 13.433,76 4.230,79 324,98 31/08/2014
988 287300 FERNANDO MARCIO ALVES MARTINS OFICIAL DO MP ATIVO LEOPOLDINA - COMARCA; LEOPOLDINA-PJ-01PJ 4.848,98 969,80 0,00 0,00 0,00 0,00 5.818,78 640,07 449,73 0,00 1.089,80 4.728,98 685,50 0,00 31/08/2014
989 262200 FERNANDO MARCIO RESENDE PEREIRA COORDENADOR/OFICIAL ATIVO BELO HORIZONTE - COMARCA; BH-12PJ JUIZO CRIMINAL-SECRETARIA 0,00 1.812,72 9.063,59 0,00 0,00 0,00 10.876,31 751,27 1.958,24 0,00 2.709,51 8.166,80 685,50 0,00 31/08/2014
990 472900 FERNANDO RODRIGUES DE FREITAS ANALISTA DO MP ATIVO BELO HORIZONTE - COMARCA; BH-15PJ M AMB PAT HIST CULT-ASS TECNICA 6.265,58 375,93 0,00 0,00 0,00 0,00 6.641,51 730,57 749,94 0,00 1.480,51 5.161,00 685,50 0,00 31/08/2014
991 219600 FERNANDO SOARES MIRANDA ANALISTA DO MP ATIVO BELO HORIZONTE - COMARCA; DIVISAO DE MULTIMIDIA 11.885,64 10.697,07 0,00 0,00 0,00 2.484,10 25.066,81 2.484,10 5.285,25 0,00 7.769,35 17.297,46 685,50 0,00 31/08/2014
992 421400 FERNANDO TEODORO MACIEL ANALISTA DO MP ATIVO SANTA VITÓRIA - COMARCA; SANTA VITORIA-PJ-UNPJ 7.014,37 701,44 0,00 0,00 0,00 0,00 7.715,81 994,25 1.336,63 0,00 2.330,88 5.384,93 920,50 1.322,80 31/08/2014
993 446300 FERNANDO VITOR DE OLIVEIRA ANALISTA DO MP ATIVO MONTES CLAROS - COMARCA; COORD REG BACIA RIOS VERDE GRANDE E PARDO 6.793,15 407,59 0,00 0,00 0,00 0,00 7.200,74 792,08 936,23 0,00 1.728,31 5.472,43 685,50 0,00 31/08/2014
994 617100 FILLIPE DA SILVA BRAGA ANALISTA DO MP ATIVO DIVINO - COMARCA; DIVINO-PJ-UNPJ 4.404,59 0,00 0,00 0,00 0,00 0,00 4.404,59 484,50 279,06 0,00 763,56 3.641,03 685,50 0,00 31/08/2014
995 398400 FLAVIA ALVARES GUIMARAES OFICIAL DO MP ATIVO BELO HORIZONTE - COMARCA; CGMP-SECRETARIA DA CORREGEDORIA-GERAL DO MP 4.131,19 413,12 0,00 0,00 0,00 0,00 4.544,31 499,87 266,60 0,00 766,47 3.777,84 2.503,22 136,33 31/08/2014
996 398200 FLAVIA ALVES DE ASSUNCAO RODRIGUES ANALISTA DO MP ATIVO DIVINÓPOLIS - COMARCA; COORD REG DO MA DA BACIA DO ALTO SAO FRANC 7.721,95 772,20 0,00 0,00 0,00 0,00 8.494,15 934,36 1.252,79 0,00 2.187,15 6.307,00 4.230,79 324,98 31/08/2014
997 554400 FLAVIA BAO TRAVIZANI ANALISTA DO MP ATIVO SETE LAGOAS - COMARCA; SETE LAGOAS-PJ-11PJ 5.006,87 0,00 0,00 0,00 0,00 0,00 5.006,87 550,76 399,66 0,00 950,42 4.056,45 685,50 0,00 31/08/2014
998 318500 FLAVIA BEATRIZ NUNES CRUZ VIEIRA ANALISTA DO MP ATIVO BARBACENA - COMARCA; BARBACENA-PJ-SECRETARIA 9.358,72 935,87 0,00 0,00 0,00 0,00 10.294,59 1.132,40 1.644,03 0,00 2.776,43 7.518,16 920,50 0,00 31/08/2014
999 496500 FLAVIA CARAM BORLIDO ANALISTA DO MP ATIVO BELO HORIZONTE - COMARCA; EXTINTA - DIVISAO DE SERVICOS GERAIS 6.068,01 364,08 0,00 0,00 2.144,03 0,00 8.576,12 747,58 1.426,82 0,00 2.174,40 6.401,72 685,50 364,08 31/08/2014
1000 534800 FLAVIA CONDE SOARES ANALISTA DO MP ATIVO RIBEIRÃO DAS NEVES - COMARCA; RIBEIRAO DAS NEVES-PJ-10PJ 5.006,87 0,00 0,00 0,00 0,00 0,00 5.006,87 550,76 399,66 0,00 950,42 4.056,45 685,50 0,00 31/08/2014
1001 219500 FLAVIA CRISTINA ANCELMO OFICIAL DO MP ATIVO BELO HORIZONTE - COMARCA; BH-17PJ PATRIMONIO PUBLICO-SECRETARIA 6.068,01 1.213,60 0,00 0,00 0,00 0,00 7.281,61 800,98 956,02 0,00 1.757,00 5.524,61 685,50 0,00 31/08/2014
1002 329600 FLAVIA CRISTINA DE MATOS XAVIER ANALISTA DO MP ATIVO UBERABA - COMARCA; UBERABA-PJ-15PJ 9.358,72 1.871,74 0,00 0,00 0,00 0,00 11.230,46 1.235,35 1.823,66 0,00 3.059,01 8.171,45 920,50 0,00 31/08/2014
1003 207600 FLAVIA DE ANDRADE MANCINI ANALISTA DO MP ATIVO BELO HORIZONTE - COMARCA; ASSESSORIA JURIDICO-ADMINISTRATIVA 11.885,64 2.377,13 0,00 0,00 0,00 0,00 14.262,77 1.568,90 2.516,40 0,00 4.085,30 10.177,47 1.155,50 0,00 31/08/2014
1004 402801 FLAVIA MARIA DE RESENDE NASCIMENTO ANALISTA DO MP ATIVO SÃO JOÃO DEL REI - COMARCA; SAO JOAO DEL REI-PJ-04PJ 6.068,01 0,00 0,00 0,00 0,00 0,00 6.068,01 667,48 659,00 0,00 1.326,48 4.741,53 920,50 0,00 31/08/2014
1005 437500 FLAVIA MARIA TORRES MARCHETTI COORDENADOR/ANALISTA ATIVO BELO HORIZONTE - COMARCA; BH-13ª PJ JUÍXO DE TÓXICOS 0,00 543,82 9.063,59 0,00 0,00 0,00 9.607,41 792,08 1.598,07 0,00 2.390,15 7.217,26 685,50 0,00 31/08/2014
1006 386000 FLAVIA NEVES BRIGIDO OFICIAL DO MP ATIVO BELO HORIZONTE - COMARCA; PROMOT ESTADUAL DE DEF PATRI CULT E TUR DE MG 4.131,19 413,12 0,00 0,00 0,00 0,00 4.544,31 499,87 307,04 0,00 806,91 3.737,40 685,50 0,00 31/08/2014
1007 488600 FLAVIA PEREIRA COSTA ANALISTA DO MP ATIVO BELO HORIZONTE - COMARCA; SERVICO MEDICO-DEPTO PERIC MEDICA SAUDE OCUP 6.265,58 375,93 0,00 0,00 0,00 0,00 6.641,51 776,64 921,07 0,00 1.697,71 4.943,80 685,50 488,65 31/08/2014
1008 365400 FLAVIA PEREIRA DA SILVA OFICIAL DO MP ATIVO BELO HORIZONTE - COMARCA; BH-15PJ M AMB 16PJ HAB URB-SECRETARIA 5.511,94 551,19 0,00 0,00 0,00 0,00 6.063,13 666,94 657,80 0,00 1.324,74 4.738,39 685,50 0,00 31/08/2014
1009 515400 FLAVIA RODRIGUES DE OLIVEIRA E SILVA PAIVA ANALISTA DO MP ATIVO CARATINGA - COMARCA; CARATINGA-PJ-01PJ 6.068,01 0,00 0,00 0,00 0,00 0,00 6.068,01 667,48 461,31 0,00 1.128,79 4.939,22 685,50 0,00 31/08/2014
1010 621600 FLAVIA SARMENTO RODRIGUES ANALISTA DO MP ATIVO BELO HORIZONTE - COMARCA; AUDITORIA INTERNA 4.404,59 0,00 0,00 0,00 0,00 0,00 4.404,59 597,56 503,41 0,00 1.100,97 3.303,62 1.131,13 1.027,74 31/08/2014
1011 535800 FLAVIA SILVA VALADAO OFICIAL DO MP ATIVO TRÊS CORACOES - COMARCA; TRES CORACOES-PJ-04PJ 2.952,15 0,00 0,00 0,00 0,00 0,00 2.952,15 324,74 62,98 0,00 387,72 2.564,43 920,50 0,00 31/08/2014
1012 515300 FLAVIA VIEIRA OLIVEIRA ANALISTA DO MP ATIVO BELO HORIZONTE - COMARCA; CAO-CRIMINAL-SECRETARIA 6.068,01 0,00 0,00 0,00 0,00 0,00 6.068,01 667,48 659,00 0,00 1.326,48 4.741,53 685,50 0,00 31/08/2014
1013 377500 FLAVIANA GONCALVES DE OLIVEIRA ANALISTA DO MP ATIVO TIMÓTEO - COMARCA; TIMOTEO-PJ-02PJ 7.973,40 797,34 0,00 0,00 0,00 0,00 8.770,74 964,78 1.320,49 0,00 2.285,27 6.485,47 685,50 0,00 31/08/2014
1014 273100 FLAVIANE DOS SANTOS CASTRO OFICIAL DO MP ATIVO CAXAMBU - COMARCA; CAXAMBU-PJ-SECRETARIA 6.265,58 1.253,12 0,00 0,00 0,00 0,00 7.518,70 827,06 915,21 0,00 1.742,27 5.776,43 1.155,50 0,00 31/08/2014
1015 310600 FLAVIANE NAVES ALCANTARA ASSESSOR/OFICIAL ATIVO BELO HORIZONTE - COMARCA; COMB CRIMES PRAT POR AG POL MUN-SECRETARIA 0,00 1.594,68 7.973,40 0,00 0,00 0,00 9.568,08 827,06 1.577,63 0,00 2.404,69 7.163,39 4.230,79 324,98 31/08/2014
1016 455800 FLAVIO ANTONIO RIBEIRO OFICIAL DO MP ATIVO BELO HORIZONTE - COMARCA; GRUPO ESP PROM PROC JUST DEF PROB ADM PAT PUB 3.355,81 201,35 0,00 0,00 0,00 0,00 3.557,16 424,84 180,57 0,00 605,41 2.951,75 685,50 305,00 31/08/2014
1017 458200 FLAVIO AUGUSTO BRAGA SOARES ANALISTA DO MP ATIVO BELO HORIZONTE - COMARCA; DIVISAO DE MANUTENCAO PREDIAL 6.265,58 375,93 0,00 0,00 0,00 0,00 6.641,51 730,57 799,36 0,00 1.529,93 5.111,58 685,50 0,00 31/08/2014
1018 516500 FLAVIO AUGUSTO RODRIGUES CORREA ANALISTA DO MP ATIVO BELO HORIZONTE - COMARCA; COORD REG BACIAS RIO VELHAS E PARAOPEBA 5.511,94 0,00 0,00 0,00 1.837,31 0,00 7.349,25 606,31 1.028,16 0,00 1.634,47 5.714,78 685,50 0,00 31/08/2014
1019 84300 FLAVIO DE FARIA BELTRAO OFICIAL DO MP ATIVO BELO HORIZONTE - COMARCA; DIRETORIA DE ADMINISTRACAO FINANCEIRA 18.218,36 12.752,85 0,00 0,00 0,00 0,00 30.971,21 2.924,86 5.632,26 4.381,53 12.938,65 18.032,56 685,50 0,00 31/08/2014
1020 266600 FLAVIO GUIMARAES LANA ANALISTA DO MP ATIVO BELO HORIZONTE - COMARCA; CENTRAL DE APOIO TECN-SETOR DE MEIO AMBIENTE 9.063,59 1.812,72 0,00 0,00 0,00 0,00 10.876,31 1.196,39 1.835,83 0,00 3.032,22 7.844,09 685,50 0,00 31/08/2014
1021 552600 FLAVIO HENRIQUE EVARISTO GOMES ASSESSOR/ANALISTA ATIVO BELO HORIZONTE - COMARCA; DIRETORIA DE SUPORTE E MANUTENCAO 0,00 0,00 7.973,40 0,00 0,00 0,00 7.973,40 603,38 1.332,16 0,00 1.935,54 6.037,86 685,50 478,38 31/08/2014
1022 241500 FLAVIO HENRIQUE SILVA MARTINS LAGE OFICIAL DO MP ATIVO BELO HORIZONTE - COMARCA; CAO-DIREITOS HUMANOS E APOIO COMUNITARIO 6.469,61 1.940,88 0,00 0,00 0,00 0,00 8.410,49 925,15 1.232,32 0,00 2.157,47 6.253,02 4.230,79 324,98 31/08/2014
1023 86700 FLAVIO LUCAS TOMAZ AGENTE DO MP ATIVO BELO HORIZONTE - COMARCA; BH-06PJ JUIZO CIVEL-SECRETARIA 5.169,86 2.584,93 0,00 0,00 0,00 0,00 7.754,79 853,03 679,24 0,00 1.532,27 6.222,52 685,50 0,00 31/08/2014
1024 407200 FLAVIO LUCIO MONTEIRO PENA ANALISTA DO MP ATIVO BELO HORIZONTE - COMARCA; DIRETORIA DE IMPRENSA 6.469,61 646,96 0,00 0,00 0,00 0,00 7.116,57 782,82 915,63 0,00 1.698,45 5.418,12 685,50 0,00 31/08/2014
1025 451700 FLAVIO MAGALHAES PEREIRA ANALISTA DO MP ATIVO BELO HORIZONTE - COMARCA; BH-12PJ JUIZO CRIMINAL-GAB 098PJ 6.793,15 407,59 0,00 0,00 0,00 0,00 7.200,74 792,08 936,23 0,00 1.728,31 5.472,43 685,50 0,00 31/08/2014
1026 481500 FLAVIO NEVES GUELBER DE MACEDO OFICIAL DO MP ATIVO SÃO JOÃO NEPOMUCENO - COMARCA; SAO JOAO NEPOMUCENO-PJ-02PJ 3.694,41 221,66 0,00 0,00 0,00 0,00 3.916,07 430,77 187,77 0,00 618,54 3.297,53 685,50 0,00 31/08/2014
1027 547500 FRANCELINO MOREIRA DA SILVA ANALISTA DO MP ATIVO GRAO MOGOL - COMARCA; GRAO MOGOL-PJ-UNPJ 4.548,03 0,00 0,00 0,00 0,00 0,00 4.548,03 500,28 307,78 0,00 808,06 3.739,97 685,50 0,00 31/08/2014
1028 278100 FRANCIANE MARY DE SOUZA DOMENICI DE BRITO E CASTRO ANALISTA DO MP ATIVO BELO HORIZONTE - COMARCA; BH-12PJ JUIZO CRIMINAL 10.302,83 2.060,57 0,00 0,00 0,00 0,00 12.363,40 1.359,97 2.150,37 0,00 3.510,34 8.853,06 685,50 0,00 31/08/2014
1029 192501 FRANCIELLE REIS DE OLIVEIRA ANALISTA DO MP ATIVO PASSOS - COMARCA; PASSOS-PJ-04PJ 9.663,38 1.932,68 0,00 0,00 0,00 0,00 11.596,06 1.275,57 1.863,72 0,00 3.139,29 8.456,77 920,50 0,00 31/08/2014
1030 523600 FRANCINE MOURA LIMIRIO OFICIAL DO MP ATIVO UBERABA - COMARCA; UBERABA-PJ-02PJ 3.577,90 0,00 0,00 0,00 0,00 0,00 3.577,90 393,57 142,62 0,00 536,19 3.041,71 685,50 0,00 31/08/2014
1031 467200 FRANCINI RENNO ANALISTA DO MP ATIVO CASSIA - COMARCA; CASSIA-PJ-02PJ 5.691,44 341,49 0,00 0,00 0,00 0,00 6.032,93 663,62 650,41 0,00 1.314,03 4.718,90 685,50 0,00 31/08/2014
1032 189300 FRANCIS BERNARDO DO NASCIMENTO OFICIAL DO MP ATIVO VARGINHA - COMARCA; VARGINHA-PJ-05PJ 8.501,02 2.550,31 0,00 0,00 0,00 0,00 11.051,33 1.215,65 1.878,66 0,00 3.094,31 7.957,02 920,50 0,00 31/08/2014
1033 207800 FRANCISCO CAMPOS PIRES DE MORAIS ANALISTA DO MP ATIVO BELO HORIZONTE - COMARCA; CENTRAL DE APOIO TECN-SETOR DE MEIO AMBIENTE 13.353,95 2.670,79 0,00 0,00 0,00 0,00 16.024,74 1.762,72 2.997,07 0,00 4.759,79 11.264,95 4.230,79 324,98 31/08/2014
1034 424200 FRANCISCO DE FREITAS JUNIOR ANALISTA DO MP ATIVO MONTE AZUL - COMARCA; MONTE AZUL-PJ-UNPJ 7.014,37 701,44 0,00 0,00 0,00 0,00 7.715,81 848,74 1.062,29 0,00 1.911,03 5.804,78 954,30 0,00 31/08/2014
1035 607700 FRANCISCO EDUARDO DE CASTRO ANALISTA DO MP ATIVO BELO HORIZONTE - COMARCA; DIR ANALISES TECNOLOGIA INTELIGENCIA 4.404,59 0,00 0,00 0,00 0,00 0,00 4.404,59 484,50 279,06 0,00 763,56 3.641,03 685,50 0,00 31/08/2014
1036 204600 FRANCISCO FERREIRA NOVAIS OFICIAL DO MP ATIVO IPATINGA - COMARCA; IPATINGA-PJ-08PJ 6.793,15 2.037,95 0,00 0,00 0,00 0,00 8.831,10 971,42 1.236,42 0,00 2.207,84 6.623,26 685,50 0,00 31/08/2014
1037 60500 FRANCISCO OLIMPIO TEIXEIRA AGENTE DO MP ATIVO BELO HORIZONTE - COMARCA; EXTINTA - DIVISAO DE TRANSPORTES 4.696,06 3.756,85 0,00 0,00 0,00 1.256,57 9.709,48 1.256,57 2.167,01 0,00 3.423,58 6.285,90 685,50 2.970,45 31/08/2014
1038 411600 FRANCISCO PAIVA BRITO ANALISTA DO MP ATIVO BELO HORIZONTE - COMARCA; TRIBUNAL DO JURI-07 PJ-02 TRIBUNAL 6.469,61 646,96 0,00 0,00 0,00 0,00 7.116,57 782,82 915,63 0,00 1.698,45 5.418,12 685,50 0,00 31/08/2014
1039 515800 FRANCISCO RAFAEL DA SILVA NETO ANALISTA DO MP ATIVO SACRAMENTO - COMARCA; SACRAMENTO-PJ-01PJ 5.006,87 0,00 0,00 0,00 0,00 0,00 5.006,87 550,76 278,36 0,00 829,12 4.177,75 2.688,25 150,21 31/08/2014
1040 515200 FRANCISLEI ELIAS GONCALVES OFICIAL DO MP ATIVO PASSOS - COMARCA; PASSOS-PJ-07PJ 3.250,03 650,01 0,00 0,00 0,00 0,00 3.900,04 429,00 77,80 0,00 506,80 3.393,24 920,50 0,00 31/08/2014
1041 443600 FRANCISLEI MARTINS DE SOUSA ANALISTA DO MP ATIVO TIMÓTEO - COMARCA; TIMOTEO-PJ-01PJ 6.793,15 407,59 0,00 0,00 0,00 0,00 7.200,74 792,08 936,23 0,00 1.728,31 5.472,43 685,50 0,00 31/08/2014
1042 424500 FREDERICO AUGUSTO COBRA MULLER ANALISTA DO MP ATIVO POUSO ALEGRE - COMARCA; POUSO ALEGRE-PJ-02PJ 7.014,37 701,44 0,00 0,00 0,00 0,00 7.715,81 848,74 1.062,29 0,00 1.911,03 5.804,78 685,50 0,00 31/08/2014
1043 473100 FREDERICO AUGUSTO LIMA FELICIO ANALISTA DO MP ATIVO CONCEIÇÃO DO MATO DENTRO - COMARCA; CONCEICAO DO MATO DENTRO-PJ-UNPJ 6.265,58 375,93 0,00 0,00 0,00 0,00 6.641,51 730,57 799,36 0,00 1.529,93 5.111,58 685,50 0,00 31/08/2014
1044 318100 FREDERICO BIANCHINI JOVIANO DOS SANTOS ASSESSOR/OFICIAL ATIVO BELO HORIZONTE - COMARCA; PROMOT ESTADUAL DE DEF PATRI CULT E TUR DE MG 0,00 797,34 7.973,40 0,00 0,00 0,00 8.770,74 568,22 1.429,54 0,00 1.997,76 6.772,98 685,50 0,00 31/08/2014
1045 124200 FREDERICO DE SOUZA ROCHA OFICIAL DO MP ATIVO ESPINOSA - COMARCA; ESPINOSA-PJ-SECRETARIA 9.358,72 6.551,11 0,00 0,00 0,00 0,00 15.909,83 1.900,09 3.302,71 0,00 5.202,80 10.707,03 869,82 1.363,70 31/08/2014
1046 177100 FREDERICO FERNANDES DE ANDRADE OFICIAL DO MP ATIVO BELO HORIZONTE - COMARCA; SUPERINTENDENCIA DE TECNOLOGIA DA INFORMACAO 7.973,40 1.594,68 0,00 0,00 0,00 0,00 9.568,08 1.558,85 1.376,39 0,00 2.935,24 6.632,84 685,50 0,00 31/08/2014
1047 456200 FREDERICO FERNANDES PASSOS ANALISTA DO MP ATIVO BELO HORIZONTE - COMARCA; DIRETORIA DE REDES E BANCOS DE DADOS 6.265,58 375,93 0,00 0,00 0,00 0,00 6.641,51 793,19 889,28 0,00 1.682,47 4.959,04 685,50 569,30 31/08/2014
1048 400900 FREDERICO LUCIANO BORGES REIS ANALISTA DO MP ATIVO BELO HORIZONTE - COMARCA; DIRETORIA DE SISTEMAS DE INFORMACAO 7.973,40 797,34 0,00 0,00 0,00 0,00 8.770,74 1.541,47 2.603,63 0,00 4.145,10 4.625,64 685,50 5.242,65 31/08/2014
1049 466200 FREDERICO LUIS FERNANDES ANALISTA DO MP ATIVO BELO HORIZONTE - COMARCA; BH-12PJ JUIZO CRIMINAL-GAB 106PJ 6.265,58 375,93 0,00 0,00 0,00 0,00 6.641,51 730,57 749,94 0,00 1.480,51 5.161,00 685,50 0,00 31/08/2014
1050 419700 FREDERICO MECKLER SANTOS ANALISTA DO MP ATIVO CLÁUDIO - COMARCA; CLAUDIO-PJ-UNPJ 6.620,12 701,44 0,00 0,00 0,00 0,00 7.321,56 848,74 953,88 0,00 1.802,62 5.518,94 685,50 0,00 31/08/2014
1051 257100 FULVIA HERONVILLE DA SILVA OFICIAL DO MP ATIVO BELO HORIZONTE - COMARCA; DIVISAO DE MEMORIA INSTITUCIONAL 6.265,58 1.253,12 0,00 0,00 0,00 0,00 7.518,70 827,06 964,63 0,00 1.791,69 5.727,01 4.465,79 324,98 31/08/2014
1052 621700 GABRIEL ANDRADE SOUZA GROSSI RIBEIRO OFICIAL DO MP ATIVO BETIM - COMARCA; BETIM-PJ-SECRETARIA 2.573,17 0,00 0,00 0,00 0,00 0,00 2.573,17 283,05 37,68 0,00 320,73 2.252,44 654,34 0,00 31/08/2014
1053 613600 GABRIEL BASTOS MEIRELES ANALISTA DO MP ATIVO BELO HORIZONTE - COMARCA; BH-16PJ HABITACAO E URBANISMO 4.404,59 0,00 0,00 0,00 0,00 0,00 4.404,59 484,50 279,06 0,00 763,56 3.641,03 685,50 0,00 31/08/2014
1054 397200 GABRIEL DEIVID MARTINS LEITE OFICIAL DO MP ATIVO MONTE CARMELO - COMARCA; MONTE CARMELO-PJ-02PJ 5.006,87 500,69 0,00 0,00 0,00 0,00 5.507,56 605,83 521,83 0,00 1.127,66 4.379,90 930,77 0,00 31/08/2014
1055 617900 GABRIELA CIRILA ROQUE ANALISTA DO MP ATIVO ITABIRA - COMARCA; ITABIRA-PJ-SECRETARIA 4.848,98 0,00 0,00 0,00 0,00 0,00 4.848,98 618,12 549,16 0,00 1.167,28 3.681,70 685,50 770,28 31/08/2014
1056 386800 GABRIELA SIMOES CHAVES ANALISTA DO MP ATIVO BELO HORIZONTE - COMARCA; EXTINTA - DIVISÃO DE COMPRAS 7.973,40 797,34 0,00 0,00 0,00 0,00 8.770,74 1.047,48 1.504,49 0,00 2.551,97 6.218,77 685,50 751,80 31/08/2014
1057 449700 GABRIELE COSTA FERREIRA OFICIAL DO MP ATIVO BELO HORIZONTE - COMARCA; DIRETORIA DE ORCAMENTO-DIOR/SPC 3.694,41 221,66 0,00 0,00 0,00 0,00 3.916,07 430,77 187,77 0,00 618,54 3.297,53 685,50 0,00 31/08/2014
1058 357600 GABRIELLA CRUZ EMRICH OFICIAL DO MP ATIVO ARCOS - COMARCA; ARCOS-PJ-SECRETARIA 4.265,74 426,57 0,00 0,00 0,00 0,00 4.692,31 516,15 336,68 0,00 852,83 3.839,48 685,50 0,00 31/08/2014
1059 470600 GABRIELLA SPIRANDELLI COIMBRA ANALISTA DO MP ATIVO UBERLÂNDIA - COMARCA; UBERLANDIA-PJ-19PJ 6.265,58 375,93 0,00 0,00 0,00 0,00 6.641,51 730,57 799,36 0,00 1.529,93 5.111,58 685,50 0,00 31/08/2014
1060 86000 GASPAR GOMES DE SOUSA AGENTE DO MP ATIVO BELO HORIZONTE - COMARCA; BH-15PJ M AMB PAT HIST CULT-RECEPCAO 18.218,36 14.574,69 0,00 0,00 0,00 0,00 32.793,05 2.924,86 5.681,68 6.203,37 14.809,91 17.983,14 4.230,79 324,98 31/08/2014
1061 183100 GECIELLE FERNANDA SILVA OFICIAL DO MP ATIVO PITANGUI - COMARCA; PITANGUI-PJ-02PJ 8.501,02 1.700,20 0,00 0,00 0,00 0,00 10.201,22 1.122,13 1.670,60 0,00 2.792,73 7.408,49 685,50 0,00 31/08/2014
1062 387300 GEOFFREY GIULLIANO OLIVEIRA ALMEIDA ANALISTA DO MP ATIVO JANAÚBA - COMARCA; JANAUBA-PJ-03PJ 7.014,37 701,44 0,00 0,00 0,00 0,00 7.715,81 848,74 1.062,29 0,00 1.911,03 5.804,78 685,50 0,00 31/08/2014
1063 277700 GEORGIA CRISTINA BASILIO MEDRADO ANALISTA DO MP ATIVO BELO HORIZONTE - COMARCA; SERVICO MEDICO-DEPTO PERIC MEDICA SAUDE OCUP 9.663,38 2.671,56 0,00 0,00 0,00 0,00 12.334,94 1.275,57 2.165,76 0,00 3.441,33 8.893,61 685,50 0,00 31/08/2014
1064 618000 GEOVANE BUENO GUERRA ANALISTA DO MP ATIVO BELO HORIZONTE - COMARCA; CAO-SAUDE 4.404,59 0,00 0,00 0,00 0,00 0,00 4.404,59 484,50 238,63 0,00 723,13 3.681,46 685,50 0,00 31/08/2014
1065 605200 GEOVANI PREZOTI TONUSSI ANALISTA DO MP ATIVO SANTOS DUMONT - COMARCA; SANTOS DUMONT-PJ-03PJ 4.404,59 0,00 0,00 0,00 0,00 0,00 4.404,59 484,50 279,06 0,00 763,56 3.641,03 685,50 0,00 31/08/2014
1066 512100 GEOVANI VICENTIN ANALISTA DO MP ATIVO SANTA RITA DE CALDAS - COMARCA; SANTA RITA DE CALDAS-PJ-UNPJ 6.068,01 0,00 0,00 0,00 0,00 0,00 6.068,01 667,48 659,00 0,00 1.326,48 4.741,53 685,50 0,00 31/08/2014
1067 116300 GEOVANNA DAS GRACAS ROSA REQUEIJO AGENTE DO MP ATIVO SANTA LUZIA - COMARCA; SANTA LUZIA-PJ-06PJ 13.882,65 5.553,07 0,00 0,00 0,00 0,00 19.435,72 2.137,93 3.831,90 0,00 5.969,83 13.465,89 4.465,79 324,98 31/08/2014
1068 207200 GERALDO AFONSO DE MOURA CALDEIRA ANALISTA DO MP ATIVO BELO HORIZONTE - COMARCA; BH-17PJ PATRIMONIO PUBLICO 13.353,95 2.670,79 0,00 0,00 0,00 1.762,72 17.787,46 1.762,72 3.580,65 0,00 5.343,37 12.444,09 685,50 0,00 31/08/2014
1069 274901 GERALDO ANDRE DE OLIVEIRA ANALISTA DO MP ATIVO CONTAGEM - COMARCA; CONTAGEM-PJ-18PJ 5.691,44 1.138,29 0,00 0,00 0,00 0,00 6.829,73 782,86 915,72 0,00 1.698,58 5.131,15 685,50 287,20 31/08/2014
1070 270900 GERALDO BATISTA BRITES OFICIAL DO MP ATIVO BOM DESPACHO - COMARCA; BOM DESPACHO-PJ-01PJ 6.469,61 1.293,92 0,00 0,00 0,00 0,00 7.763,53 927,18 1.088,57 0,00 2.015,75 5.747,78 920,50 665,40 31/08/2014
1071 204200 GERALDO CELIO ARAUJO SOARES OFICIAL DO MP ATIVO GOVERNADOR VALADARES - COMARCA; GOVERNADOR VALADARES-PJ-12PJ 8.501,02 2.550,31 0,00 0,00 0,00 0,00 11.051,33 1.215,65 1.829,24 0,00 3.044,89 8.006,44 920,50 0,00 31/08/2014
1072 66900 GERALDO DIAS CYRINO OFICIAL DO MP ATIVO BELO HORIZONTE - COMARCA; DIRET DE INFORMACAO E CONHECIMENTO-DINC/CEAF 12.356,19 8.649,34 0,00 0,00 0,00 0,00 21.005,53 2.310,61 4.265,53 0,00 6.576,14 14.429,39 685,50 0,00 31/08/2014
1073 366500 GERALDO LEVY ROMUALDO DA SILVA OFICIAL DO MP ATIVO RIO POMBA - COMARCA; RIO POMBA-PJ-SECRETARIA 4.265,74 426,57 0,00 0,00 0,00 0,00 4.692,31 516,15 296,24 0,00 812,39 3.879,92 685,50 0,00 31/08/2014
1074 124300 GERALDO MARCIO GOMES DA SILVA COORDENADOR/ANALISTA ATIVO BELO HORIZONTE - COMARCA; EXTINTA - DIRETORIA SERVIÇOS GERAIS E TRANS 17.524,60 16.904,48 0,00 0,00 0,00 2.924,86 37.353,94 2.924,86 6.337,75 7.839,40 17.102,01 20.251,93 2.458,15 162,49 31/08/2014
1075 124400 GERALDO MAURICIO DE FARIA ROCHA OFICIAL DO MP ATIVO BELO HORIZONTE - COMARCA; BH-13ª PJ JUÍXO DE TÓXICOS 7.721,95 5.405,38 0,00 0,00 0,00 0,00 13.127,33 1.510,78 2.474,43 0,00 3.985,21 9.142,12 685,50 744,98 31/08/2014
1076 472800 GERALDO MONTEIRO CAMARGO JUNIOR ANALISTA DO MP ATIVO ESPINOSA - COMARCA; ESPINOSA-PJ-UNPJ 5.169,86 1.033,97 0,00 0,00 0,00 0,00 6.203,83 682,42 692,24 0,00 1.374,66 4.829,17 685,50 0,00 31/08/2014
1077 124500 GERALDO ROGERIO GOMES SILVEIRA COORDENADOR/OFICIAL ATIVO BELO HORIZONTE - COMARCA; DIRETORIA DE PESSOAL ADMINISTRATIVO - DPAD 10.302,83 9.890,72 0,00 0,00 0,00 0,00 20.193,55 1.926,63 4.285,78 0,00 6.212,41 13.981,14 685,50 501,63 31/08/2014
1078 445900 GERALDO TAVARES FERREIRA ANALISTA DO MP ATIVO FORMIGA - COMARCA; FORMIGA-PJ-03PJ 6.793,15 407,59 0,00 0,00 0,00 0,00 7.200,74 792,08 936,23 0,00 1.728,31 5.472,43 685,50 0,00 31/08/2014
1079 521000 GERALDO VINICIUS IRENO ANALISTA DO MP ATIVO CURVELO - COMARCA; CURVELO-PJ-01PJ 5.511,94 0,00 0,00 0,00 0,00 0,00 5.511,94 606,31 522,90 0,00 1.129,21 4.382,73 685,50 0,00 31/08/2014
1080 325400 GERSONI FERREIRA LUCENA OFICIAL DO MP ATIVO POÇOS DE CALDAS - COMARCA; POCOS DE CALDAS-PJ-02PJ 5.006,87 1.609,01 0,00 0,00 0,00 0,00 6.615,88 605,83 678,35 0,00 1.284,18 5.331,70 920,50 0,00 31/08/2014
1081 445600 GERUSA E SILVA CASTRO LOPEZ ANALISTA DO MP ATIVO BELO HORIZONTE - COMARCA; ASSESSORIA JURIDICO-ADMINISTRATIVA 6.793,15 407,59 0,00 0,00 2.400,25 0,00 9.600,99 792,08 1.596,30 0,00 2.388,38 7.212,61 685,50 0,00 31/08/2014
1082 468600 GILDA MARIA SANTOS DE FILIPPO ANDRADE OFICIAL DO MP ATIVO UBÁ - COMARCA; COORD REG BACIA DO RIO PARAIBA DO SUL 4.000,95 240,06 0,00 0,00 0,00 0,00 4.241,01 466,51 246,30 0,00 712,81 3.528,20 685,50 0,00 31/08/2014
1083 508300 GILMAR ALVES FERREIRA OFICIAL DO MP ATIVO BELO HORIZONTE - COMARCA; BH-13ª PJ JUÍXO DE TÓXICOS 3.577,90 0,00 0,00 0,00 0,00 0,00 3.577,90 393,57 142,62 0,00 536,19 3.041,71